<?xml version="1.0" encoding="UTF-8" standalone="no" ?>
<gpx xmlns="http://www.topografix.com/GPX/1/1" xmlns:xsi="http://www.w3.org/2001/XMLSchema-instance" xsi:schemaLocation="http://www.topografix.com/GPX/1/1 http://www.topografix.com/GPX/1/1/gpx.xsd" version="1.1" creator="VisuGPX - https://www.visugpx.com">
  <metadata>
    <name>Rando Trail Mont Mangiarde</name>
    <desc><![CDATA[Rando Trail Mont Mangiarde depuis la Tour sur Tinée]]></desc>
  </metadata>
  <trk>
    <name><![CDATA[Move]]></name>
    <trkseg>
      <trkpt lat="43.94805" lon="7.18523">
        <ele>626</ele>
        <time>2016-01-23T09:25:47.060Z</time>
      </trkpt>
      <trkpt lat="43.94808" lon="7.18533">
        <ele>623.97977865122</ele>
        <time>2016-01-23T09:25:50.060Z</time>
      </trkpt>
      <trkpt lat="43.94817" lon="7.18544">
        <ele>622</ele>
        <time>2016-01-23T09:25:54.060Z</time>
      </trkpt>
      <trkpt lat="43.94824" lon="7.18558">
        <ele>620</ele>
        <time>2016-01-23T09:25:58.060Z</time>
      </trkpt>
      <trkpt lat="43.94833" lon="7.18571">
        <ele>619</ele>
        <time>2016-01-23T09:26:02.060Z</time>
      </trkpt>
      <trkpt lat="43.94842" lon="7.18577">
        <ele>618.4900096</ele>
        <time>2016-01-23T09:26:05.060Z</time>
      </trkpt>
      <trkpt lat="43.94853" lon="7.18585">
        <ele>618</ele>
        <time>2016-01-23T09:26:09.060Z</time>
      </trkpt>
      <trkpt lat="43.9486" lon="7.18591">
        <ele>616</ele>
        <time>2016-01-23T09:26:12.060Z</time>
      </trkpt>
      <trkpt lat="43.94867" lon="7.18599">
        <ele>615</ele>
        <time>2016-01-23T09:26:18.060Z</time>
      </trkpt>
      <trkpt lat="43.9487" lon="7.18607">
        <ele>614</ele>
        <time>2016-01-23T09:26:54.060Z</time>
      </trkpt>
      <trkpt lat="43.94873" lon="7.18615">
        <ele>613</ele>
        <time>2016-01-23T09:27:22.060Z</time>
      </trkpt>
      <trkpt lat="43.94878" lon="7.18623">
        <ele>613</ele>
        <time>2016-01-23T09:27:28.060Z</time>
      </trkpt>
      <trkpt lat="43.94883" lon="7.18635">
        <ele>614</ele>
        <time>2016-01-23T09:27:42.060Z</time>
      </trkpt>
      <trkpt lat="43.94885" lon="7.18649">
        <ele>614.5100032</ele>
        <time>2016-01-23T09:27:50.060Z</time>
      </trkpt>
      <trkpt lat="43.94889" lon="7.18651">
        <ele>615</ele>
        <time>2016-01-23T09:27:54.060Z</time>
      </trkpt>
      <trkpt lat="43.94886" lon="7.18642">
        <ele>612</ele>
        <time>2016-01-23T09:28:01.060Z</time>
      </trkpt>
      <trkpt lat="43.94885" lon="7.18632">
        <ele>610</ele>
        <time>2016-01-23T09:28:15.060Z</time>
      </trkpt>
      <trkpt lat="43.9489" lon="7.18638">
        <ele>609</ele>
        <time>2016-01-23T09:28:42.060Z</time>
      </trkpt>
      <trkpt lat="43.94897" lon="7.18644">
        <ele>609</ele>
        <time>2016-01-23T09:28:47.060Z</time>
      </trkpt>
      <trkpt lat="43.94905" lon="7.1865">
        <ele>607.9799936</ele>
        <time>2016-01-23T09:28:50.060Z</time>
      </trkpt>
      <trkpt lat="43.9491" lon="7.18656">
        <ele>607</ele>
        <time>2016-01-23T09:28:52.060Z</time>
      </trkpt>
      <trkpt lat="43.94915" lon="7.18661">
        <ele>607</ele>
        <time>2016-01-23T09:28:54.060Z</time>
      </trkpt>
      <trkpt lat="43.9492" lon="7.18666">
        <ele>607</ele>
        <time>2016-01-23T09:28:56.060Z</time>
      </trkpt>
      <trkpt lat="43.94929" lon="7.18673">
        <ele>607</ele>
        <time>2016-01-23T09:28:59.060Z</time>
      </trkpt>
      <trkpt lat="43.94938" lon="7.18684">
        <ele>602</ele>
        <time>2016-01-23T09:29:03.060Z</time>
      </trkpt>
      <trkpt lat="43.94946" lon="7.18694">
        <ele>602</ele>
        <time>2016-01-23T09:29:07.060Z</time>
      </trkpt>
      <trkpt lat="43.94951" lon="7.18701">
        <ele>600.4699904</ele>
        <time>2016-01-23T09:29:10.060Z</time>
      </trkpt>
      <trkpt lat="43.94961" lon="7.1871">
        <ele>597.9800192</ele>
        <time>2016-01-23T09:29:15.060Z</time>
      </trkpt>
      <trkpt lat="43.94971" lon="7.18711">
        <ele>595.9799936</ele>
        <time>2016-01-23T09:29:20.060Z</time>
      </trkpt>
      <trkpt lat="43.94981" lon="7.18712">
        <ele>595</ele>
        <time>2016-01-23T09:29:24.060Z</time>
      </trkpt>
      <trkpt lat="43.94993" lon="7.18717">
        <ele>591</ele>
        <time>2016-01-23T09:29:29.060Z</time>
      </trkpt>
      <trkpt lat="43.95004" lon="7.18723">
        <ele>584.49999372545</ele>
        <time>2016-01-23T09:29:34.060Z</time>
      </trkpt>
      <trkpt lat="43.95014" lon="7.1872">
        <ele>582</ele>
        <time>2016-01-23T09:29:40.060Z</time>
      </trkpt>
      <trkpt lat="43.95024" lon="7.18723">
        <ele>578</ele>
        <time>2016-01-23T09:29:48.060Z</time>
      </trkpt>
      <trkpt lat="43.95033" lon="7.18733">
        <ele>577</ele>
        <time>2016-01-23T09:29:54.060Z</time>
      </trkpt>
      <trkpt lat="43.95043" lon="7.18733">
        <ele>575</ele>
        <time>2016-01-23T09:29:59.060Z</time>
      </trkpt>
      <trkpt lat="43.95053" lon="7.1873">
        <ele>571</ele>
        <time>2016-01-23T09:30:03.060Z</time>
      </trkpt>
      <trkpt lat="43.95064" lon="7.18725">
        <ele>569</ele>
        <time>2016-01-23T09:30:07.060Z</time>
      </trkpt>
      <trkpt lat="43.95075" lon="7.18726">
        <ele>566.4900096</ele>
        <time>2016-01-23T09:30:11.060Z</time>
      </trkpt>
      <trkpt lat="43.95086" lon="7.18731">
        <ele>566</ele>
        <time>2016-01-23T09:30:15.060Z</time>
      </trkpt>
      <trkpt lat="43.95095" lon="7.18727">
        <ele>565</ele>
        <time>2016-01-23T09:30:19.060Z</time>
      </trkpt>
      <trkpt lat="43.95104" lon="7.18717">
        <ele>562</ele>
        <time>2016-01-23T09:30:23.060Z</time>
      </trkpt>
      <trkpt lat="43.95114" lon="7.18712">
        <ele>559</ele>
        <time>2016-01-23T09:30:27.060Z</time>
      </trkpt>
      <trkpt lat="43.95125" lon="7.18713">
        <ele>558</ele>
        <time>2016-01-23T09:30:32.060Z</time>
      </trkpt>
      <trkpt lat="43.95132" lon="7.18726">
        <ele>555</ele>
        <time>2016-01-23T09:30:37.060Z</time>
      </trkpt>
      <trkpt lat="43.9514" lon="7.18739">
        <ele>551.4899968</ele>
        <time>2016-01-23T09:30:42.060Z</time>
      </trkpt>
      <trkpt lat="43.95145" lon="7.18752">
        <ele>548</ele>
        <time>2016-01-23T09:30:46.060Z</time>
      </trkpt>
      <trkpt lat="43.95149" lon="7.18768">
        <ele>547.4899968</ele>
        <time>2016-01-23T09:30:50.060Z</time>
      </trkpt>
      <trkpt lat="43.95151" lon="7.18783">
        <ele>547</ele>
        <time>2016-01-23T09:30:54.060Z</time>
      </trkpt>
      <trkpt lat="43.95154" lon="7.18798">
        <ele>546</ele>
        <time>2016-01-23T09:30:59.060Z</time>
      </trkpt>
      <trkpt lat="43.95166" lon="7.18797">
        <ele>544</ele>
        <time>2016-01-23T09:31:04.060Z</time>
      </trkpt>
      <trkpt lat="43.95176" lon="7.18789">
        <ele>543</ele>
        <time>2016-01-23T09:31:10.060Z</time>
      </trkpt>
      <trkpt lat="43.95185" lon="7.18781">
        <ele>540.4899968</ele>
        <time>2016-01-23T09:31:16.060Z</time>
      </trkpt>
      <trkpt lat="43.95195" lon="7.18774">
        <ele>538.4700288</ele>
        <time>2016-01-23T09:31:21.060Z</time>
      </trkpt>
      <trkpt lat="43.95205" lon="7.18767">
        <ele>537</ele>
        <time>2016-01-23T09:31:25.060Z</time>
      </trkpt>
      <trkpt lat="43.95216" lon="7.18763">
        <ele>534</ele>
        <time>2016-01-23T09:31:29.060Z</time>
      </trkpt>
      <trkpt lat="43.95229" lon="7.18764">
        <ele>532</ele>
        <time>2016-01-23T09:31:33.060Z</time>
      </trkpt>
      <trkpt lat="43.95239" lon="7.18777">
        <ele>531</ele>
        <time>2016-01-23T09:31:37.060Z</time>
      </trkpt>
      <trkpt lat="43.95246" lon="7.18788">
        <ele>530</ele>
        <time>2016-01-23T09:31:40.060Z</time>
      </trkpt>
      <trkpt lat="43.95257" lon="7.18792">
        <ele>530</ele>
        <time>2016-01-23T09:31:45.060Z</time>
      </trkpt>
      <trkpt lat="43.95268" lon="7.1879">
        <ele>530</ele>
        <time>2016-01-23T09:31:49.060Z</time>
      </trkpt>
      <trkpt lat="43.95278" lon="7.1879">
        <ele>526</ele>
        <time>2016-01-23T09:31:53.060Z</time>
      </trkpt>
      <trkpt lat="43.95287" lon="7.18781">
        <ele>523</ele>
        <time>2016-01-23T09:31:57.060Z</time>
      </trkpt>
      <trkpt lat="43.95291" lon="7.18765">
        <ele>522.4900096</ele>
        <time>2016-01-23T09:32:01.060Z</time>
      </trkpt>
      <trkpt lat="43.95296" lon="7.18752">
        <ele>522</ele>
        <time>2016-01-23T09:32:05.060Z</time>
      </trkpt>
      <trkpt lat="43.953" lon="7.18739">
        <ele>521</ele>
        <time>2016-01-23T09:32:09.060Z</time>
      </trkpt>
      <trkpt lat="43.95308" lon="7.1873">
        <ele>519</ele>
        <time>2016-01-23T09:32:13.060Z</time>
      </trkpt>
      <trkpt lat="43.95316" lon="7.18723">
        <ele>516</ele>
        <time>2016-01-23T09:32:17.060Z</time>
      </trkpt>
      <trkpt lat="43.95327" lon="7.18718">
        <ele>513.4899968</ele>
        <time>2016-01-23T09:32:22.060Z</time>
      </trkpt>
      <trkpt lat="43.95338" lon="7.18712">
        <ele>509</ele>
        <time>2016-01-23T09:32:28.060Z</time>
      </trkpt>
      <trkpt lat="43.9535" lon="7.18711">
        <ele>505.4899968</ele>
        <time>2016-01-23T09:32:34.060Z</time>
      </trkpt>
      <trkpt lat="43.95358" lon="7.18702">
        <ele>503</ele>
        <time>2016-01-23T09:32:40.060Z</time>
      </trkpt>
      <trkpt lat="43.95358" lon="7.18688">
        <ele>499</ele>
        <time>2016-01-23T09:32:50.060Z</time>
      </trkpt>
      <trkpt lat="43.95367" lon="7.18677">
        <ele>497</ele>
        <time>2016-01-23T09:32:57.060Z</time>
      </trkpt>
      <trkpt lat="43.95377" lon="7.18671">
        <ele>495</ele>
        <time>2016-01-23T09:33:05.060Z</time>
      </trkpt>
      <trkpt lat="43.95386" lon="7.18667">
        <ele>493</ele>
        <time>2016-01-23T09:33:13.060Z</time>
      </trkpt>
      <trkpt lat="43.95399" lon="7.18666">
        <ele>493</ele>
        <time>2016-01-23T09:33:19.060Z</time>
      </trkpt>
      <trkpt lat="43.95392" lon="7.18676">
        <ele>487</ele>
        <time>2016-01-23T09:33:41.060Z</time>
      </trkpt>
      <trkpt lat="43.95382" lon="7.18681">
        <ele>487</ele>
        <time>2016-01-23T09:33:46.060Z</time>
      </trkpt>
      <trkpt lat="43.95376" lon="7.18692">
        <ele>486</ele>
        <time>2016-01-23T09:34:09.060Z</time>
      </trkpt>
      <trkpt lat="43.95366" lon="7.18698">
        <ele>488</ele>
        <time>2016-01-23T09:34:14.060Z</time>
      </trkpt>
      <trkpt lat="43.95356" lon="7.18703">
        <ele>488</ele>
        <time>2016-01-23T09:34:17.060Z</time>
      </trkpt>
      <trkpt lat="43.95372" lon="7.1868">
        <ele>488</ele>
        <time>2016-01-23T09:34:19.060Z</time>
      </trkpt>
      <trkpt lat="43.95385" lon="7.18665">
        <ele>488</ele>
        <time>2016-01-23T09:34:20.060Z</time>
      </trkpt>
      <trkpt lat="43.95391" lon="7.18654">
        <ele>489</ele>
        <time>2016-01-23T09:34:22.060Z</time>
      </trkpt>
      <trkpt lat="43.95383" lon="7.18649">
        <ele>491</ele>
        <time>2016-01-23T09:34:34.060Z</time>
      </trkpt>
      <trkpt lat="43.95373" lon="7.18652">
        <ele>492.0199808</ele>
        <time>2016-01-23T09:34:41.060Z</time>
      </trkpt>
      <trkpt lat="43.9537" lon="7.18651">
        <ele>493</ele>
        <time>2016-01-23T09:34:44.060Z</time>
      </trkpt>
      <trkpt lat="43.95366" lon="7.18648">
        <ele>495</ele>
        <time>2016-01-23T09:34:47.060Z</time>
      </trkpt>
      <trkpt lat="43.95364" lon="7.18645">
        <ele>495</ele>
        <time>2016-01-23T09:34:49.060Z</time>
      </trkpt>
      <trkpt lat="43.95361" lon="7.18641">
        <ele>496</ele>
        <time>2016-01-23T09:34:52.060Z</time>
      </trkpt>
      <trkpt lat="43.95358" lon="7.18639">
        <ele>496.50495526322</ele>
        <time>2016-01-23T09:34:56.060Z</time>
      </trkpt>
      <trkpt lat="43.95355" lon="7.18639">
        <ele>497</ele>
        <time>2016-01-23T09:35:00.060Z</time>
      </trkpt>
      <trkpt lat="43.95351" lon="7.18636">
        <ele>499</ele>
        <time>2016-01-23T09:35:04.060Z</time>
      </trkpt>
      <trkpt lat="43.95349" lon="7.18633">
        <ele>501</ele>
        <time>2016-01-23T09:35:07.060Z</time>
      </trkpt>
      <trkpt lat="43.95346" lon="7.1863">
        <ele>501</ele>
        <time>2016-01-23T09:35:09.060Z</time>
      </trkpt>
      <trkpt lat="43.95344" lon="7.18628">
        <ele>501.5099904</ele>
        <time>2016-01-23T09:35:11.060Z</time>
      </trkpt>
      <trkpt lat="43.95342" lon="7.18626">
        <ele>502</ele>
        <time>2016-01-23T09:35:14.060Z</time>
      </trkpt>
      <trkpt lat="43.95335" lon="7.18623">
        <ele>503.5099904</ele>
        <time>2016-01-23T09:35:21.060Z</time>
      </trkpt>
      <trkpt lat="43.95331" lon="7.18613">
        <ele>508</ele>
        <time>2016-01-23T09:35:39.060Z</time>
      </trkpt>
      <trkpt lat="43.95322" lon="7.18607">
        <ele>510.5099904</ele>
        <time>2016-01-23T09:35:51.060Z</time>
      </trkpt>
      <trkpt lat="43.95317" lon="7.18599">
        <ele>511</ele>
        <time>2016-01-23T09:36:00.060Z</time>
      </trkpt>
      <trkpt lat="43.95315" lon="7.1859">
        <ele>515</ele>
        <time>2016-01-23T09:36:08.060Z</time>
      </trkpt>
      <trkpt lat="43.9532" lon="7.18585">
        <ele>516</ele>
        <time>2016-01-23T09:36:14.060Z</time>
      </trkpt>
      <trkpt lat="43.95322" lon="7.18578">
        <ele>518</ele>
        <time>2016-01-23T09:36:18.060Z</time>
      </trkpt>
      <trkpt lat="43.95325" lon="7.18568">
        <ele>519</ele>
        <time>2016-01-23T09:36:24.060Z</time>
      </trkpt>
      <trkpt lat="43.95326" lon="7.18554">
        <ele>520</ele>
        <time>2016-01-23T09:36:33.060Z</time>
      </trkpt>
      <trkpt lat="43.9532" lon="7.18541">
        <ele>521.0199808</ele>
        <time>2016-01-23T09:36:41.060Z</time>
      </trkpt>
      <trkpt lat="43.95317" lon="7.18527">
        <ele>522</ele>
        <time>2016-01-23T09:36:49.060Z</time>
      </trkpt>
      <trkpt lat="43.9532" lon="7.18514">
        <ele>523</ele>
        <time>2016-01-23T09:36:56.060Z</time>
      </trkpt>
      <trkpt lat="43.95324" lon="7.185">
        <ele>525</ele>
        <time>2016-01-23T09:37:03.060Z</time>
      </trkpt>
      <trkpt lat="43.95325" lon="7.18486">
        <ele>525.5099904</ele>
        <time>2016-01-23T09:37:11.060Z</time>
      </trkpt>
      <trkpt lat="43.95325" lon="7.1847">
        <ele>526</ele>
        <time>2016-01-23T09:37:20.060Z</time>
      </trkpt>
      <trkpt lat="43.95322" lon="7.18459">
        <ele>528</ele>
        <time>2016-01-23T09:37:27.060Z</time>
      </trkpt>
      <trkpt lat="43.95315" lon="7.18454">
        <ele>528</ele>
        <time>2016-01-23T09:37:36.060Z</time>
      </trkpt>
      <trkpt lat="43.95307" lon="7.18453">
        <ele>530</ele>
        <time>2016-01-23T09:37:43.060Z</time>
      </trkpt>
      <trkpt lat="43.95301" lon="7.18447">
        <ele>530</ele>
        <time>2016-01-23T09:37:49.060Z</time>
      </trkpt>
      <trkpt lat="43.95296" lon="7.1844">
        <ele>533</ele>
        <time>2016-01-23T09:37:55.060Z</time>
      </trkpt>
      <trkpt lat="43.95288" lon="7.18437">
        <ele>535</ele>
        <time>2016-01-23T09:38:03.060Z</time>
      </trkpt>
      <trkpt lat="43.95279" lon="7.18435">
        <ele>538</ele>
        <time>2016-01-23T09:38:13.060Z</time>
      </trkpt>
      <trkpt lat="43.9527" lon="7.1843">
        <ele>540</ele>
        <time>2016-01-23T09:38:21.060Z</time>
      </trkpt>
      <trkpt lat="43.9526" lon="7.18432">
        <ele>542.0199808</ele>
        <time>2016-01-23T09:38:31.060Z</time>
      </trkpt>
      <trkpt lat="43.95251" lon="7.18426">
        <ele>545.0199808</ele>
        <time>2016-01-23T09:38:41.060Z</time>
      </trkpt>
      <trkpt lat="43.95245" lon="7.18414">
        <ele>547</ele>
        <time>2016-01-23T09:38:50.060Z</time>
      </trkpt>
      <trkpt lat="43.95239" lon="7.18402">
        <ele>549</ele>
        <time>2016-01-23T09:39:00.060Z</time>
      </trkpt>
      <trkpt lat="43.95234" lon="7.1839">
        <ele>552</ele>
        <time>2016-01-23T09:39:09.060Z</time>
      </trkpt>
      <trkpt lat="43.9523" lon="7.18376">
        <ele>554</ele>
        <time>2016-01-23T09:39:18.060Z</time>
      </trkpt>
      <trkpt lat="43.95228" lon="7.18362">
        <ele>555</ele>
        <time>2016-01-23T09:39:26.060Z</time>
      </trkpt>
      <trkpt lat="43.95227" lon="7.18348">
        <ele>557</ele>
        <time>2016-01-23T09:39:37.060Z</time>
      </trkpt>
      <trkpt lat="43.95227" lon="7.18336">
        <ele>560</ele>
        <time>2016-01-23T09:39:47.060Z</time>
      </trkpt>
      <trkpt lat="43.95232" lon="7.18324">
        <ele>564</ele>
        <time>2016-01-23T09:39:59.060Z</time>
      </trkpt>
      <trkpt lat="43.95237" lon="7.18311">
        <ele>566</ele>
        <time>2016-01-23T09:40:11.060Z</time>
      </trkpt>
      <trkpt lat="43.95239" lon="7.18305">
        <ele>567</ele>
        <time>2016-01-23T09:40:28.060Z</time>
      </trkpt>
      <trkpt lat="43.95243" lon="7.18298">
        <ele>569</ele>
        <time>2016-01-23T09:40:33.060Z</time>
      </trkpt>
      <trkpt lat="43.95249" lon="7.1829">
        <ele>569</ele>
        <time>2016-01-23T09:40:39.060Z</time>
      </trkpt>
      <trkpt lat="43.95253" lon="7.18287">
        <ele>569</ele>
        <time>2016-01-23T09:40:42.060Z</time>
      </trkpt>
      <trkpt lat="43.95257" lon="7.1828">
        <ele>569</ele>
        <time>2016-01-23T09:40:47.060Z</time>
      </trkpt>
      <trkpt lat="43.95259" lon="7.18278">
        <ele>569</ele>
        <time>2016-01-23T09:40:48.060Z</time>
      </trkpt>
      <trkpt lat="43.95265" lon="7.18268">
        <ele>571</ele>
        <time>2016-01-23T09:40:52.060Z</time>
      </trkpt>
      <trkpt lat="43.95269" lon="7.18261">
        <ele>571</ele>
        <time>2016-01-23T09:40:55.060Z</time>
      </trkpt>
      <trkpt lat="43.95273" lon="7.18255">
        <ele>571</ele>
        <time>2016-01-23T09:40:57.060Z</time>
      </trkpt>
      <trkpt lat="43.95276" lon="7.1825">
        <ele>571</ele>
        <time>2016-01-23T09:40:59.060Z</time>
      </trkpt>
      <trkpt lat="43.95278" lon="7.18245">
        <ele>571</ele>
        <time>2016-01-23T09:41:01.060Z</time>
      </trkpt>
      <trkpt lat="43.95281" lon="7.1824">
        <ele>571</ele>
        <time>2016-01-23T09:41:03.060Z</time>
      </trkpt>
      <trkpt lat="43.95283" lon="7.18234">
        <ele>571</ele>
        <time>2016-01-23T09:41:05.060Z</time>
      </trkpt>
      <trkpt lat="43.95288" lon="7.18227">
        <ele>571</ele>
        <time>2016-01-23T09:41:08.060Z</time>
      </trkpt>
      <trkpt lat="43.95292" lon="7.18217">
        <ele>571</ele>
        <time>2016-01-23T09:41:12.060Z</time>
      </trkpt>
      <trkpt lat="43.95293" lon="7.18211">
        <ele>571</ele>
        <time>2016-01-23T09:41:14.060Z</time>
      </trkpt>
      <trkpt lat="43.95293" lon="7.18204">
        <ele>571</ele>
        <time>2016-01-23T09:41:17.060Z</time>
      </trkpt>
      <trkpt lat="43.95292" lon="7.18199">
        <ele>572.5099904</ele>
        <time>2016-01-23T09:41:21.060Z</time>
      </trkpt>
      <trkpt lat="43.95291" lon="7.18194">
        <ele>573</ele>
        <time>2016-01-23T09:41:24.060Z</time>
      </trkpt>
      <trkpt lat="43.95291" lon="7.18189">
        <ele>573</ele>
        <time>2016-01-23T09:41:27.060Z</time>
      </trkpt>
      <trkpt lat="43.95291" lon="7.18184">
        <ele>574.0199808</ele>
        <time>2016-01-23T09:41:31.060Z</time>
      </trkpt>
      <trkpt lat="43.95291" lon="7.1818">
        <ele>575</ele>
        <time>2016-01-23T09:41:34.060Z</time>
      </trkpt>
      <trkpt lat="43.95293" lon="7.18173">
        <ele>575</ele>
        <time>2016-01-23T09:41:40.060Z</time>
      </trkpt>
      <trkpt lat="43.95295" lon="7.18162">
        <ele>578.5299712</ele>
        <time>2016-01-23T09:41:51.060Z</time>
      </trkpt>
      <trkpt lat="43.95295" lon="7.18158">
        <ele>580</ele>
        <time>2016-01-23T09:41:56.060Z</time>
      </trkpt>
      <trkpt lat="43.95295" lon="7.18154">
        <ele>580.5100032</ele>
        <time>2016-01-23T09:42:00.060Z</time>
      </trkpt>
      <trkpt lat="43.95295" lon="7.18149">
        <ele>583.0200064</ele>
        <time>2016-01-23T09:42:06.060Z</time>
      </trkpt>
      <trkpt lat="43.95293" lon="7.18142">
        <ele>586</ele>
        <time>2016-01-23T09:42:14.060Z</time>
      </trkpt>
      <trkpt lat="43.95291" lon="7.18136">
        <ele>588</ele>
        <time>2016-01-23T09:42:23.060Z</time>
      </trkpt>
      <trkpt lat="43.95283" lon="7.18128">
        <ele>589</ele>
        <time>2016-01-23T09:42:38.060Z</time>
      </trkpt>
      <trkpt lat="43.95279" lon="7.18125">
        <ele>592</ele>
        <time>2016-01-23T09:42:43.060Z</time>
      </trkpt>
      <trkpt lat="43.95276" lon="7.18116">
        <ele>594</ele>
        <time>2016-01-23T09:42:49.060Z</time>
      </trkpt>
      <trkpt lat="43.95279" lon="7.18102">
        <ele>594</ele>
        <time>2016-01-23T09:42:57.060Z</time>
      </trkpt>
      <trkpt lat="43.95282" lon="7.18089">
        <ele>596</ele>
        <time>2016-01-23T09:43:06.060Z</time>
      </trkpt>
      <trkpt lat="43.95272" lon="7.18086">
        <ele>597</ele>
        <time>2016-01-23T09:43:12.060Z</time>
      </trkpt>
      <trkpt lat="43.95264" lon="7.18079">
        <ele>597</ele>
        <time>2016-01-23T09:43:19.060Z</time>
      </trkpt>
      <trkpt lat="43.95258" lon="7.18072">
        <ele>598</ele>
        <time>2016-01-23T09:43:25.060Z</time>
      </trkpt>
      <trkpt lat="43.95254" lon="7.18061">
        <ele>600</ele>
        <time>2016-01-23T09:43:34.060Z</time>
      </trkpt>
      <trkpt lat="43.95257" lon="7.18055">
        <ele>600</ele>
        <time>2016-01-23T09:43:39.060Z</time>
      </trkpt>
      <trkpt lat="43.9526" lon="7.18047">
        <ele>602</ele>
        <time>2016-01-23T09:43:45.060Z</time>
      </trkpt>
      <trkpt lat="43.95263" lon="7.18042">
        <ele>604</ele>
        <time>2016-01-23T09:43:49.060Z</time>
      </trkpt>
      <trkpt lat="43.95269" lon="7.18037">
        <ele>607</ele>
        <time>2016-01-23T09:43:58.060Z</time>
      </trkpt>
      <trkpt lat="43.95274" lon="7.18027">
        <ele>608.5100032</ele>
        <time>2016-01-23T09:44:06.060Z</time>
      </trkpt>
      <trkpt lat="43.95279" lon="7.18019">
        <ele>610</ele>
        <time>2016-01-23T09:44:14.060Z</time>
      </trkpt>
      <trkpt lat="43.95281" lon="7.18004">
        <ele>612.5100032</ele>
        <time>2016-01-23T09:44:26.060Z</time>
      </trkpt>
      <trkpt lat="43.9528" lon="7.17991">
        <ele>616.0200064</ele>
        <time>2016-01-23T09:44:36.060Z</time>
      </trkpt>
      <trkpt lat="43.95284" lon="7.17986">
        <ele>618</ele>
        <time>2016-01-23T09:44:44.060Z</time>
      </trkpt>
      <trkpt lat="43.95289" lon="7.17977">
        <ele>622</ele>
        <time>2016-01-23T09:44:58.060Z</time>
      </trkpt>
      <trkpt lat="43.95286" lon="7.17968">
        <ele>622</ele>
        <time>2016-01-23T09:45:10.060Z</time>
      </trkpt>
      <trkpt lat="43.95292" lon="7.17962">
        <ele>624</ele>
        <time>2016-01-23T09:45:17.060Z</time>
      </trkpt>
      <trkpt lat="43.95297" lon="7.17954">
        <ele>626</ele>
        <time>2016-01-23T09:45:25.060Z</time>
      </trkpt>
      <trkpt lat="43.95303" lon="7.17948">
        <ele>626.5099904</ele>
        <time>2016-01-23T09:45:31.060Z</time>
      </trkpt>
      <trkpt lat="43.95306" lon="7.17944">
        <ele>627</ele>
        <time>2016-01-23T09:45:36.060Z</time>
      </trkpt>
      <trkpt lat="43.9531" lon="7.17939">
        <ele>628.0199808</ele>
        <time>2016-01-23T09:45:41.060Z</time>
      </trkpt>
      <trkpt lat="43.95314" lon="7.17934">
        <ele>629</ele>
        <time>2016-01-23T09:45:46.060Z</time>
      </trkpt>
      <trkpt lat="43.95317" lon="7.17929">
        <ele>629</ele>
        <time>2016-01-23T09:45:50.060Z</time>
      </trkpt>
      <trkpt lat="43.95319" lon="7.17926">
        <ele>630</ele>
        <time>2016-01-23T09:45:53.060Z</time>
      </trkpt>
      <trkpt lat="43.95323" lon="7.17922">
        <ele>630</ele>
        <time>2016-01-23T09:45:57.060Z</time>
      </trkpt>
      <trkpt lat="43.95322" lon="7.17915">
        <ele>631</ele>
        <time>2016-01-23T09:46:02.060Z</time>
      </trkpt>
      <trkpt lat="43.9532" lon="7.17907">
        <ele>631</ele>
        <time>2016-01-23T09:46:06.060Z</time>
      </trkpt>
      <trkpt lat="43.9532" lon="7.17898">
        <ele>631</ele>
        <time>2016-01-23T09:46:10.060Z</time>
      </trkpt>
      <trkpt lat="43.95322" lon="7.17887">
        <ele>632</ele>
        <time>2016-01-23T09:46:17.060Z</time>
      </trkpt>
      <trkpt lat="43.95319" lon="7.17877">
        <ele>634</ele>
        <time>2016-01-23T09:46:24.060Z</time>
      </trkpt>
      <trkpt lat="43.95315" lon="7.17868">
        <ele>634</ele>
        <time>2016-01-23T09:46:30.060Z</time>
      </trkpt>
      <trkpt lat="43.9531" lon="7.17862">
        <ele>636</ele>
        <time>2016-01-23T09:46:35.060Z</time>
      </trkpt>
      <trkpt lat="43.95306" lon="7.17851">
        <ele>637</ele>
        <time>2016-01-23T09:46:42.060Z</time>
      </trkpt>
      <trkpt lat="43.95303" lon="7.17841">
        <ele>637</ele>
        <time>2016-01-23T09:46:49.060Z</time>
      </trkpt>
      <trkpt lat="43.953" lon="7.1783">
        <ele>639</ele>
        <time>2016-01-23T09:46:56.060Z</time>
      </trkpt>
      <trkpt lat="43.95297" lon="7.17816">
        <ele>641</ele>
        <time>2016-01-23T09:47:10.060Z</time>
      </trkpt>
      <trkpt lat="43.95297" lon="7.17804">
        <ele>643.99998693886</ele>
        <time>2016-01-23T09:47:21.060Z</time>
      </trkpt>
      <trkpt lat="43.95304" lon="7.17792">
        <ele>648</ele>
        <time>2016-01-23T09:47:34.060Z</time>
      </trkpt>
      <trkpt lat="43.95306" lon="7.17777">
        <ele>650</ele>
        <time>2016-01-23T09:47:45.060Z</time>
      </trkpt>
      <trkpt lat="43.95302" lon="7.17764">
        <ele>652</ele>
        <time>2016-01-23T09:47:55.060Z</time>
      </trkpt>
      <trkpt lat="43.95298" lon="7.17754">
        <ele>652.50494258992</ele>
        <time>2016-01-23T09:48:01.060Z</time>
      </trkpt>
      <trkpt lat="43.9529" lon="7.17742">
        <ele>653</ele>
        <time>2016-01-23T09:48:09.060Z</time>
      </trkpt>
      <trkpt lat="43.95284" lon="7.17732">
        <ele>654</ele>
        <time>2016-01-23T09:48:16.060Z</time>
      </trkpt>
      <trkpt lat="43.95282" lon="7.17718">
        <ele>655</ele>
        <time>2016-01-23T09:48:22.060Z</time>
      </trkpt>
      <trkpt lat="43.9528" lon="7.17701">
        <ele>655</ele>
        <time>2016-01-23T09:48:27.060Z</time>
      </trkpt>
      <trkpt lat="43.95274" lon="7.17687">
        <ele>657</ele>
        <time>2016-01-23T09:48:32.060Z</time>
      </trkpt>
      <trkpt lat="43.95269" lon="7.17676">
        <ele>657</ele>
        <time>2016-01-23T09:48:37.060Z</time>
      </trkpt>
      <trkpt lat="43.95275" lon="7.17678">
        <ele>661</ele>
        <time>2016-01-23T09:49:30.060Z</time>
      </trkpt>
      <trkpt lat="43.95282" lon="7.17677">
        <ele>661</ele>
        <time>2016-01-23T09:49:39.060Z</time>
      </trkpt>
      <trkpt lat="43.95287" lon="7.17678">
        <ele>663</ele>
        <time>2016-01-23T09:49:45.060Z</time>
      </trkpt>
      <trkpt lat="43.95292" lon="7.1768">
        <ele>665</ele>
        <time>2016-01-23T09:49:52.060Z</time>
      </trkpt>
      <trkpt lat="43.95299" lon="7.1768">
        <ele>670</ele>
        <time>2016-01-23T09:50:02.060Z</time>
      </trkpt>
      <trkpt lat="43.95303" lon="7.17682">
        <ele>670</ele>
        <time>2016-01-23T09:50:09.060Z</time>
      </trkpt>
      <trkpt lat="43.95308" lon="7.17692">
        <ele>676</ele>
        <time>2016-01-23T09:50:22.060Z</time>
      </trkpt>
      <trkpt lat="43.95312" lon="7.17696">
        <ele>677.5099904</ele>
        <time>2016-01-23T09:50:31.060Z</time>
      </trkpt>
      <trkpt lat="43.95317" lon="7.17691">
        <ele>678</ele>
        <time>2016-01-23T09:50:39.060Z</time>
      </trkpt>
      <trkpt lat="43.95321" lon="7.17697">
        <ele>679</ele>
        <time>2016-01-23T09:50:50.060Z</time>
      </trkpt>
      <trkpt lat="43.95327" lon="7.17699">
        <ele>687</ele>
        <time>2016-01-23T09:51:07.060Z</time>
      </trkpt>
      <trkpt lat="43.9533" lon="7.17705">
        <ele>688</ele>
        <time>2016-01-23T09:51:15.060Z</time>
      </trkpt>
      <trkpt lat="43.95334" lon="7.17709">
        <ele>690</ele>
        <time>2016-01-23T09:51:23.060Z</time>
      </trkpt>
      <trkpt lat="43.95341" lon="7.17712">
        <ele>695</ele>
        <time>2016-01-23T09:51:40.060Z</time>
      </trkpt>
      <trkpt lat="43.95344" lon="7.17717">
        <ele>698</ele>
        <time>2016-01-23T09:51:48.060Z</time>
      </trkpt>
      <trkpt lat="43.95349" lon="7.17721">
        <ele>700.5100032</ele>
        <time>2016-01-23T09:51:56.060Z</time>
      </trkpt>
      <trkpt lat="43.95349" lon="7.17712">
        <ele>704</ele>
        <time>2016-01-23T09:52:15.060Z</time>
      </trkpt>
      <trkpt lat="43.95353" lon="7.17707">
        <ele>706</ele>
        <time>2016-01-23T09:52:27.060Z</time>
      </trkpt>
      <trkpt lat="43.9536" lon="7.1771">
        <ele>709</ele>
        <time>2016-01-23T09:52:43.060Z</time>
      </trkpt>
      <trkpt lat="43.95367" lon="7.17707">
        <ele>712</ele>
        <time>2016-01-23T09:52:53.060Z</time>
      </trkpt>
      <trkpt lat="43.9537" lon="7.17712">
        <ele>715</ele>
        <time>2016-01-23T09:53:02.060Z</time>
      </trkpt>
      <trkpt lat="43.95375" lon="7.17712">
        <ele>717.0199808</ele>
        <time>2016-01-23T09:53:11.060Z</time>
      </trkpt>
      <trkpt lat="43.95378" lon="7.17721">
        <ele>720</ele>
        <time>2016-01-23T09:53:22.060Z</time>
      </trkpt>
      <trkpt lat="43.95384" lon="7.17722">
        <ele>722</ele>
        <time>2016-01-23T09:53:36.060Z</time>
      </trkpt>
      <trkpt lat="43.95386" lon="7.17732">
        <ele>727</ele>
        <time>2016-01-23T09:53:49.060Z</time>
      </trkpt>
      <trkpt lat="43.95387" lon="7.17743">
        <ele>730</ele>
        <time>2016-01-23T09:54:03.060Z</time>
      </trkpt>
      <trkpt lat="43.95389" lon="7.1775">
        <ele>732</ele>
        <time>2016-01-23T09:54:12.060Z</time>
      </trkpt>
      <trkpt lat="43.95395" lon="7.17751">
        <ele>733.0199808</ele>
        <time>2016-01-23T09:54:21.060Z</time>
      </trkpt>
      <trkpt lat="43.95398" lon="7.17756">
        <ele>735.5299712</ele>
        <time>2016-01-23T09:54:31.060Z</time>
      </trkpt>
      <trkpt lat="43.95401" lon="7.1776">
        <ele>738</ele>
        <time>2016-01-23T09:54:37.060Z</time>
      </trkpt>
      <trkpt lat="43.95404" lon="7.17767">
        <ele>739</ele>
        <time>2016-01-23T09:54:43.060Z</time>
      </trkpt>
      <trkpt lat="43.9541" lon="7.17776">
        <ele>742</ele>
        <time>2016-01-23T09:54:55.060Z</time>
      </trkpt>
      <trkpt lat="43.95417" lon="7.17784">
        <ele>744</ele>
        <time>2016-01-23T09:55:08.060Z</time>
      </trkpt>
      <trkpt lat="43.95421" lon="7.17793">
        <ele>749</ele>
        <time>2016-01-23T09:55:23.060Z</time>
      </trkpt>
      <trkpt lat="43.95427" lon="7.17801">
        <ele>752</ele>
        <time>2016-01-23T09:55:35.060Z</time>
      </trkpt>
      <trkpt lat="43.95433" lon="7.17812">
        <ele>756</ele>
        <time>2016-01-23T09:55:59.060Z</time>
      </trkpt>
      <trkpt lat="43.95432" lon="7.17825">
        <ele>764</ele>
        <time>2016-01-23T09:56:22.060Z</time>
      </trkpt>
      <trkpt lat="43.9543" lon="7.17833">
        <ele>765</ele>
        <time>2016-01-23T09:56:33.060Z</time>
      </trkpt>
      <trkpt lat="43.95435" lon="7.17837">
        <ele>770</ele>
        <time>2016-01-23T09:56:47.060Z</time>
      </trkpt>
      <trkpt lat="43.95436" lon="7.17845">
        <ele>772</ele>
        <time>2016-01-23T09:56:59.060Z</time>
      </trkpt>
      <trkpt lat="43.95437" lon="7.17852">
        <ele>776</ele>
        <time>2016-01-23T09:57:12.060Z</time>
      </trkpt>
      <trkpt lat="43.9544" lon="7.1786">
        <ele>778</ele>
        <time>2016-01-23T09:58:09.060Z</time>
      </trkpt>
      <trkpt lat="43.95443" lon="7.17873">
        <ele>783</ele>
        <time>2016-01-23T09:59:04.060Z</time>
      </trkpt>
      <trkpt lat="43.95444" lon="7.17883">
        <ele>786</ele>
        <time>2016-01-23T09:59:18.060Z</time>
      </trkpt>
      <trkpt lat="43.95444" lon="7.17893">
        <ele>787</ele>
        <time>2016-01-23T09:59:30.060Z</time>
      </trkpt>
      <trkpt lat="43.95448" lon="7.17903">
        <ele>793</ele>
        <time>2016-01-23T09:59:49.060Z</time>
      </trkpt>
      <trkpt lat="43.95451" lon="7.17909">
        <ele>799</ele>
        <time>2016-01-23T10:00:37.060Z</time>
      </trkpt>
      <trkpt lat="43.95456" lon="7.17908">
        <ele>799.00988517983</ele>
        <time>2016-01-23T10:02:51.060Z</time>
      </trkpt>
      <trkpt lat="43.95459" lon="7.17906">
        <ele>800</ele>
        <time>2016-01-23T10:03:00.060Z</time>
      </trkpt>
      <trkpt lat="43.95464" lon="7.17903">
        <ele>807</ele>
        <time>2016-01-23T10:03:12.060Z</time>
      </trkpt>
      <trkpt lat="43.95469" lon="7.17902">
        <ele>809</ele>
        <time>2016-01-23T10:03:24.060Z</time>
      </trkpt>
      <trkpt lat="43.95474" lon="7.179">
        <ele>811</ele>
        <time>2016-01-23T10:03:39.060Z</time>
      </trkpt>
      <trkpt lat="43.95478" lon="7.17902">
        <ele>817</ele>
        <time>2016-01-23T10:03:53.060Z</time>
      </trkpt>
      <trkpt lat="43.95481" lon="7.17895">
        <ele>819.0199808</ele>
        <time>2016-01-23T10:04:11.060Z</time>
      </trkpt>
      <trkpt lat="43.95485" lon="7.17898">
        <ele>821.0199808</ele>
        <time>2016-01-23T10:04:21.060Z</time>
      </trkpt>
      <trkpt lat="43.95489" lon="7.17894">
        <ele>824</ele>
        <time>2016-01-23T10:04:32.060Z</time>
      </trkpt>
      <trkpt lat="43.95492" lon="7.17889">
        <ele>826.0199808</ele>
        <time>2016-01-23T10:04:41.060Z</time>
      </trkpt>
      <trkpt lat="43.95495" lon="7.17896">
        <ele>829</ele>
        <time>2016-01-23T10:04:54.060Z</time>
      </trkpt>
      <trkpt lat="43.95499" lon="7.17901">
        <ele>832</ele>
        <time>2016-01-23T10:05:08.060Z</time>
      </trkpt>
      <trkpt lat="43.95506" lon="7.17903">
        <ele>837</ele>
        <time>2016-01-23T10:05:24.060Z</time>
      </trkpt>
      <trkpt lat="43.9551" lon="7.17897">
        <ele>842</ele>
        <time>2016-01-23T10:05:42.060Z</time>
      </trkpt>
      <trkpt lat="43.95514" lon="7.17902">
        <ele>844</ele>
        <time>2016-01-23T10:05:54.060Z</time>
      </trkpt>
      <trkpt lat="43.95517" lon="7.17894">
        <ele>847</ele>
        <time>2016-01-23T10:06:19.060Z</time>
      </trkpt>
      <trkpt lat="43.95522" lon="7.17898">
        <ele>853</ele>
        <time>2016-01-23T10:07:06.060Z</time>
      </trkpt>
      <trkpt lat="43.95526" lon="7.17904">
        <ele>854</ele>
        <time>2016-01-23T10:07:14.060Z</time>
      </trkpt>
      <trkpt lat="43.95536" lon="7.17906">
        <ele>855</ele>
        <time>2016-01-23T10:07:24.060Z</time>
      </trkpt>
      <trkpt lat="43.95546" lon="7.17903">
        <ele>857</ele>
        <time>2016-01-23T10:07:33.060Z</time>
      </trkpt>
      <trkpt lat="43.95554" lon="7.17905">
        <ele>858.0199808</ele>
        <time>2016-01-23T10:07:41.060Z</time>
      </trkpt>
      <trkpt lat="43.95561" lon="7.17909">
        <ele>860.0199808</ele>
        <time>2016-01-23T10:07:51.060Z</time>
      </trkpt>
      <trkpt lat="43.95567" lon="7.17916">
        <ele>861.5099904</ele>
        <time>2016-01-23T10:08:01.060Z</time>
      </trkpt>
      <trkpt lat="43.95572" lon="7.17924">
        <ele>864</ele>
        <time>2016-01-23T10:08:12.060Z</time>
      </trkpt>
      <trkpt lat="43.95577" lon="7.17932">
        <ele>864</ele>
        <time>2016-01-23T10:08:20.060Z</time>
      </trkpt>
      <trkpt lat="43.95582" lon="7.1794">
        <ele>867</ele>
        <time>2016-01-23T10:08:28.060Z</time>
      </trkpt>
      <trkpt lat="43.95585" lon="7.17948">
        <ele>869</ele>
        <time>2016-01-23T10:08:34.060Z</time>
      </trkpt>
      <trkpt lat="43.95586" lon="7.17959">
        <ele>869</ele>
        <time>2016-01-23T10:08:41.060Z</time>
      </trkpt>
      <trkpt lat="43.95584" lon="7.17968">
        <ele>869</ele>
        <time>2016-01-23T10:08:47.060Z</time>
      </trkpt>
      <trkpt lat="43.9558" lon="7.17981">
        <ele>869</ele>
        <time>2016-01-23T10:08:56.060Z</time>
      </trkpt>
      <trkpt lat="43.95584" lon="7.17989">
        <ele>872</ele>
        <time>2016-01-23T10:09:04.060Z</time>
      </trkpt>
      <trkpt lat="43.95587" lon="7.17993">
        <ele>872</ele>
        <time>2016-01-23T10:09:08.060Z</time>
      </trkpt>
      <trkpt lat="43.95592" lon="7.17998">
        <ele>872</ele>
        <time>2016-01-23T10:09:14.060Z</time>
      </trkpt>
      <trkpt lat="43.956" lon="7.18004">
        <ele>874</ele>
        <time>2016-01-23T10:09:23.060Z</time>
      </trkpt>
      <trkpt lat="43.95607" lon="7.18013">
        <ele>876</ele>
        <time>2016-01-23T10:09:36.060Z</time>
      </trkpt>
      <trkpt lat="43.95615" lon="7.18017">
        <ele>880</ele>
        <time>2016-01-23T10:09:47.060Z</time>
      </trkpt>
      <trkpt lat="43.95626" lon="7.1802">
        <ele>883</ele>
        <time>2016-01-23T10:09:59.060Z</time>
      </trkpt>
      <trkpt lat="43.95635" lon="7.18018">
        <ele>883</ele>
        <time>2016-01-23T10:10:06.060Z</time>
      </trkpt>
      <trkpt lat="43.95643" lon="7.18016">
        <ele>883</ele>
        <time>2016-01-23T10:10:12.060Z</time>
      </trkpt>
      <trkpt lat="43.95652" lon="7.1801">
        <ele>885</ele>
        <time>2016-01-23T10:10:23.060Z</time>
      </trkpt>
      <trkpt lat="43.95662" lon="7.18007">
        <ele>886.0199808</ele>
        <time>2016-01-23T10:10:31.060Z</time>
      </trkpt>
      <trkpt lat="43.95671" lon="7.18002">
        <ele>888.0199808</ele>
        <time>2016-01-23T10:10:41.060Z</time>
      </trkpt>
      <trkpt lat="43.95682" lon="7.17999">
        <ele>889</ele>
        <time>2016-01-23T10:10:49.060Z</time>
      </trkpt>
      <trkpt lat="43.95693" lon="7.17999">
        <ele>890.0199808</ele>
        <time>2016-01-23T10:11:01.060Z</time>
      </trkpt>
      <trkpt lat="43.95703" lon="7.17999">
        <ele>891</ele>
        <time>2016-01-23T10:11:09.060Z</time>
      </trkpt>
      <trkpt lat="43.95714" lon="7.17995">
        <ele>891</ele>
        <time>2016-01-23T10:11:17.060Z</time>
      </trkpt>
      <trkpt lat="43.95724" lon="7.17994">
        <ele>893</ele>
        <time>2016-01-23T10:11:26.060Z</time>
      </trkpt>
      <trkpt lat="43.95734" lon="7.17991">
        <ele>895</ele>
        <time>2016-01-23T10:11:36.060Z</time>
      </trkpt>
      <trkpt lat="43.95744" lon="7.17987">
        <ele>897</ele>
        <time>2016-01-23T10:11:45.060Z</time>
      </trkpt>
      <trkpt lat="43.95753" lon="7.17981">
        <ele>900</ele>
        <time>2016-01-23T10:11:53.060Z</time>
      </trkpt>
      <trkpt lat="43.95764" lon="7.17975">
        <ele>900.50504240794</ele>
        <time>2016-01-23T10:12:01.060Z</time>
      </trkpt>
      <trkpt lat="43.95774" lon="7.17969">
        <ele>901</ele>
        <time>2016-01-23T10:12:08.060Z</time>
      </trkpt>
      <trkpt lat="43.95784" lon="7.17964">
        <ele>903</ele>
        <time>2016-01-23T10:12:16.060Z</time>
      </trkpt>
      <trkpt lat="43.95793" lon="7.17959">
        <ele>903</ele>
        <time>2016-01-23T10:12:23.060Z</time>
      </trkpt>
      <trkpt lat="43.95803" lon="7.17953">
        <ele>903</ele>
        <time>2016-01-23T10:12:31.060Z</time>
      </trkpt>
      <trkpt lat="43.95812" lon="7.17948">
        <ele>903</ele>
        <time>2016-01-23T10:12:38.060Z</time>
      </trkpt>
      <trkpt lat="43.95822" lon="7.17942">
        <ele>904</ele>
        <time>2016-01-23T10:12:46.060Z</time>
      </trkpt>
      <trkpt lat="43.95832" lon="7.17938">
        <ele>905</ele>
        <time>2016-01-23T10:12:56.060Z</time>
      </trkpt>
      <trkpt lat="43.95841" lon="7.17932">
        <ele>905</ele>
        <time>2016-01-23T10:13:04.060Z</time>
      </trkpt>
      <trkpt lat="43.95852" lon="7.1793">
        <ele>907</ele>
        <time>2016-01-23T10:13:12.060Z</time>
      </trkpt>
      <trkpt lat="43.95862" lon="7.17926">
        <ele>907</ele>
        <time>2016-01-23T10:13:20.060Z</time>
      </trkpt>
      <trkpt lat="43.95873" lon="7.17926">
        <ele>908</ele>
        <time>2016-01-23T10:13:29.060Z</time>
      </trkpt>
      <trkpt lat="43.95882" lon="7.17925">
        <ele>909</ele>
        <time>2016-01-23T10:13:38.060Z</time>
      </trkpt>
      <trkpt lat="43.95892" lon="7.17925">
        <ele>911</ele>
        <time>2016-01-23T10:13:44.060Z</time>
      </trkpt>
      <trkpt lat="43.95903" lon="7.17927">
        <ele>912</ele>
        <time>2016-01-23T10:13:52.060Z</time>
      </trkpt>
      <trkpt lat="43.95913" lon="7.17926">
        <ele>912</ele>
        <time>2016-01-23T10:14:00.060Z</time>
      </trkpt>
      <trkpt lat="43.95922" lon="7.17919">
        <ele>914</ele>
        <time>2016-01-23T10:14:09.060Z</time>
      </trkpt>
      <trkpt lat="43.95932" lon="7.17911">
        <ele>914</ele>
        <time>2016-01-23T10:14:17.060Z</time>
      </trkpt>
      <trkpt lat="43.95942" lon="7.17906">
        <ele>915</ele>
        <time>2016-01-23T10:14:22.060Z</time>
      </trkpt>
      <trkpt lat="43.95953" lon="7.17899">
        <ele>915</ele>
        <time>2016-01-23T10:14:26.060Z</time>
      </trkpt>
      <trkpt lat="43.95963" lon="7.17893">
        <ele>915</ele>
        <time>2016-01-23T10:14:31.060Z</time>
      </trkpt>
      <trkpt lat="43.95974" lon="7.17884">
        <ele>915</ele>
        <time>2016-01-23T10:14:37.060Z</time>
      </trkpt>
      <trkpt lat="43.95983" lon="7.17878">
        <ele>915</ele>
        <time>2016-01-23T10:14:40.060Z</time>
      </trkpt>
      <trkpt lat="43.95991" lon="7.17869">
        <ele>914</ele>
        <time>2016-01-23T10:14:45.060Z</time>
      </trkpt>
      <trkpt lat="43.96002" lon="7.17863">
        <ele>914</ele>
        <time>2016-01-23T10:14:51.060Z</time>
      </trkpt>
      <trkpt lat="43.96011" lon="7.17857">
        <ele>914</ele>
        <time>2016-01-23T10:14:55.060Z</time>
      </trkpt>
      <trkpt lat="43.9602" lon="7.17849">
        <ele>914</ele>
        <time>2016-01-23T10:15:00.060Z</time>
      </trkpt>
      <trkpt lat="43.96029" lon="7.17842">
        <ele>916</ele>
        <time>2016-01-23T10:15:06.060Z</time>
      </trkpt>
      <trkpt lat="43.9604" lon="7.17835">
        <ele>918</ele>
        <time>2016-01-23T10:15:12.060Z</time>
      </trkpt>
      <trkpt lat="43.96053" lon="7.17831">
        <ele>918</ele>
        <time>2016-01-23T10:15:18.060Z</time>
      </trkpt>
      <trkpt lat="43.96063" lon="7.17827">
        <ele>919</ele>
        <time>2016-01-23T10:15:23.060Z</time>
      </trkpt>
      <trkpt lat="43.96075" lon="7.17823">
        <ele>919</ele>
        <time>2016-01-23T10:15:28.060Z</time>
      </trkpt>
      <trkpt lat="43.96084" lon="7.17817">
        <ele>920</ele>
        <time>2016-01-23T10:15:33.060Z</time>
      </trkpt>
      <trkpt lat="43.96095" lon="7.17813">
        <ele>920</ele>
        <time>2016-01-23T10:15:39.060Z</time>
      </trkpt>
      <trkpt lat="43.96105" lon="7.17807">
        <ele>921</ele>
        <time>2016-01-23T10:15:43.060Z</time>
      </trkpt>
      <trkpt lat="43.96115" lon="7.17802">
        <ele>921</ele>
        <time>2016-01-23T10:15:50.060Z</time>
      </trkpt>
      <trkpt lat="43.96125" lon="7.17798">
        <ele>923</ele>
        <time>2016-01-23T10:15:55.060Z</time>
      </trkpt>
      <trkpt lat="43.96135" lon="7.17794">
        <ele>923.5099904</ele>
        <time>2016-01-23T10:16:01.060Z</time>
      </trkpt>
      <trkpt lat="43.96145" lon="7.1779">
        <ele>924</ele>
        <time>2016-01-23T10:16:08.060Z</time>
      </trkpt>
      <trkpt lat="43.96155" lon="7.17789">
        <ele>926</ele>
        <time>2016-01-23T10:16:14.060Z</time>
      </trkpt>
      <trkpt lat="43.96166" lon="7.17786">
        <ele>926</ele>
        <time>2016-01-23T10:16:20.060Z</time>
      </trkpt>
      <trkpt lat="43.96176" lon="7.17781">
        <ele>930</ele>
        <time>2016-01-23T10:16:27.060Z</time>
      </trkpt>
      <trkpt lat="43.96187" lon="7.17782">
        <ele>930</ele>
        <time>2016-01-23T10:16:35.060Z</time>
      </trkpt>
      <trkpt lat="43.96198" lon="7.17782">
        <ele>930</ele>
        <time>2016-01-23T10:16:40.060Z</time>
      </trkpt>
      <trkpt lat="43.96209" lon="7.17786">
        <ele>931</ele>
        <time>2016-01-23T10:16:45.060Z</time>
      </trkpt>
      <trkpt lat="43.96217" lon="7.1779">
        <ele>931</ele>
        <time>2016-01-23T10:16:50.060Z</time>
      </trkpt>
      <trkpt lat="43.96212" lon="7.17798">
        <ele>932</ele>
        <time>2016-01-23T10:16:58.060Z</time>
      </trkpt>
      <trkpt lat="43.96207" lon="7.17804">
        <ele>934</ele>
        <time>2016-01-23T10:17:03.060Z</time>
      </trkpt>
      <trkpt lat="43.96205" lon="7.17813">
        <ele>934</ele>
        <time>2016-01-23T10:17:09.060Z</time>
      </trkpt>
      <trkpt lat="43.96202" lon="7.17822">
        <ele>935</ele>
        <time>2016-01-23T10:17:15.060Z</time>
      </trkpt>
      <trkpt lat="43.96201" lon="7.17831">
        <ele>935</ele>
        <time>2016-01-23T10:17:20.060Z</time>
      </trkpt>
      <trkpt lat="43.96197" lon="7.17845">
        <ele>936</ele>
        <time>2016-01-23T10:17:25.060Z</time>
      </trkpt>
      <trkpt lat="43.96196" lon="7.17854">
        <ele>936</ele>
        <time>2016-01-23T10:17:28.060Z</time>
      </trkpt>
      <trkpt lat="43.96193" lon="7.17866">
        <ele>939</ele>
        <time>2016-01-23T10:17:32.060Z</time>
      </trkpt>
      <trkpt lat="43.96191" lon="7.1788">
        <ele>940</ele>
        <time>2016-01-23T10:17:37.060Z</time>
      </trkpt>
      <trkpt lat="43.96188" lon="7.17895">
        <ele>941</ele>
        <time>2016-01-23T10:17:42.060Z</time>
      </trkpt>
      <trkpt lat="43.96187" lon="7.17909">
        <ele>941</ele>
        <time>2016-01-23T10:17:47.060Z</time>
      </trkpt>
      <trkpt lat="43.96191" lon="7.1792">
        <ele>942</ele>
        <time>2016-01-23T10:17:56.060Z</time>
      </trkpt>
      <trkpt lat="43.96196" lon="7.17927">
        <ele>945</ele>
        <time>2016-01-23T10:18:05.060Z</time>
      </trkpt>
      <trkpt lat="43.96199" lon="7.17932">
        <ele>947</ele>
        <time>2016-01-23T10:18:12.060Z</time>
      </trkpt>
      <trkpt lat="43.96204" lon="7.17935">
        <ele>947</ele>
        <time>2016-01-23T10:18:19.060Z</time>
      </trkpt>
      <trkpt lat="43.96209" lon="7.17936">
        <ele>949</ele>
        <time>2016-01-23T10:18:25.060Z</time>
      </trkpt>
      <trkpt lat="43.96215" lon="7.17936">
        <ele>951</ele>
        <time>2016-01-23T10:18:34.060Z</time>
      </trkpt>
      <trkpt lat="43.96219" lon="7.17929">
        <ele>955</ele>
        <time>2016-01-23T10:18:49.060Z</time>
      </trkpt>
      <trkpt lat="43.96221" lon="7.17924">
        <ele>956</ele>
        <time>2016-01-23T10:18:55.060Z</time>
      </trkpt>
      <trkpt lat="43.96226" lon="7.17923">
        <ele>958</ele>
        <time>2016-01-23T10:19:03.060Z</time>
      </trkpt>
      <trkpt lat="43.96227" lon="7.17916">
        <ele>959</ele>
        <time>2016-01-23T10:19:13.060Z</time>
      </trkpt>
      <trkpt lat="43.96228" lon="7.17906">
        <ele>960.0199808</ele>
        <time>2016-01-23T10:19:21.060Z</time>
      </trkpt>
      <trkpt lat="43.9623" lon="7.17896">
        <ele>961</ele>
        <time>2016-01-23T10:19:29.060Z</time>
      </trkpt>
      <trkpt lat="43.96233" lon="7.17887">
        <ele>963</ele>
        <time>2016-01-23T10:19:35.060Z</time>
      </trkpt>
      <trkpt lat="43.96236" lon="7.17882">
        <ele>963</ele>
        <time>2016-01-23T10:19:39.060Z</time>
      </trkpt>
      <trkpt lat="43.96239" lon="7.17876">
        <ele>964</ele>
        <time>2016-01-23T10:19:44.060Z</time>
      </trkpt>
      <trkpt lat="43.96242" lon="7.1787">
        <ele>965.0199808</ele>
        <time>2016-01-23T10:19:51.060Z</time>
      </trkpt>
      <trkpt lat="43.96245" lon="7.17866">
        <ele>966</ele>
        <time>2016-01-23T10:19:56.060Z</time>
      </trkpt>
      <trkpt lat="43.96247" lon="7.1786">
        <ele>967.0199808</ele>
        <time>2016-01-23T10:20:01.060Z</time>
      </trkpt>
      <trkpt lat="43.9625" lon="7.17855">
        <ele>968</ele>
        <time>2016-01-23T10:20:05.060Z</time>
      </trkpt>
      <trkpt lat="43.96253" lon="7.1785">
        <ele>968</ele>
        <time>2016-01-23T10:20:10.060Z</time>
      </trkpt>
      <trkpt lat="43.96254" lon="7.17847">
        <ele>970</ele>
        <time>2016-01-23T10:20:13.060Z</time>
      </trkpt>
      <trkpt lat="43.96257" lon="7.17842">
        <ele>970</ele>
        <time>2016-01-23T10:20:17.060Z</time>
      </trkpt>
      <trkpt lat="43.96259" lon="7.1784">
        <ele>970</ele>
        <time>2016-01-23T10:20:20.060Z</time>
      </trkpt>
      <trkpt lat="43.96264" lon="7.17837">
        <ele>972</ele>
        <time>2016-01-23T10:20:27.060Z</time>
      </trkpt>
      <trkpt lat="43.96271" lon="7.17831">
        <ele>973</ele>
        <time>2016-01-23T10:20:35.060Z</time>
      </trkpt>
      <trkpt lat="43.9628" lon="7.17824">
        <ele>977.0200064</ele>
        <time>2016-01-23T10:20:46.060Z</time>
      </trkpt>
      <trkpt lat="43.96288" lon="7.17814">
        <ele>980</ele>
        <time>2016-01-23T10:20:57.060Z</time>
      </trkpt>
      <trkpt lat="43.96291" lon="7.17811">
        <ele>980</ele>
        <time>2016-01-23T10:21:00.060Z</time>
      </trkpt>
      <trkpt lat="43.96298" lon="7.17801">
        <ele>983</ele>
        <time>2016-01-23T10:21:10.060Z</time>
      </trkpt>
      <trkpt lat="43.96299" lon="7.17796">
        <ele>983.4900096</ele>
        <time>2016-01-23T10:21:13.060Z</time>
      </trkpt>
      <trkpt lat="43.96305" lon="7.17792">
        <ele>984</ele>
        <time>2016-01-23T10:21:20.060Z</time>
      </trkpt>
      <trkpt lat="43.96307" lon="7.17803">
        <ele>984</ele>
        <time>2016-01-23T10:21:28.060Z</time>
      </trkpt>
      <trkpt lat="43.96307" lon="7.17816">
        <ele>986</ele>
        <time>2016-01-23T10:21:40.060Z</time>
      </trkpt>
      <trkpt lat="43.96307" lon="7.1783">
        <ele>990</ele>
        <time>2016-01-23T10:21:55.060Z</time>
      </trkpt>
      <trkpt lat="43.96303" lon="7.17838">
        <ele>992.0399616</ele>
        <time>2016-01-23T10:22:01.060Z</time>
      </trkpt>
      <trkpt lat="43.96301" lon="7.17847">
        <ele>993</ele>
        <time>2016-01-23T10:22:08.060Z</time>
      </trkpt>
      <trkpt lat="43.96298" lon="7.17858">
        <ele>994</ele>
        <time>2016-01-23T10:22:18.060Z</time>
      </trkpt>
      <trkpt lat="43.96303" lon="7.17862">
        <ele>997</ele>
        <time>2016-01-23T10:22:32.060Z</time>
      </trkpt>
      <trkpt lat="43.96307" lon="7.17858">
        <ele>997</ele>
        <time>2016-01-23T10:22:40.060Z</time>
      </trkpt>
      <trkpt lat="43.96312" lon="7.17862">
        <ele>1001</ele>
        <time>2016-01-23T10:22:52.060Z</time>
      </trkpt>
      <trkpt lat="43.96316" lon="7.17856">
        <ele>1003.0199808</ele>
        <time>2016-01-23T10:23:01.060Z</time>
      </trkpt>
      <trkpt lat="43.96322" lon="7.17854">
        <ele>1005</ele>
        <time>2016-01-23T10:23:09.060Z</time>
      </trkpt>
      <trkpt lat="43.96327" lon="7.17849">
        <ele>1005</ele>
        <time>2016-01-23T10:23:17.060Z</time>
      </trkpt>
      <trkpt lat="43.96331" lon="7.17843">
        <ele>1007</ele>
        <time>2016-01-23T10:23:23.060Z</time>
      </trkpt>
      <trkpt lat="43.96336" lon="7.17837">
        <ele>1007</ele>
        <time>2016-01-23T10:23:30.060Z</time>
      </trkpt>
      <trkpt lat="43.96341" lon="7.17829">
        <ele>1009</ele>
        <time>2016-01-23T10:23:40.060Z</time>
      </trkpt>
      <trkpt lat="43.96344" lon="7.1782">
        <ele>1010</ele>
        <time>2016-01-23T10:23:49.060Z</time>
      </trkpt>
      <trkpt lat="43.96348" lon="7.17813">
        <ele>1012</ele>
        <time>2016-01-23T10:23:57.060Z</time>
      </trkpt>
      <trkpt lat="43.96354" lon="7.17814">
        <ele>1014</ele>
        <time>2016-01-23T10:24:10.060Z</time>
      </trkpt>
      <trkpt lat="43.96356" lon="7.17823">
        <ele>1016</ele>
        <time>2016-01-23T10:24:19.060Z</time>
      </trkpt>
      <trkpt lat="43.96358" lon="7.17836">
        <ele>1018</ele>
        <time>2016-01-23T10:24:29.060Z</time>
      </trkpt>
      <trkpt lat="43.96361" lon="7.17846">
        <ele>1019</ele>
        <time>2016-01-23T10:24:40.060Z</time>
      </trkpt>
      <trkpt lat="43.96364" lon="7.1786">
        <ele>1023.5099904</ele>
        <time>2016-01-23T10:24:51.060Z</time>
      </trkpt>
      <trkpt lat="43.96369" lon="7.17864">
        <ele>1024</ele>
        <time>2016-01-23T10:25:09.060Z</time>
      </trkpt>
      <trkpt lat="43.96376" lon="7.17867">
        <ele>1025</ele>
        <time>2016-01-23T10:25:19.060Z</time>
      </trkpt>
      <trkpt lat="43.96383" lon="7.17876">
        <ele>1027</ele>
        <time>2016-01-23T10:25:30.060Z</time>
      </trkpt>
      <trkpt lat="43.96392" lon="7.17883">
        <ele>1030.5099904</ele>
        <time>2016-01-23T10:25:41.060Z</time>
      </trkpt>
      <trkpt lat="43.964" lon="7.17888">
        <ele>1031</ele>
        <time>2016-01-23T10:25:49.060Z</time>
      </trkpt>
      <trkpt lat="43.96408" lon="7.17891">
        <ele>1032</ele>
        <time>2016-01-23T10:25:54.060Z</time>
      </trkpt>
      <trkpt lat="43.96417" lon="7.17895">
        <ele>1034</ele>
        <time>2016-01-23T10:26:02.060Z</time>
      </trkpt>
      <trkpt lat="43.96427" lon="7.17897">
        <ele>1034</ele>
        <time>2016-01-23T10:26:10.060Z</time>
      </trkpt>
      <trkpt lat="43.96437" lon="7.179">
        <ele>1034</ele>
        <time>2016-01-23T10:26:20.060Z</time>
      </trkpt>
      <trkpt lat="43.96447" lon="7.179">
        <ele>1035</ele>
        <time>2016-01-23T10:26:28.060Z</time>
      </trkpt>
      <trkpt lat="43.96456" lon="7.17903">
        <ele>1038</ele>
        <time>2016-01-23T10:26:37.060Z</time>
      </trkpt>
      <trkpt lat="43.96466" lon="7.17907">
        <ele>1040</ele>
        <time>2016-01-23T10:26:49.060Z</time>
      </trkpt>
      <trkpt lat="43.96475" lon="7.17908">
        <ele>1042</ele>
        <time>2016-01-23T10:26:55.060Z</time>
      </trkpt>
      <trkpt lat="43.96485" lon="7.17912">
        <ele>1045.4899968</ele>
        <time>2016-01-23T10:27:02.060Z</time>
      </trkpt>
      <trkpt lat="43.96495" lon="7.17914">
        <ele>1047</ele>
        <time>2016-01-23T10:27:12.060Z</time>
      </trkpt>
      <trkpt lat="43.96503" lon="7.17913">
        <ele>1047</ele>
        <time>2016-01-23T10:27:20.060Z</time>
      </trkpt>
      <trkpt lat="43.96511" lon="7.17913">
        <ele>1049</ele>
        <time>2016-01-23T10:27:29.060Z</time>
      </trkpt>
      <trkpt lat="43.96519" lon="7.17912">
        <ele>1051</ele>
        <time>2016-01-23T10:27:37.060Z</time>
      </trkpt>
      <trkpt lat="43.96527" lon="7.17912">
        <ele>1053</ele>
        <time>2016-01-23T10:27:46.060Z</time>
      </trkpt>
      <trkpt lat="43.96535" lon="7.17913">
        <ele>1054</ele>
        <time>2016-01-23T10:27:54.060Z</time>
      </trkpt>
      <trkpt lat="43.96545" lon="7.17915">
        <ele>1057</ele>
        <time>2016-01-23T10:28:02.060Z</time>
      </trkpt>
      <trkpt lat="43.96555" lon="7.17916">
        <ele>1059</ele>
        <time>2016-01-23T10:28:16.060Z</time>
      </trkpt>
      <trkpt lat="43.96565" lon="7.17915">
        <ele>1061</ele>
        <time>2016-01-23T10:28:25.060Z</time>
      </trkpt>
      <trkpt lat="43.96574" lon="7.17913">
        <ele>1063</ele>
        <time>2016-01-23T10:28:34.060Z</time>
      </trkpt>
      <trkpt lat="43.96585" lon="7.17915">
        <ele>1067</ele>
        <time>2016-01-23T10:28:49.060Z</time>
      </trkpt>
      <trkpt lat="43.96594" lon="7.17916">
        <ele>1067</ele>
        <time>2016-01-23T10:28:56.060Z</time>
      </trkpt>
      <trkpt lat="43.96605" lon="7.17915">
        <ele>1070</ele>
        <time>2016-01-23T10:29:16.060Z</time>
      </trkpt>
      <trkpt lat="43.96614" lon="7.17911">
        <ele>1070</ele>
        <time>2016-01-23T10:29:26.060Z</time>
      </trkpt>
      <trkpt lat="43.96624" lon="7.17908">
        <ele>1071</ele>
        <time>2016-01-23T10:29:39.060Z</time>
      </trkpt>
      <trkpt lat="43.96631" lon="7.17905">
        <ele>1073</ele>
        <time>2016-01-23T10:29:46.060Z</time>
      </trkpt>
      <trkpt lat="43.96638" lon="7.17903">
        <ele>1075</ele>
        <time>2016-01-23T10:29:53.060Z</time>
      </trkpt>
      <trkpt lat="43.96647" lon="7.17903">
        <ele>1078</ele>
        <time>2016-01-23T10:30:02.060Z</time>
      </trkpt>
      <trkpt lat="43.96655" lon="7.17901">
        <ele>1081</ele>
        <time>2016-01-23T10:30:17.060Z</time>
      </trkpt>
      <trkpt lat="43.96666" lon="7.17902">
        <ele>1081</ele>
        <time>2016-01-23T10:30:26.060Z</time>
      </trkpt>
      <trkpt lat="43.96676" lon="7.179">
        <ele>1081</ele>
        <time>2016-01-23T10:30:35.060Z</time>
      </trkpt>
      <trkpt lat="43.96686" lon="7.179">
        <ele>1082</ele>
        <time>2016-01-23T10:30:44.060Z</time>
      </trkpt>
      <trkpt lat="43.96697" lon="7.17897">
        <ele>1084</ele>
        <time>2016-01-23T10:30:53.060Z</time>
      </trkpt>
      <trkpt lat="43.96708" lon="7.17896">
        <ele>1086</ele>
        <time>2016-01-23T10:31:02.060Z</time>
      </trkpt>
      <trkpt lat="43.96719" lon="7.17895">
        <ele>1087.0199808</ele>
        <time>2016-01-23T10:31:11.060Z</time>
      </trkpt>
      <trkpt lat="43.9673" lon="7.17895">
        <ele>1088</ele>
        <time>2016-01-23T10:31:20.060Z</time>
      </trkpt>
      <trkpt lat="43.96738" lon="7.1789">
        <ele>1088</ele>
        <time>2016-01-23T10:31:28.060Z</time>
      </trkpt>
      <trkpt lat="43.96747" lon="7.17891">
        <ele>1089</ele>
        <time>2016-01-23T10:31:48.060Z</time>
      </trkpt>
      <trkpt lat="43.96756" lon="7.17894">
        <ele>1089</ele>
        <time>2016-01-23T10:31:55.060Z</time>
      </trkpt>
      <trkpt lat="43.96765" lon="7.17894">
        <ele>1089</ele>
        <time>2016-01-23T10:32:02.060Z</time>
      </trkpt>
      <trkpt lat="43.96773" lon="7.17896">
        <ele>1089</ele>
        <time>2016-01-23T10:32:09.060Z</time>
      </trkpt>
      <trkpt lat="43.96778" lon="7.17896">
        <ele>1089</ele>
        <time>2016-01-23T10:32:26.060Z</time>
      </trkpt>
      <trkpt lat="43.96787" lon="7.179">
        <ele>1089</ele>
        <time>2016-01-23T10:33:07.060Z</time>
      </trkpt>
      <trkpt lat="43.96793" lon="7.17905">
        <ele>1090</ele>
        <time>2016-01-23T10:33:13.060Z</time>
      </trkpt>
      <trkpt lat="43.968" lon="7.17909">
        <ele>1090</ele>
        <time>2016-01-23T10:33:20.060Z</time>
      </trkpt>
      <trkpt lat="43.96808" lon="7.17914">
        <ele>1090</ele>
        <time>2016-01-23T10:33:26.060Z</time>
      </trkpt>
      <trkpt lat="43.96818" lon="7.17916">
        <ele>1090</ele>
        <time>2016-01-23T10:33:33.060Z</time>
      </trkpt>
      <trkpt lat="43.96826" lon="7.17917">
        <ele>1090</ele>
        <time>2016-01-23T10:33:39.060Z</time>
      </trkpt>
      <trkpt lat="43.96835" lon="7.17919">
        <ele>1091</ele>
        <time>2016-01-23T10:33:43.060Z</time>
      </trkpt>
      <trkpt lat="43.96844" lon="7.17919">
        <ele>1091</ele>
        <time>2016-01-23T10:33:46.060Z</time>
      </trkpt>
      <trkpt lat="43.96856" lon="7.17921">
        <ele>1091</ele>
        <time>2016-01-23T10:33:50.060Z</time>
      </trkpt>
      <trkpt lat="43.96866" lon="7.17922">
        <ele>1091</ele>
        <time>2016-01-23T10:33:54.060Z</time>
      </trkpt>
      <trkpt lat="43.96876" lon="7.17923">
        <ele>1091</ele>
        <time>2016-01-23T10:33:58.060Z</time>
      </trkpt>
      <trkpt lat="43.96886" lon="7.17921">
        <ele>1092</ele>
        <time>2016-01-23T10:34:02.060Z</time>
      </trkpt>
      <trkpt lat="43.96894" lon="7.17919">
        <ele>1092</ele>
        <time>2016-01-23T10:34:05.060Z</time>
      </trkpt>
      <trkpt lat="43.96905" lon="7.17918">
        <ele>1092</ele>
        <time>2016-01-23T10:34:09.060Z</time>
      </trkpt>
      <trkpt lat="43.96915" lon="7.17917">
        <ele>1092</ele>
        <time>2016-01-23T10:34:13.060Z</time>
      </trkpt>
      <trkpt lat="43.96925" lon="7.17913">
        <ele>1092</ele>
        <time>2016-01-23T10:34:17.060Z</time>
      </trkpt>
      <trkpt lat="43.96933" lon="7.1791">
        <ele>1092.5099904</ele>
        <time>2016-01-23T10:34:21.060Z</time>
      </trkpt>
      <trkpt lat="43.96942" lon="7.17906">
        <ele>1093</ele>
        <time>2016-01-23T10:34:25.060Z</time>
      </trkpt>
      <trkpt lat="43.96951" lon="7.17899">
        <ele>1093</ele>
        <time>2016-01-23T10:34:30.060Z</time>
      </trkpt>
      <trkpt lat="43.96961" lon="7.17894">
        <ele>1094</ele>
        <time>2016-01-23T10:34:35.060Z</time>
      </trkpt>
      <trkpt lat="43.9697" lon="7.17893">
        <ele>1094</ele>
        <time>2016-01-23T10:34:39.060Z</time>
      </trkpt>
      <trkpt lat="43.96977" lon="7.17895">
        <ele>1095</ele>
        <time>2016-01-23T10:34:42.060Z</time>
      </trkpt>
      <trkpt lat="43.96989" lon="7.17896">
        <ele>1095</ele>
        <time>2016-01-23T10:34:47.060Z</time>
      </trkpt>
      <trkpt lat="43.97" lon="7.17896">
        <ele>1094.4950574101</ele>
        <time>2016-01-23T10:34:51.060Z</time>
      </trkpt>
      <trkpt lat="43.97009" lon="7.17894">
        <ele>1094</ele>
        <time>2016-01-23T10:34:54.060Z</time>
      </trkpt>
      <trkpt lat="43.97019" lon="7.17893">
        <ele>1094</ele>
        <time>2016-01-23T10:34:58.060Z</time>
      </trkpt>
      <trkpt lat="43.97029" lon="7.17894">
        <ele>1094</ele>
        <time>2016-01-23T10:35:03.060Z</time>
      </trkpt>
      <trkpt lat="43.9704" lon="7.17896">
        <ele>1094</ele>
        <time>2016-01-23T10:35:09.060Z</time>
      </trkpt>
      <trkpt lat="43.97048" lon="7.17901">
        <ele>1096</ele>
        <time>2016-01-23T10:35:14.060Z</time>
      </trkpt>
      <trkpt lat="43.97057" lon="7.17901">
        <ele>1096</ele>
        <time>2016-01-23T10:35:19.060Z</time>
      </trkpt>
      <trkpt lat="43.97067" lon="7.17898">
        <ele>1099</ele>
        <time>2016-01-23T10:35:24.060Z</time>
      </trkpt>
      <trkpt lat="43.97077" lon="7.17893">
        <ele>1101</ele>
        <time>2016-01-23T10:35:30.060Z</time>
      </trkpt>
      <trkpt lat="43.97085" lon="7.17889">
        <ele>1101</ele>
        <time>2016-01-23T10:35:34.060Z</time>
      </trkpt>
      <trkpt lat="43.97093" lon="7.17886">
        <ele>1101</ele>
        <time>2016-01-23T10:35:38.060Z</time>
      </trkpt>
      <trkpt lat="43.97104" lon="7.17885">
        <ele>1102</ele>
        <time>2016-01-23T10:35:44.060Z</time>
      </trkpt>
      <trkpt lat="43.97111" lon="7.17882">
        <ele>1102</ele>
        <time>2016-01-23T10:35:48.060Z</time>
      </trkpt>
      <trkpt lat="43.97118" lon="7.17882">
        <ele>1104</ele>
        <time>2016-01-23T10:35:52.060Z</time>
      </trkpt>
      <trkpt lat="43.97125" lon="7.17882">
        <ele>1104</ele>
        <time>2016-01-23T10:35:55.060Z</time>
      </trkpt>
      <trkpt lat="43.97136" lon="7.17881">
        <ele>1105.0199808</ele>
        <time>2016-01-23T10:36:01.060Z</time>
      </trkpt>
      <trkpt lat="43.97143" lon="7.17882">
        <ele>1106</ele>
        <time>2016-01-23T10:36:04.060Z</time>
      </trkpt>
      <trkpt lat="43.97149" lon="7.17885">
        <ele>1106</ele>
        <time>2016-01-23T10:36:07.060Z</time>
      </trkpt>
      <trkpt lat="43.97156" lon="7.1789">
        <ele>1104.9800192</ele>
        <time>2016-01-23T10:36:11.060Z</time>
      </trkpt>
      <trkpt lat="43.97163" lon="7.17892">
        <ele>1104</ele>
        <time>2016-01-23T10:36:14.060Z</time>
      </trkpt>
      <trkpt lat="43.97175" lon="7.1789">
        <ele>1104</ele>
        <time>2016-01-23T10:36:19.060Z</time>
      </trkpt>
      <trkpt lat="43.97185" lon="7.17887">
        <ele>1102</ele>
        <time>2016-01-23T10:36:23.060Z</time>
      </trkpt>
      <trkpt lat="43.97196" lon="7.17886">
        <ele>1102</ele>
        <time>2016-01-23T10:36:27.060Z</time>
      </trkpt>
      <trkpt lat="43.97207" lon="7.17886">
        <ele>1101</ele>
        <time>2016-01-23T10:36:32.060Z</time>
      </trkpt>
      <trkpt lat="43.97214" lon="7.17883">
        <ele>1101</ele>
        <time>2016-01-23T10:36:35.060Z</time>
      </trkpt>
      <trkpt lat="43.97222" lon="7.17881">
        <ele>1101</ele>
        <time>2016-01-23T10:36:39.060Z</time>
      </trkpt>
      <trkpt lat="43.97231" lon="7.17881">
        <ele>1102</ele>
        <time>2016-01-23T10:36:43.060Z</time>
      </trkpt>
      <trkpt lat="43.97237" lon="7.17883">
        <ele>1102</ele>
        <time>2016-01-23T10:36:46.060Z</time>
      </trkpt>
      <trkpt lat="43.97248" lon="7.17886">
        <ele>1102.5099904</ele>
        <time>2016-01-23T10:36:51.060Z</time>
      </trkpt>
      <trkpt lat="43.97258" lon="7.17888">
        <ele>1103</ele>
        <time>2016-01-23T10:36:56.060Z</time>
      </trkpt>
      <trkpt lat="43.97268" lon="7.17892">
        <ele>1106</ele>
        <time>2016-01-23T10:37:02.060Z</time>
      </trkpt>
      <trkpt lat="43.97279" lon="7.17893">
        <ele>1107</ele>
        <time>2016-01-23T10:37:09.060Z</time>
      </trkpt>
      <trkpt lat="43.9729" lon="7.17895">
        <ele>1109.0200064</ele>
        <time>2016-01-23T10:37:16.060Z</time>
      </trkpt>
      <trkpt lat="43.97301" lon="7.17897">
        <ele>1111</ele>
        <time>2016-01-23T10:37:22.060Z</time>
      </trkpt>
      <trkpt lat="43.97312" lon="7.17902">
        <ele>1113</ele>
        <time>2016-01-23T10:37:29.060Z</time>
      </trkpt>
      <trkpt lat="43.97322" lon="7.17904">
        <ele>1114</ele>
        <time>2016-01-23T10:37:35.060Z</time>
      </trkpt>
      <trkpt lat="43.97332" lon="7.17908">
        <ele>1115</ele>
        <time>2016-01-23T10:37:40.060Z</time>
      </trkpt>
      <trkpt lat="43.97341" lon="7.17915">
        <ele>1116</ele>
        <time>2016-01-23T10:37:44.060Z</time>
      </trkpt>
      <trkpt lat="43.97347" lon="7.17928">
        <ele>1116</ele>
        <time>2016-01-23T10:37:48.060Z</time>
      </trkpt>
      <trkpt lat="43.97354" lon="7.1794">
        <ele>1116</ele>
        <time>2016-01-23T10:37:53.060Z</time>
      </trkpt>
      <trkpt lat="43.97365" lon="7.17943">
        <ele>1116</ele>
        <time>2016-01-23T10:37:59.060Z</time>
      </trkpt>
      <trkpt lat="43.97376" lon="7.17948">
        <ele>1114</ele>
        <time>2016-01-23T10:38:04.060Z</time>
      </trkpt>
      <trkpt lat="43.97383" lon="7.17959">
        <ele>1114</ele>
        <time>2016-01-23T10:38:10.060Z</time>
      </trkpt>
      <trkpt lat="43.9739" lon="7.17971">
        <ele>1114</ele>
        <time>2016-01-23T10:38:17.060Z</time>
      </trkpt>
      <trkpt lat="43.97399" lon="7.17978">
        <ele>1115</ele>
        <time>2016-01-23T10:38:22.060Z</time>
      </trkpt>
      <trkpt lat="43.97408" lon="7.17985">
        <ele>1115</ele>
        <time>2016-01-23T10:38:27.060Z</time>
      </trkpt>
      <trkpt lat="43.9742" lon="7.17985">
        <ele>1115</ele>
        <time>2016-01-23T10:38:31.060Z</time>
      </trkpt>
      <trkpt lat="43.97432" lon="7.1799">
        <ele>1115</ele>
        <time>2016-01-23T10:38:36.060Z</time>
      </trkpt>
      <trkpt lat="43.97443" lon="7.17995">
        <ele>1117</ele>
        <time>2016-01-23T10:38:42.060Z</time>
      </trkpt>
      <trkpt lat="43.97453" lon="7.17991">
        <ele>1117</ele>
        <time>2016-01-23T10:38:48.060Z</time>
      </trkpt>
      <trkpt lat="43.97464" lon="7.17994">
        <ele>1118</ele>
        <time>2016-01-23T10:38:55.060Z</time>
      </trkpt>
      <trkpt lat="43.97473" lon="7.18">
        <ele>1119</ele>
        <time>2016-01-23T10:39:03.060Z</time>
      </trkpt>
      <trkpt lat="43.97483" lon="7.18">
        <ele>1119</ele>
        <time>2016-01-23T10:39:14.060Z</time>
      </trkpt>
      <trkpt lat="43.97494" lon="7.18004">
        <ele>1119</ele>
        <time>2016-01-23T10:39:23.060Z</time>
      </trkpt>
      <trkpt lat="43.97503" lon="7.1801">
        <ele>1119</ele>
        <time>2016-01-23T10:39:32.060Z</time>
      </trkpt>
      <trkpt lat="43.97513" lon="7.18014">
        <ele>1121</ele>
        <time>2016-01-23T10:39:42.060Z</time>
      </trkpt>
      <trkpt lat="43.97522" lon="7.18021">
        <ele>1121</ele>
        <time>2016-01-23T10:39:50.060Z</time>
      </trkpt>
      <trkpt lat="43.97532" lon="7.18029">
        <ele>1123</ele>
        <time>2016-01-23T10:39:59.060Z</time>
      </trkpt>
      <trkpt lat="43.97541" lon="7.18037">
        <ele>1124</ele>
        <time>2016-01-23T10:40:10.060Z</time>
      </trkpt>
      <trkpt lat="43.9755" lon="7.18043">
        <ele>1124</ele>
        <time>2016-01-23T10:40:20.060Z</time>
      </trkpt>
      <trkpt lat="43.9756" lon="7.18046">
        <ele>1126</ele>
        <time>2016-01-23T10:40:28.060Z</time>
      </trkpt>
      <trkpt lat="43.9757" lon="7.18051">
        <ele>1128</ele>
        <time>2016-01-23T10:40:37.060Z</time>
      </trkpt>
      <trkpt lat="43.97579" lon="7.18054">
        <ele>1129</ele>
        <time>2016-01-23T10:40:45.060Z</time>
      </trkpt>
      <trkpt lat="43.97589" lon="7.18058">
        <ele>1131</ele>
        <time>2016-01-23T10:40:52.060Z</time>
      </trkpt>
      <trkpt lat="43.976" lon="7.18062">
        <ele>1132</ele>
        <time>2016-01-23T10:41:02.060Z</time>
      </trkpt>
      <trkpt lat="43.97609" lon="7.18069">
        <ele>1132</ele>
        <time>2016-01-23T10:41:11.060Z</time>
      </trkpt>
      <trkpt lat="43.97618" lon="7.18078">
        <ele>1132.5099904</ele>
        <time>2016-01-23T10:41:21.060Z</time>
      </trkpt>
      <trkpt lat="43.97625" lon="7.18082">
        <ele>1133</ele>
        <time>2016-01-23T10:41:29.060Z</time>
      </trkpt>
      <trkpt lat="43.97634" lon="7.18082">
        <ele>1135</ele>
        <time>2016-01-23T10:41:38.060Z</time>
      </trkpt>
      <trkpt lat="43.97642" lon="7.1808">
        <ele>1137</ele>
        <time>2016-01-23T10:41:47.060Z</time>
      </trkpt>
      <trkpt lat="43.9765" lon="7.18083">
        <ele>1138</ele>
        <time>2016-01-23T10:41:55.060Z</time>
      </trkpt>
      <trkpt lat="43.97657" lon="7.18085">
        <ele>1138</ele>
        <time>2016-01-23T10:42:02.060Z</time>
      </trkpt>
      <trkpt lat="43.97666" lon="7.18087">
        <ele>1138</ele>
        <time>2016-01-23T10:42:10.060Z</time>
      </trkpt>
      <trkpt lat="43.97672" lon="7.18093">
        <ele>1140</ele>
        <time>2016-01-23T10:42:19.060Z</time>
      </trkpt>
      <trkpt lat="43.97676" lon="7.18101">
        <ele>1142</ele>
        <time>2016-01-23T10:42:29.060Z</time>
      </trkpt>
      <trkpt lat="43.97679" lon="7.1811">
        <ele>1146</ele>
        <time>2016-01-23T10:42:38.060Z</time>
      </trkpt>
      <trkpt lat="43.97683" lon="7.18123">
        <ele>1150</ele>
        <time>2016-01-23T10:42:52.060Z</time>
      </trkpt>
      <trkpt lat="43.97688" lon="7.1813">
        <ele>1151.5299712</ele>
        <time>2016-01-23T10:43:01.060Z</time>
      </trkpt>
      <trkpt lat="43.97695" lon="7.18132">
        <ele>1154</ele>
        <time>2016-01-23T10:43:12.060Z</time>
      </trkpt>
      <trkpt lat="43.97703" lon="7.18131">
        <ele>1154</ele>
        <time>2016-01-23T10:43:20.060Z</time>
      </trkpt>
      <trkpt lat="43.97711" lon="7.18129">
        <ele>1154</ele>
        <time>2016-01-23T10:43:28.060Z</time>
      </trkpt>
      <trkpt lat="43.97716" lon="7.18136">
        <ele>1156</ele>
        <time>2016-01-23T10:43:35.060Z</time>
      </trkpt>
      <trkpt lat="43.97721" lon="7.18143">
        <ele>1159</ele>
        <time>2016-01-23T10:43:43.060Z</time>
      </trkpt>
      <trkpt lat="43.97727" lon="7.18146">
        <ele>1160</ele>
        <time>2016-01-23T10:43:49.060Z</time>
      </trkpt>
      <trkpt lat="43.97734" lon="7.18147">
        <ele>1161</ele>
        <time>2016-01-23T10:43:56.060Z</time>
      </trkpt>
      <trkpt lat="43.9774" lon="7.18146">
        <ele>1162</ele>
        <time>2016-01-23T10:44:03.060Z</time>
      </trkpt>
      <trkpt lat="43.97749" lon="7.18145">
        <ele>1162.5099904</ele>
        <time>2016-01-23T10:44:11.060Z</time>
      </trkpt>
      <trkpt lat="43.97758" lon="7.18137">
        <ele>1166</ele>
        <time>2016-01-23T10:44:24.060Z</time>
      </trkpt>
      <trkpt lat="43.97767" lon="7.1813">
        <ele>1168</ele>
        <time>2016-01-23T10:44:37.060Z</time>
      </trkpt>
      <trkpt lat="43.97774" lon="7.1813">
        <ele>1170</ele>
        <time>2016-01-23T10:44:46.060Z</time>
      </trkpt>
      <trkpt lat="43.9778" lon="7.18128">
        <ele>1171</ele>
        <time>2016-01-23T10:44:54.060Z</time>
      </trkpt>
      <trkpt lat="43.97786" lon="7.18129">
        <ele>1174</ele>
        <time>2016-01-23T10:45:03.060Z</time>
      </trkpt>
      <trkpt lat="43.97794" lon="7.18129">
        <ele>1176</ele>
        <time>2016-01-23T10:45:16.060Z</time>
      </trkpt>
      <trkpt lat="43.97805" lon="7.18128">
        <ele>1178</ele>
        <time>2016-01-23T10:45:27.060Z</time>
      </trkpt>
      <trkpt lat="43.97813" lon="7.18127">
        <ele>1180</ele>
        <time>2016-01-23T10:45:35.060Z</time>
      </trkpt>
      <trkpt lat="43.97818" lon="7.18135">
        <ele>1181</ele>
        <time>2016-01-23T10:45:44.060Z</time>
      </trkpt>
      <trkpt lat="43.97822" lon="7.18147">
        <ele>1183</ele>
        <time>2016-01-23T10:45:56.060Z</time>
      </trkpt>
      <trkpt lat="43.97827" lon="7.18153">
        <ele>1184</ele>
        <time>2016-01-23T10:46:10.060Z</time>
      </trkpt>
      <trkpt lat="43.97834" lon="7.18153">
        <ele>1185</ele>
        <time>2016-01-23T10:46:17.060Z</time>
      </trkpt>
      <trkpt lat="43.97834" lon="7.18161">
        <ele>1186</ele>
        <time>2016-01-23T10:47:04.060Z</time>
      </trkpt>
      <trkpt lat="43.97832" lon="7.18171">
        <ele>1186</ele>
        <time>2016-01-23T10:47:10.060Z</time>
      </trkpt>
      <trkpt lat="43.9783" lon="7.1818">
        <ele>1185</ele>
        <time>2016-01-23T10:47:17.060Z</time>
      </trkpt>
      <trkpt lat="43.97827" lon="7.18188">
        <ele>1185</ele>
        <time>2016-01-23T10:47:25.060Z</time>
      </trkpt>
      <trkpt lat="43.97823" lon="7.18193">
        <ele>1185</ele>
        <time>2016-01-23T10:47:29.060Z</time>
      </trkpt>
      <trkpt lat="43.9782" lon="7.18198">
        <ele>1185</ele>
        <time>2016-01-23T10:47:40.060Z</time>
      </trkpt>
      <trkpt lat="43.97818" lon="7.18202">
        <ele>1185</ele>
        <time>2016-01-23T10:48:00.060Z</time>
      </trkpt>
      <trkpt lat="43.97819" lon="7.18197">
        <ele>1185</ele>
        <time>2016-01-23T10:52:22.060Z</time>
      </trkpt>
      <trkpt lat="43.97822" lon="7.18192">
        <ele>1186</ele>
        <time>2016-01-23T10:53:00.060Z</time>
      </trkpt>
      <trkpt lat="43.97827" lon="7.18184">
        <ele>1185</ele>
        <time>2016-01-23T10:53:06.060Z</time>
      </trkpt>
      <trkpt lat="43.97828" lon="7.18178">
        <ele>1185</ele>
        <time>2016-01-23T10:53:10.060Z</time>
      </trkpt>
      <trkpt lat="43.97828" lon="7.18173">
        <ele>1185</ele>
        <time>2016-01-23T10:53:13.060Z</time>
      </trkpt>
      <trkpt lat="43.97832" lon="7.18175">
        <ele>1184</ele>
        <time>2016-01-23T10:54:15.060Z</time>
      </trkpt>
      <trkpt lat="43.97836" lon="7.18177">
        <ele>1184</ele>
        <time>2016-01-23T10:54:20.060Z</time>
      </trkpt>
      <trkpt lat="43.97841" lon="7.18177">
        <ele>1185</ele>
        <time>2016-01-23T10:54:26.060Z</time>
      </trkpt>
      <trkpt lat="43.97846" lon="7.18176">
        <ele>1185</ele>
        <time>2016-01-23T10:54:30.060Z</time>
      </trkpt>
      <trkpt lat="43.97852" lon="7.18175">
        <ele>1185</ele>
        <time>2016-01-23T10:54:35.060Z</time>
      </trkpt>
      <trkpt lat="43.97858" lon="7.18173">
        <ele>1185</ele>
        <time>2016-01-23T10:54:40.060Z</time>
      </trkpt>
      <trkpt lat="43.97864" lon="7.18168">
        <ele>1186</ele>
        <time>2016-01-23T10:54:45.060Z</time>
      </trkpt>
      <trkpt lat="43.9787" lon="7.18164">
        <ele>1186</ele>
        <time>2016-01-23T10:54:50.060Z</time>
      </trkpt>
      <trkpt lat="43.97876" lon="7.18162">
        <ele>1186</ele>
        <time>2016-01-23T10:54:55.060Z</time>
      </trkpt>
      <trkpt lat="43.97882" lon="7.18161">
        <ele>1186</ele>
        <time>2016-01-23T10:55:00.060Z</time>
      </trkpt>
      <trkpt lat="43.97892" lon="7.18159">
        <ele>1188</ele>
        <time>2016-01-23T10:55:09.060Z</time>
      </trkpt>
      <trkpt lat="43.97901" lon="7.18156">
        <ele>1189</ele>
        <time>2016-01-23T10:55:18.060Z</time>
      </trkpt>
      <trkpt lat="43.97905" lon="7.18151">
        <ele>1190</ele>
        <time>2016-01-23T10:55:51.060Z</time>
      </trkpt>
      <trkpt lat="43.97911" lon="7.18145">
        <ele>1188</ele>
        <time>2016-01-23T10:56:06.060Z</time>
      </trkpt>
      <trkpt lat="43.97918" lon="7.18148">
        <ele>1190</ele>
        <time>2016-01-23T10:56:32.060Z</time>
      </trkpt>
      <trkpt lat="43.97926" lon="7.18152">
        <ele>1190</ele>
        <time>2016-01-23T10:56:39.060Z</time>
      </trkpt>
      <trkpt lat="43.9793" lon="7.18151">
        <ele>1190</ele>
        <time>2016-01-23T10:57:02.060Z</time>
      </trkpt>
      <trkpt lat="43.97939" lon="7.18155">
        <ele>1190</ele>
        <time>2016-01-23T10:58:58.060Z</time>
      </trkpt>
      <trkpt lat="43.97949" lon="7.18153">
        <ele>1189</ele>
        <time>2016-01-23T10:59:07.060Z</time>
      </trkpt>
      <trkpt lat="43.97955" lon="7.18147">
        <ele>1189</ele>
        <time>2016-01-23T10:59:19.060Z</time>
      </trkpt>
      <trkpt lat="43.97961" lon="7.18142">
        <ele>1189</ele>
        <time>2016-01-23T10:59:23.060Z</time>
      </trkpt>
      <trkpt lat="43.97968" lon="7.18133">
        <ele>1189</ele>
        <time>2016-01-23T10:59:27.060Z</time>
      </trkpt>
      <trkpt lat="43.97978" lon="7.18126">
        <ele>1189.5099904</ele>
        <time>2016-01-23T10:59:31.060Z</time>
      </trkpt>
      <trkpt lat="43.97986" lon="7.18124">
        <ele>1190</ele>
        <time>2016-01-23T10:59:34.060Z</time>
      </trkpt>
      <trkpt lat="43.97994" lon="7.18125">
        <ele>1190</ele>
        <time>2016-01-23T10:59:37.060Z</time>
      </trkpt>
      <trkpt lat="43.98002" lon="7.18124">
        <ele>1190</ele>
        <time>2016-01-23T10:59:40.060Z</time>
      </trkpt>
      <trkpt lat="43.9801" lon="7.18122">
        <ele>1192</ele>
        <time>2016-01-23T10:59:43.060Z</time>
      </trkpt>
      <trkpt lat="43.9802" lon="7.18117">
        <ele>1192</ele>
        <time>2016-01-23T10:59:47.060Z</time>
      </trkpt>
      <trkpt lat="43.98028" lon="7.1811">
        <ele>1192.5099904</ele>
        <time>2016-01-23T10:59:51.060Z</time>
      </trkpt>
      <trkpt lat="43.98036" lon="7.18101">
        <ele>1193</ele>
        <time>2016-01-23T10:59:56.060Z</time>
      </trkpt>
      <trkpt lat="43.98044" lon="7.18089">
        <ele>1194.0199808</ele>
        <time>2016-01-23T11:00:01.060Z</time>
      </trkpt>
      <trkpt lat="43.98051" lon="7.18079">
        <ele>1195</ele>
        <time>2016-01-23T11:00:06.060Z</time>
      </trkpt>
      <trkpt lat="43.98059" lon="7.18072">
        <ele>1195</ele>
        <time>2016-01-23T11:00:10.060Z</time>
      </trkpt>
      <trkpt lat="43.98065" lon="7.18066">
        <ele>1195</ele>
        <time>2016-01-23T11:00:13.060Z</time>
      </trkpt>
      <trkpt lat="43.98074" lon="7.18064">
        <ele>1195</ele>
        <time>2016-01-23T11:00:17.060Z</time>
      </trkpt>
      <trkpt lat="43.98086" lon="7.18062">
        <ele>1196</ele>
        <time>2016-01-23T11:00:22.060Z</time>
      </trkpt>
      <trkpt lat="43.98097" lon="7.18062">
        <ele>1196</ele>
        <time>2016-01-23T11:00:27.060Z</time>
      </trkpt>
      <trkpt lat="43.98108" lon="7.18057">
        <ele>1198</ele>
        <time>2016-01-23T11:00:32.060Z</time>
      </trkpt>
      <trkpt lat="43.98117" lon="7.18047">
        <ele>1198</ele>
        <time>2016-01-23T11:00:37.060Z</time>
      </trkpt>
      <trkpt lat="43.98124" lon="7.18037">
        <ele>1198</ele>
        <time>2016-01-23T11:00:41.060Z</time>
      </trkpt>
      <trkpt lat="43.98132" lon="7.18027">
        <ele>1198</ele>
        <time>2016-01-23T11:00:45.060Z</time>
      </trkpt>
      <trkpt lat="43.9814" lon="7.18019">
        <ele>1198</ele>
        <time>2016-01-23T11:00:49.060Z</time>
      </trkpt>
      <trkpt lat="43.98147" lon="7.18009">
        <ele>1196</ele>
        <time>2016-01-23T11:00:53.060Z</time>
      </trkpt>
      <trkpt lat="43.98153" lon="7.17997">
        <ele>1196</ele>
        <time>2016-01-23T11:00:57.060Z</time>
      </trkpt>
      <trkpt lat="43.98159" lon="7.17984">
        <ele>1194.9899151841</ele>
        <time>2016-01-23T11:01:01.060Z</time>
      </trkpt>
      <trkpt lat="43.98164" lon="7.17969">
        <ele>1194</ele>
        <time>2016-01-23T11:01:05.060Z</time>
      </trkpt>
      <trkpt lat="43.98172" lon="7.17958">
        <ele>1194</ele>
        <time>2016-01-23T11:01:09.060Z</time>
      </trkpt>
      <trkpt lat="43.98181" lon="7.17948">
        <ele>1194</ele>
        <time>2016-01-23T11:01:13.060Z</time>
      </trkpt>
      <trkpt lat="43.98188" lon="7.17938">
        <ele>1194</ele>
        <time>2016-01-23T11:01:17.060Z</time>
      </trkpt>
      <trkpt lat="43.98195" lon="7.1793">
        <ele>1194</ele>
        <time>2016-01-23T11:01:21.060Z</time>
      </trkpt>
      <trkpt lat="43.98204" lon="7.17921">
        <ele>1194</ele>
        <time>2016-01-23T11:01:25.060Z</time>
      </trkpt>
      <trkpt lat="43.98214" lon="7.17915">
        <ele>1194</ele>
        <time>2016-01-23T11:01:29.060Z</time>
      </trkpt>
      <trkpt lat="43.98225" lon="7.17912">
        <ele>1195</ele>
        <time>2016-01-23T11:01:34.060Z</time>
      </trkpt>
      <trkpt lat="43.98233" lon="7.17903">
        <ele>1195</ele>
        <time>2016-01-23T11:01:39.060Z</time>
      </trkpt>
      <trkpt lat="43.98239" lon="7.17891">
        <ele>1195</ele>
        <time>2016-01-23T11:01:44.060Z</time>
      </trkpt>
      <trkpt lat="43.98245" lon="7.17879">
        <ele>1195</ele>
        <time>2016-01-23T11:01:48.060Z</time>
      </trkpt>
      <trkpt lat="43.9825" lon="7.17863">
        <ele>1196</ele>
        <time>2016-01-23T11:01:53.060Z</time>
      </trkpt>
      <trkpt lat="43.98254" lon="7.17849">
        <ele>1196</ele>
        <time>2016-01-23T11:01:58.060Z</time>
      </trkpt>
      <trkpt lat="43.9826" lon="7.17835">
        <ele>1197</ele>
        <time>2016-01-23T11:02:03.060Z</time>
      </trkpt>
      <trkpt lat="43.98267" lon="7.17822">
        <ele>1197</ele>
        <time>2016-01-23T11:02:08.060Z</time>
      </trkpt>
      <trkpt lat="43.98277" lon="7.17814">
        <ele>1199</ele>
        <time>2016-01-23T11:02:13.060Z</time>
      </trkpt>
      <trkpt lat="43.98288" lon="7.17818">
        <ele>1199</ele>
        <time>2016-01-23T11:02:18.060Z</time>
      </trkpt>
      <trkpt lat="43.98297" lon="7.17826">
        <ele>1202</ele>
        <time>2016-01-23T11:02:24.060Z</time>
      </trkpt>
      <trkpt lat="43.98305" lon="7.17828">
        <ele>1204</ele>
        <time>2016-01-23T11:02:28.060Z</time>
      </trkpt>
      <trkpt lat="43.98313" lon="7.17828">
        <ele>1203</ele>
        <time>2016-01-23T11:02:32.060Z</time>
      </trkpt>
      <trkpt lat="43.98323" lon="7.17827">
        <ele>1203</ele>
        <time>2016-01-23T11:02:36.060Z</time>
      </trkpt>
      <trkpt lat="43.98332" lon="7.17824">
        <ele>1203</ele>
        <time>2016-01-23T11:02:40.060Z</time>
      </trkpt>
      <trkpt lat="43.98341" lon="7.17824">
        <ele>1205</ele>
        <time>2016-01-23T11:02:44.060Z</time>
      </trkpt>
      <trkpt lat="43.98352" lon="7.17827">
        <ele>1205</ele>
        <time>2016-01-23T11:02:49.060Z</time>
      </trkpt>
      <trkpt lat="43.98363" lon="7.17827">
        <ele>1207</ele>
        <time>2016-01-23T11:02:54.060Z</time>
      </trkpt>
      <trkpt lat="43.98374" lon="7.17823">
        <ele>1207</ele>
        <time>2016-01-23T11:02:59.060Z</time>
      </trkpt>
      <trkpt lat="43.98383" lon="7.17814">
        <ele>1209</ele>
        <time>2016-01-23T11:03:04.060Z</time>
      </trkpt>
      <trkpt lat="43.9839" lon="7.17803">
        <ele>1209</ele>
        <time>2016-01-23T11:03:09.060Z</time>
      </trkpt>
      <trkpt lat="43.98397" lon="7.17789">
        <ele>1211</ele>
        <time>2016-01-23T11:03:14.060Z</time>
      </trkpt>
      <trkpt lat="43.98402" lon="7.17776">
        <ele>1211</ele>
        <time>2016-01-23T11:03:19.060Z</time>
      </trkpt>
      <trkpt lat="43.98406" lon="7.17767">
        <ele>1213</ele>
        <time>2016-01-23T11:03:23.060Z</time>
      </trkpt>
      <trkpt lat="43.98413" lon="7.17757">
        <ele>1213</ele>
        <time>2016-01-23T11:03:28.060Z</time>
      </trkpt>
      <trkpt lat="43.98418" lon="7.17747">
        <ele>1215</ele>
        <time>2016-01-23T11:03:34.060Z</time>
      </trkpt>
      <trkpt lat="43.98423" lon="7.17734">
        <ele>1217</ele>
        <time>2016-01-23T11:03:42.060Z</time>
      </trkpt>
      <trkpt lat="43.98428" lon="7.17722">
        <ele>1217</ele>
        <time>2016-01-23T11:03:49.060Z</time>
      </trkpt>
      <trkpt lat="43.98434" lon="7.17711">
        <ele>1217</ele>
        <time>2016-01-23T11:03:56.060Z</time>
      </trkpt>
      <trkpt lat="43.9844" lon="7.17699">
        <ele>1217</ele>
        <time>2016-01-23T11:04:04.060Z</time>
      </trkpt>
      <trkpt lat="43.98446" lon="7.17687">
        <ele>1219</ele>
        <time>2016-01-23T11:04:13.060Z</time>
      </trkpt>
      <trkpt lat="43.98452" lon="7.17674">
        <ele>1219.5099904</ele>
        <time>2016-01-23T11:04:21.060Z</time>
      </trkpt>
      <trkpt lat="43.98457" lon="7.17666">
        <ele>1220</ele>
        <time>2016-01-23T11:04:26.060Z</time>
      </trkpt>
      <trkpt lat="43.98463" lon="7.17659">
        <ele>1220.5099904</ele>
        <time>2016-01-23T11:04:31.060Z</time>
      </trkpt>
      <trkpt lat="43.98469" lon="7.17654">
        <ele>1221</ele>
        <time>2016-01-23T11:04:36.060Z</time>
      </trkpt>
      <trkpt lat="43.98475" lon="7.17648">
        <ele>1222</ele>
        <time>2016-01-23T11:04:42.060Z</time>
      </trkpt>
      <trkpt lat="43.98482" lon="7.17643">
        <ele>1222</ele>
        <time>2016-01-23T11:04:49.060Z</time>
      </trkpt>
      <trkpt lat="43.9849" lon="7.17638">
        <ele>1224</ele>
        <time>2016-01-23T11:04:55.060Z</time>
      </trkpt>
      <trkpt lat="43.98498" lon="7.17637">
        <ele>1223.4900096</ele>
        <time>2016-01-23T11:05:01.060Z</time>
      </trkpt>
      <trkpt lat="43.98505" lon="7.17641">
        <ele>1223</ele>
        <time>2016-01-23T11:05:07.060Z</time>
      </trkpt>
      <trkpt lat="43.98509" lon="7.17645">
        <ele>1224.0199808</ele>
        <time>2016-01-23T11:05:11.060Z</time>
      </trkpt>
      <trkpt lat="43.98514" lon="7.17651">
        <ele>1225</ele>
        <time>2016-01-23T11:05:16.060Z</time>
      </trkpt>
      <trkpt lat="43.98517" lon="7.17658">
        <ele>1226</ele>
        <time>2016-01-23T11:05:36.060Z</time>
      </trkpt>
      <trkpt lat="43.98522" lon="7.17667">
        <ele>1226</ele>
        <time>2016-01-23T11:05:40.060Z</time>
      </trkpt>
      <trkpt lat="43.98527" lon="7.17675">
        <ele>1227</ele>
        <time>2016-01-23T11:05:44.060Z</time>
      </trkpt>
      <trkpt lat="43.98532" lon="7.1768">
        <ele>1227</ele>
        <time>2016-01-23T11:05:49.060Z</time>
      </trkpt>
      <trkpt lat="43.98538" lon="7.1769">
        <ele>1227</ele>
        <time>2016-01-23T11:06:21.060Z</time>
      </trkpt>
      <trkpt lat="43.98545" lon="7.17701">
        <ele>1227</ele>
        <time>2016-01-23T11:06:30.060Z</time>
      </trkpt>
      <trkpt lat="43.98552" lon="7.17709">
        <ele>1227</ele>
        <time>2016-01-23T11:06:36.060Z</time>
      </trkpt>
      <trkpt lat="43.98563" lon="7.17718">
        <ele>1228</ele>
        <time>2016-01-23T11:06:42.060Z</time>
      </trkpt>
      <trkpt lat="43.98574" lon="7.17723">
        <ele>1228</ele>
        <time>2016-01-23T11:06:48.060Z</time>
      </trkpt>
      <trkpt lat="43.98584" lon="7.17729">
        <ele>1229</ele>
        <time>2016-01-23T11:06:53.060Z</time>
      </trkpt>
      <trkpt lat="43.98595" lon="7.17735">
        <ele>1229</ele>
        <time>2016-01-23T11:06:58.060Z</time>
      </trkpt>
      <trkpt lat="43.98604" lon="7.17739">
        <ele>1230</ele>
        <time>2016-01-23T11:07:03.060Z</time>
      </trkpt>
      <trkpt lat="43.98615" lon="7.17745">
        <ele>1230</ele>
        <time>2016-01-23T11:07:10.060Z</time>
      </trkpt>
      <trkpt lat="43.98627" lon="7.17747">
        <ele>1230</ele>
        <time>2016-01-23T11:07:15.060Z</time>
      </trkpt>
      <trkpt lat="43.98637" lon="7.17758">
        <ele>1230</ele>
        <time>2016-01-23T11:07:19.060Z</time>
      </trkpt>
      <trkpt lat="43.98642" lon="7.17771">
        <ele>1229</ele>
        <time>2016-01-23T11:07:23.060Z</time>
      </trkpt>
      <trkpt lat="43.98646" lon="7.17785">
        <ele>1229</ele>
        <time>2016-01-23T11:07:27.060Z</time>
      </trkpt>
      <trkpt lat="43.98651" lon="7.17797">
        <ele>1229</ele>
        <time>2016-01-23T11:07:31.060Z</time>
      </trkpt>
      <trkpt lat="43.98659" lon="7.17807">
        <ele>1229</ele>
        <time>2016-01-23T11:07:36.060Z</time>
      </trkpt>
      <trkpt lat="43.98667" lon="7.17815">
        <ele>1230.0199808</ele>
        <time>2016-01-23T11:07:41.060Z</time>
      </trkpt>
      <trkpt lat="43.98678" lon="7.17822">
        <ele>1231</ele>
        <time>2016-01-23T11:07:46.060Z</time>
      </trkpt>
      <trkpt lat="43.98687" lon="7.17829">
        <ele>1232.0199808</ele>
        <time>2016-01-23T11:07:51.060Z</time>
      </trkpt>
      <trkpt lat="43.98698" lon="7.17836">
        <ele>1233</ele>
        <time>2016-01-23T11:07:56.060Z</time>
      </trkpt>
      <trkpt lat="43.98707" lon="7.17843">
        <ele>1235</ele>
        <time>2016-01-23T11:08:02.060Z</time>
      </trkpt>
      <trkpt lat="43.98714" lon="7.17853">
        <ele>1235</ele>
        <time>2016-01-23T11:08:07.060Z</time>
      </trkpt>
      <trkpt lat="43.98723" lon="7.17862">
        <ele>1238</ele>
        <time>2016-01-23T11:08:12.060Z</time>
      </trkpt>
      <trkpt lat="43.98732" lon="7.17871">
        <ele>1240</ele>
        <time>2016-01-23T11:08:17.060Z</time>
      </trkpt>
      <trkpt lat="43.9874" lon="7.1788">
        <ele>1240</ele>
        <time>2016-01-23T11:08:24.060Z</time>
      </trkpt>
      <trkpt lat="43.98748" lon="7.17888">
        <ele>1240</ele>
        <time>2016-01-23T11:08:31.060Z</time>
      </trkpt>
      <trkpt lat="43.98756" lon="7.17896">
        <ele>1240</ele>
        <time>2016-01-23T11:08:37.060Z</time>
      </trkpt>
      <trkpt lat="43.98765" lon="7.17905">
        <ele>1240</ele>
        <time>2016-01-23T11:08:44.060Z</time>
      </trkpt>
      <trkpt lat="43.98768" lon="7.17918">
        <ele>1240</ele>
        <time>2016-01-23T11:08:55.060Z</time>
      </trkpt>
      <trkpt lat="43.98775" lon="7.17932">
        <ele>1240</ele>
        <time>2016-01-23T11:09:01.060Z</time>
      </trkpt>
      <trkpt lat="43.98781" lon="7.17943">
        <ele>1240</ele>
        <time>2016-01-23T11:09:05.060Z</time>
      </trkpt>
      <trkpt lat="43.98789" lon="7.17952">
        <ele>1240</ele>
        <time>2016-01-23T11:09:09.060Z</time>
      </trkpt>
      <trkpt lat="43.98797" lon="7.17963">
        <ele>1242</ele>
        <time>2016-01-23T11:09:14.060Z</time>
      </trkpt>
      <trkpt lat="43.98807" lon="7.17972">
        <ele>1242</ele>
        <time>2016-01-23T11:09:19.060Z</time>
      </trkpt>
      <trkpt lat="43.98817" lon="7.17975">
        <ele>1243</ele>
        <time>2016-01-23T11:09:24.060Z</time>
      </trkpt>
      <trkpt lat="43.98827" lon="7.17979">
        <ele>1243</ele>
        <time>2016-01-23T11:09:28.060Z</time>
      </trkpt>
      <trkpt lat="43.98838" lon="7.17983">
        <ele>1246</ele>
        <time>2016-01-23T11:09:34.060Z</time>
      </trkpt>
      <trkpt lat="43.98849" lon="7.17989">
        <ele>1247</ele>
        <time>2016-01-23T11:09:39.060Z</time>
      </trkpt>
      <trkpt lat="43.98859" lon="7.17993">
        <ele>1249</ele>
        <time>2016-01-23T11:09:43.060Z</time>
      </trkpt>
      <trkpt lat="43.98869" lon="7.17999">
        <ele>1250</ele>
        <time>2016-01-23T11:09:49.060Z</time>
      </trkpt>
      <trkpt lat="43.98876" lon="7.18007">
        <ele>1251</ele>
        <time>2016-01-23T11:09:56.060Z</time>
      </trkpt>
      <trkpt lat="43.98881" lon="7.18014">
        <ele>1252</ele>
        <time>2016-01-23T11:10:02.060Z</time>
      </trkpt>
      <trkpt lat="43.98886" lon="7.18024">
        <ele>1252</ele>
        <time>2016-01-23T11:10:09.060Z</time>
      </trkpt>
      <trkpt lat="43.98889" lon="7.18034">
        <ele>1254</ele>
        <time>2016-01-23T11:10:14.060Z</time>
      </trkpt>
      <trkpt lat="43.98892" lon="7.18046">
        <ele>1254</ele>
        <time>2016-01-23T11:10:20.060Z</time>
      </trkpt>
      <trkpt lat="43.98894" lon="7.18057">
        <ele>1254</ele>
        <time>2016-01-23T11:10:26.060Z</time>
      </trkpt>
      <trkpt lat="43.98897" lon="7.18067">
        <ele>1255</ele>
        <time>2016-01-23T11:10:33.060Z</time>
      </trkpt>
      <trkpt lat="43.98899" lon="7.1808">
        <ele>1255</ele>
        <time>2016-01-23T11:10:41.060Z</time>
      </trkpt>
      <trkpt lat="43.98899" lon="7.18092">
        <ele>1256</ele>
        <time>2016-01-23T11:10:54.060Z</time>
      </trkpt>
      <trkpt lat="43.98902" lon="7.18104">
        <ele>1257</ele>
        <time>2016-01-23T11:11:02.060Z</time>
      </trkpt>
      <trkpt lat="43.98905" lon="7.18116">
        <ele>1257</ele>
        <time>2016-01-23T11:11:08.060Z</time>
      </trkpt>
      <trkpt lat="43.98909" lon="7.18129">
        <ele>1257</ele>
        <time>2016-01-23T11:11:16.060Z</time>
      </trkpt>
      <trkpt lat="43.98912" lon="7.18144">
        <ele>1259</ele>
        <time>2016-01-23T11:11:23.060Z</time>
      </trkpt>
      <trkpt lat="43.98916" lon="7.18159">
        <ele>1259</ele>
        <time>2016-01-23T11:11:28.060Z</time>
      </trkpt>
      <trkpt lat="43.98919" lon="7.18175">
        <ele>1261</ele>
        <time>2016-01-23T11:11:33.060Z</time>
      </trkpt>
      <trkpt lat="43.98924" lon="7.18187">
        <ele>1261</ele>
        <time>2016-01-23T11:11:37.060Z</time>
      </trkpt>
      <trkpt lat="43.98931" lon="7.182">
        <ele>1262</ele>
        <time>2016-01-23T11:11:42.060Z</time>
      </trkpt>
      <trkpt lat="43.98941" lon="7.1821">
        <ele>1262</ele>
        <time>2016-01-23T11:11:47.060Z</time>
      </trkpt>
      <trkpt lat="43.98949" lon="7.18218">
        <ele>1263.0199808</ele>
        <time>2016-01-23T11:11:51.060Z</time>
      </trkpt>
      <trkpt lat="43.98955" lon="7.1823">
        <ele>1264</ele>
        <time>2016-01-23T11:11:55.060Z</time>
      </trkpt>
      <trkpt lat="43.98957" lon="7.18247">
        <ele>1264</ele>
        <time>2016-01-23T11:12:00.060Z</time>
      </trkpt>
      <trkpt lat="43.98955" lon="7.18263">
        <ele>1266</ele>
        <time>2016-01-23T11:12:05.060Z</time>
      </trkpt>
      <trkpt lat="43.9895" lon="7.18277">
        <ele>1266</ele>
        <time>2016-01-23T11:12:10.060Z</time>
      </trkpt>
      <trkpt lat="43.98943" lon="7.18287">
        <ele>1266</ele>
        <time>2016-01-23T11:12:15.060Z</time>
      </trkpt>
      <trkpt lat="43.98933" lon="7.1829">
        <ele>1267</ele>
        <time>2016-01-23T11:12:28.060Z</time>
      </trkpt>
      <trkpt lat="43.98926" lon="7.1828">
        <ele>1270.0199808</ele>
        <time>2016-01-23T11:12:41.060Z</time>
      </trkpt>
      <trkpt lat="43.98919" lon="7.18269">
        <ele>1275</ele>
        <time>2016-01-23T11:13:02.060Z</time>
      </trkpt>
      <trkpt lat="43.98911" lon="7.1826">
        <ele>1280</ele>
        <time>2016-01-23T11:13:22.060Z</time>
      </trkpt>
      <trkpt lat="43.98905" lon="7.18252">
        <ele>1283.0199808</ele>
        <time>2016-01-23T11:13:41.060Z</time>
      </trkpt>
      <trkpt lat="43.98895" lon="7.18248">
        <ele>1289</ele>
        <time>2016-01-23T11:14:02.060Z</time>
      </trkpt>
      <trkpt lat="43.98886" lon="7.18253">
        <ele>1290</ele>
        <time>2016-01-23T11:14:20.060Z</time>
      </trkpt>
      <trkpt lat="43.98879" lon="7.18255">
        <ele>1293.0199808</ele>
        <time>2016-01-23T11:14:31.060Z</time>
      </trkpt>
      <trkpt lat="43.98869" lon="7.18259">
        <ele>1297.5100032</ele>
        <time>2016-01-23T11:14:46.060Z</time>
      </trkpt>
      <trkpt lat="43.98859" lon="7.18264">
        <ele>1299.0199808</ele>
        <time>2016-01-23T11:15:01.060Z</time>
      </trkpt>
      <trkpt lat="43.98849" lon="7.18268">
        <ele>1302</ele>
        <time>2016-01-23T11:15:15.060Z</time>
      </trkpt>
      <trkpt lat="43.98842" lon="7.18277">
        <ele>1304</ele>
        <time>2016-01-23T11:15:33.060Z</time>
      </trkpt>
      <trkpt lat="43.98835" lon="7.18287">
        <ele>1306.5099904</ele>
        <time>2016-01-23T11:15:51.060Z</time>
      </trkpt>
      <trkpt lat="43.98827" lon="7.18297">
        <ele>1312</ele>
        <time>2016-01-23T11:16:07.060Z</time>
      </trkpt>
      <trkpt lat="43.98819" lon="7.18306">
        <ele>1314</ele>
        <time>2016-01-23T11:16:27.060Z</time>
      </trkpt>
      <trkpt lat="43.98812" lon="7.18316">
        <ele>1320</ele>
        <time>2016-01-23T11:16:50.060Z</time>
      </trkpt>
      <trkpt lat="43.98805" lon="7.18327">
        <ele>1324</ele>
        <time>2016-01-23T11:17:10.060Z</time>
      </trkpt>
      <trkpt lat="43.98796" lon="7.18335">
        <ele>1329</ele>
        <time>2016-01-23T11:17:40.060Z</time>
      </trkpt>
      <trkpt lat="43.9879" lon="7.18346">
        <ele>1335</ele>
        <time>2016-01-23T11:18:10.060Z</time>
      </trkpt>
      <trkpt lat="43.98787" lon="7.18359">
        <ele>1339</ele>
        <time>2016-01-23T11:18:33.060Z</time>
      </trkpt>
      <trkpt lat="43.98781" lon="7.1837">
        <ele>1343</ele>
        <time>2016-01-23T11:18:59.060Z</time>
      </trkpt>
      <trkpt lat="43.9877" lon="7.18367">
        <ele>1347</ele>
        <time>2016-01-23T11:19:12.060Z</time>
      </trkpt>
      <trkpt lat="43.98761" lon="7.18364">
        <ele>1348</ele>
        <time>2016-01-23T11:19:30.060Z</time>
      </trkpt>
      <trkpt lat="43.98757" lon="7.18351">
        <ele>1349</ele>
        <time>2016-01-23T11:19:40.060Z</time>
      </trkpt>
      <trkpt lat="43.98752" lon="7.18339">
        <ele>1350</ele>
        <time>2016-01-23T11:19:49.060Z</time>
      </trkpt>
      <trkpt lat="43.9875" lon="7.18325">
        <ele>1352</ele>
        <time>2016-01-23T11:19:57.060Z</time>
      </trkpt>
      <trkpt lat="43.98748" lon="7.18311">
        <ele>1354</ele>
        <time>2016-01-23T11:20:08.060Z</time>
      </trkpt>
      <trkpt lat="43.98744" lon="7.18298">
        <ele>1354</ele>
        <time>2016-01-23T11:20:19.060Z</time>
      </trkpt>
      <trkpt lat="43.9874" lon="7.18285">
        <ele>1357</ele>
        <time>2016-01-23T11:20:32.060Z</time>
      </trkpt>
      <trkpt lat="43.98732" lon="7.18277">
        <ele>1359</ele>
        <time>2016-01-23T11:20:44.060Z</time>
      </trkpt>
      <trkpt lat="43.98724" lon="7.18268">
        <ele>1361</ele>
        <time>2016-01-23T11:20:58.060Z</time>
      </trkpt>
      <trkpt lat="43.98715" lon="7.18261">
        <ele>1365</ele>
        <time>2016-01-23T11:21:12.060Z</time>
      </trkpt>
      <trkpt lat="43.98705" lon="7.1826">
        <ele>1368</ele>
        <time>2016-01-23T11:21:32.060Z</time>
      </trkpt>
      <trkpt lat="43.98698" lon="7.18254">
        <ele>1370</ele>
        <time>2016-01-23T11:21:49.060Z</time>
      </trkpt>
      <trkpt lat="43.98692" lon="7.18247">
        <ele>1374</ele>
        <time>2016-01-23T11:22:05.060Z</time>
      </trkpt>
      <trkpt lat="43.98686" lon="7.18239">
        <ele>1376</ele>
        <time>2016-01-23T11:22:19.060Z</time>
      </trkpt>
      <trkpt lat="43.98682" lon="7.18231">
        <ele>1378</ele>
        <time>2016-01-23T11:22:30.060Z</time>
      </trkpt>
      <trkpt lat="43.98676" lon="7.18222">
        <ele>1381</ele>
        <time>2016-01-23T11:22:45.060Z</time>
      </trkpt>
      <trkpt lat="43.9867" lon="7.18211">
        <ele>1386</ele>
        <time>2016-01-23T11:23:03.060Z</time>
      </trkpt>
      <trkpt lat="43.98666" lon="7.18198">
        <ele>1387</ele>
        <time>2016-01-23T11:23:18.060Z</time>
      </trkpt>
      <trkpt lat="43.98656" lon="7.18192">
        <ele>1390</ele>
        <time>2016-01-23T11:23:34.060Z</time>
      </trkpt>
      <trkpt lat="43.98658" lon="7.18179">
        <ele>1394</ele>
        <time>2016-01-23T11:23:49.060Z</time>
      </trkpt>
      <trkpt lat="43.98654" lon="7.18168">
        <ele>1399</ele>
        <time>2016-01-23T11:24:13.060Z</time>
      </trkpt>
      <trkpt lat="43.98651" lon="7.18159">
        <ele>1402</ele>
        <time>2016-01-23T11:24:25.060Z</time>
      </trkpt>
      <trkpt lat="43.98647" lon="7.18151">
        <ele>1404</ele>
        <time>2016-01-23T11:24:36.060Z</time>
      </trkpt>
      <trkpt lat="43.98642" lon="7.18144">
        <ele>1406</ele>
        <time>2016-01-23T11:24:45.060Z</time>
      </trkpt>
      <trkpt lat="43.98637" lon="7.18141">
        <ele>1408</ele>
        <time>2016-01-23T11:24:52.060Z</time>
      </trkpt>
      <trkpt lat="43.98632" lon="7.18135">
        <ele>1408</ele>
        <time>2016-01-23T11:24:59.060Z</time>
      </trkpt>
      <trkpt lat="43.98626" lon="7.18136">
        <ele>1408</ele>
        <time>2016-01-23T11:25:08.060Z</time>
      </trkpt>
      <trkpt lat="43.9862" lon="7.18137">
        <ele>1409</ele>
        <time>2016-01-23T11:25:15.060Z</time>
      </trkpt>
      <trkpt lat="43.98615" lon="7.1814">
        <ele>1410</ele>
        <time>2016-01-23T11:25:25.060Z</time>
      </trkpt>
      <trkpt lat="43.98609" lon="7.18141">
        <ele>1411</ele>
        <time>2016-01-23T11:26:07.060Z</time>
      </trkpt>
      <trkpt lat="43.98602" lon="7.18144">
        <ele>1413</ele>
        <time>2016-01-23T11:26:22.060Z</time>
      </trkpt>
      <trkpt lat="43.98593" lon="7.18145">
        <ele>1412</ele>
        <time>2016-01-23T11:26:30.060Z</time>
      </trkpt>
      <trkpt lat="43.98594" lon="7.18154">
        <ele>1413</ele>
        <time>2016-01-23T11:26:56.060Z</time>
      </trkpt>
      <trkpt lat="43.98593" lon="7.18162">
        <ele>1419</ele>
        <time>2016-01-23T11:27:12.060Z</time>
      </trkpt>
      <trkpt lat="43.98591" lon="7.18171">
        <ele>1422</ele>
        <time>2016-01-23T11:27:38.060Z</time>
      </trkpt>
      <trkpt lat="43.98595" lon="7.18178">
        <ele>1425</ele>
        <time>2016-01-23T11:27:56.060Z</time>
      </trkpt>
      <trkpt lat="43.98594" lon="7.18188">
        <ele>1430</ele>
        <time>2016-01-23T11:28:25.060Z</time>
      </trkpt>
      <trkpt lat="43.98593" lon="7.18196">
        <ele>1432</ele>
        <time>2016-01-23T11:28:45.060Z</time>
      </trkpt>
      <trkpt lat="43.98596" lon="7.18205">
        <ele>1437.0199808</ele>
        <time>2016-01-23T11:29:21.060Z</time>
      </trkpt>
      <trkpt lat="43.98595" lon="7.18214">
        <ele>1438</ele>
        <time>2016-01-23T11:29:35.060Z</time>
      </trkpt>
      <trkpt lat="43.98596" lon="7.18224">
        <ele>1439</ele>
        <time>2016-01-23T11:29:53.060Z</time>
      </trkpt>
      <trkpt lat="43.98594" lon="7.18233">
        <ele>1440</ele>
        <time>2016-01-23T11:30:04.060Z</time>
      </trkpt>
      <trkpt lat="43.98591" lon="7.18244">
        <ele>1440</ele>
        <time>2016-01-23T11:30:18.060Z</time>
      </trkpt>
      <trkpt lat="43.98589" lon="7.18255">
        <ele>1439</ele>
        <time>2016-01-23T11:30:26.060Z</time>
      </trkpt>
      <trkpt lat="43.98595" lon="7.18258">
        <ele>1441</ele>
        <time>2016-01-23T11:30:42.060Z</time>
      </trkpt>
      <trkpt lat="43.98594" lon="7.18267">
        <ele>1440</ele>
        <time>2016-01-23T11:30:56.060Z</time>
      </trkpt>
      <trkpt lat="43.98593" lon="7.18279">
        <ele>1443</ele>
        <time>2016-01-23T11:31:12.060Z</time>
      </trkpt>
      <trkpt lat="43.98593" lon="7.18291">
        <ele>1445</ele>
        <time>2016-01-23T11:31:23.060Z</time>
      </trkpt>
      <trkpt lat="43.98591" lon="7.18302">
        <ele>1446</ele>
        <time>2016-01-23T11:31:35.060Z</time>
      </trkpt>
      <trkpt lat="43.98593" lon="7.18312">
        <ele>1448</ele>
        <time>2016-01-23T11:31:49.060Z</time>
      </trkpt>
      <trkpt lat="43.98598" lon="7.18321">
        <ele>1450</ele>
        <time>2016-01-23T11:31:57.060Z</time>
      </trkpt>
      <trkpt lat="43.98601" lon="7.1833">
        <ele>1451</ele>
        <time>2016-01-23T11:32:06.060Z</time>
      </trkpt>
      <trkpt lat="43.98605" lon="7.18339">
        <ele>1452.5099904</ele>
        <time>2016-01-23T11:32:21.060Z</time>
      </trkpt>
      <trkpt lat="43.98607" lon="7.18348">
        <ele>1453.5099904</ele>
        <time>2016-01-23T11:32:31.060Z</time>
      </trkpt>
      <trkpt lat="43.98606" lon="7.1836">
        <ele>1456</ele>
        <time>2016-01-23T11:32:48.060Z</time>
      </trkpt>
      <trkpt lat="43.98606" lon="7.18369">
        <ele>1458</ele>
        <time>2016-01-23T11:32:59.060Z</time>
      </trkpt>
      <trkpt lat="43.98608" lon="7.18379">
        <ele>1457</ele>
        <time>2016-01-23T11:33:09.060Z</time>
      </trkpt>
      <trkpt lat="43.98608" lon="7.18391">
        <ele>1455</ele>
        <time>2016-01-23T11:33:34.060Z</time>
      </trkpt>
      <trkpt lat="43.98606" lon="7.18403">
        <ele>1455</ele>
        <time>2016-01-23T11:33:53.060Z</time>
      </trkpt>
      <trkpt lat="43.98602" lon="7.18409">
        <ele>1454.4900096</ele>
        <time>2016-01-23T11:34:01.060Z</time>
      </trkpt>
      <trkpt lat="43.98602" lon="7.1842">
        <ele>1452</ele>
        <time>2016-01-23T11:34:50.060Z</time>
      </trkpt>
      <trkpt lat="43.98609" lon="7.18428">
        <ele>1450</ele>
        <time>2016-01-23T11:35:05.060Z</time>
      </trkpt>
      <trkpt lat="43.98613" lon="7.1844">
        <ele>1450</ele>
        <time>2016-01-23T11:35:16.060Z</time>
      </trkpt>
      <trkpt lat="43.98617" lon="7.18447">
        <ele>1448</ele>
        <time>2016-01-23T11:35:29.060Z</time>
      </trkpt>
      <trkpt lat="43.98617" lon="7.18458">
        <ele>1443</ele>
        <time>2016-01-23T11:35:45.060Z</time>
      </trkpt>
      <trkpt lat="43.98617" lon="7.18471">
        <ele>1436</ele>
        <time>2016-01-23T11:36:04.060Z</time>
      </trkpt>
      <trkpt lat="43.98623" lon="7.18481">
        <ele>1436</ele>
        <time>2016-01-23T11:36:20.060Z</time>
      </trkpt>
      <trkpt lat="43.98629" lon="7.18488">
        <ele>1438</ele>
        <time>2016-01-23T11:36:33.060Z</time>
      </trkpt>
      <trkpt lat="43.98631" lon="7.185">
        <ele>1441</ele>
        <time>2016-01-23T11:36:53.060Z</time>
      </trkpt>
      <trkpt lat="43.98635" lon="7.1851">
        <ele>1443</ele>
        <time>2016-01-23T11:37:06.060Z</time>
      </trkpt>
      <trkpt lat="43.98636" lon="7.18521">
        <ele>1446</ele>
        <time>2016-01-23T11:37:22.060Z</time>
      </trkpt>
      <trkpt lat="43.98639" lon="7.18531">
        <ele>1450</ele>
        <time>2016-01-23T11:37:44.060Z</time>
      </trkpt>
      <trkpt lat="43.98642" lon="7.18542">
        <ele>1453</ele>
        <time>2016-01-23T11:38:04.060Z</time>
      </trkpt>
      <trkpt lat="43.98645" lon="7.18551">
        <ele>1456</ele>
        <time>2016-01-23T11:38:26.060Z</time>
      </trkpt>
      <trkpt lat="43.98642" lon="7.18564">
        <ele>1460</ele>
        <time>2016-01-23T11:38:54.060Z</time>
      </trkpt>
      <trkpt lat="43.98641" lon="7.18574">
        <ele>1464</ele>
        <time>2016-01-23T11:39:19.060Z</time>
      </trkpt>
      <trkpt lat="43.98644" lon="7.18584">
        <ele>1466</ele>
        <time>2016-01-23T11:39:36.060Z</time>
      </trkpt>
      <trkpt lat="43.98649" lon="7.18593">
        <ele>1470</ele>
        <time>2016-01-23T11:40:02.060Z</time>
      </trkpt>
      <trkpt lat="43.98653" lon="7.18603">
        <ele>1471</ele>
        <time>2016-01-23T11:40:14.060Z</time>
      </trkpt>
      <trkpt lat="43.98658" lon="7.18611">
        <ele>1473</ele>
        <time>2016-01-23T11:40:36.060Z</time>
      </trkpt>
      <trkpt lat="43.98659" lon="7.18618">
        <ele>1475</ele>
        <time>2016-01-23T11:40:46.060Z</time>
      </trkpt>
      <trkpt lat="43.98661" lon="7.18629">
        <ele>1477</ele>
        <time>2016-01-23T11:41:09.060Z</time>
      </trkpt>
      <trkpt lat="43.98661" lon="7.18635">
        <ele>1479</ele>
        <time>2016-01-23T11:41:35.060Z</time>
      </trkpt>
      <trkpt lat="43.98663" lon="7.18642">
        <ele>1483</ele>
        <time>2016-01-23T11:42:06.060Z</time>
      </trkpt>
      <trkpt lat="43.98663" lon="7.18649">
        <ele>1485</ele>
        <time>2016-01-23T11:42:17.060Z</time>
      </trkpt>
      <trkpt lat="43.98661" lon="7.18657">
        <ele>1483</ele>
        <time>2016-01-23T11:42:52.060Z</time>
      </trkpt>
      <trkpt lat="43.98662" lon="7.18668">
        <ele>1483</ele>
        <time>2016-01-23T11:43:50.060Z</time>
      </trkpt>
      <trkpt lat="43.9867" lon="7.18665">
        <ele>1485</ele>
        <time>2016-01-23T11:45:17.060Z</time>
      </trkpt>
      <trkpt lat="43.98675" lon="7.18667">
        <ele>1488</ele>
        <time>2016-01-23T11:45:33.060Z</time>
      </trkpt>
      <trkpt lat="43.98679" lon="7.18663">
        <ele>1489</ele>
        <time>2016-01-23T11:46:48.060Z</time>
      </trkpt>
      <trkpt lat="43.98684" lon="7.18665">
        <ele>1491</ele>
        <time>2016-01-23T11:46:56.060Z</time>
      </trkpt>
      <trkpt lat="43.98686" lon="7.18672">
        <ele>1490.4900096</ele>
        <time>2016-01-23T11:47:01.060Z</time>
      </trkpt>
      <trkpt lat="43.98693" lon="7.18678">
        <ele>1488</ele>
        <time>2016-01-23T11:47:15.060Z</time>
      </trkpt>
      <trkpt lat="43.98698" lon="7.18684">
        <ele>1486</ele>
        <time>2016-01-23T11:47:25.060Z</time>
      </trkpt>
      <trkpt lat="43.98698" lon="7.18698">
        <ele>1486</ele>
        <time>2016-01-23T11:47:49.060Z</time>
      </trkpt>
      <trkpt lat="43.98704" lon="7.18709">
        <ele>1487</ele>
        <time>2016-01-23T11:48:08.060Z</time>
      </trkpt>
      <trkpt lat="43.987" lon="7.18721">
        <ele>1491</ele>
        <time>2016-01-23T11:48:30.060Z</time>
      </trkpt>
      <trkpt lat="43.98706" lon="7.18728">
        <ele>1499</ele>
        <time>2016-01-23T11:49:11.060Z</time>
      </trkpt>
      <trkpt lat="43.98712" lon="7.18738">
        <ele>1500</ele>
        <time>2016-01-23T11:49:22.060Z</time>
      </trkpt>
      <trkpt lat="43.98708" lon="7.18746">
        <ele>1504</ele>
        <time>2016-01-23T11:49:44.060Z</time>
      </trkpt>
      <trkpt lat="43.98706" lon="7.18758">
        <ele>1511</ele>
        <time>2016-01-23T11:50:20.060Z</time>
      </trkpt>
      <trkpt lat="43.98707" lon="7.18769">
        <ele>1512</ele>
        <time>2016-01-23T11:50:32.060Z</time>
      </trkpt>
      <trkpt lat="43.98708" lon="7.1878">
        <ele>1512</ele>
        <time>2016-01-23T11:50:45.060Z</time>
      </trkpt>
      <trkpt lat="43.98709" lon="7.18788">
        <ele>1516</ele>
        <time>2016-01-23T11:51:04.060Z</time>
      </trkpt>
      <trkpt lat="43.98713" lon="7.18794">
        <ele>1518</ele>
        <time>2016-01-23T11:51:24.060Z</time>
      </trkpt>
      <trkpt lat="43.98714" lon="7.18803">
        <ele>1520</ele>
        <time>2016-01-23T11:51:40.060Z</time>
      </trkpt>
      <trkpt lat="43.98717" lon="7.18811">
        <ele>1522</ele>
        <time>2016-01-23T11:51:49.060Z</time>
      </trkpt>
      <trkpt lat="43.98719" lon="7.18822">
        <ele>1521</ele>
        <time>2016-01-23T11:52:05.060Z</time>
      </trkpt>
      <trkpt lat="43.98719" lon="7.1883">
        <ele>1519</ele>
        <time>2016-01-23T11:52:28.060Z</time>
      </trkpt>
      <trkpt lat="43.98719" lon="7.1884">
        <ele>1515</ele>
        <time>2016-01-23T11:53:54.060Z</time>
      </trkpt>
      <trkpt lat="43.98722" lon="7.18851">
        <ele>1513</ele>
        <time>2016-01-23T11:54:28.060Z</time>
      </trkpt>
      <trkpt lat="43.9872" lon="7.18863">
        <ele>1510</ele>
        <time>2016-01-23T11:54:56.060Z</time>
      </trkpt>
      <trkpt lat="43.98723" lon="7.18874">
        <ele>1508</ele>
        <time>2016-01-23T11:55:11.060Z</time>
      </trkpt>
      <trkpt lat="43.98725" lon="7.18885">
        <ele>1507</ele>
        <time>2016-01-23T11:55:24.060Z</time>
      </trkpt>
      <trkpt lat="43.98725" lon="7.18897">
        <ele>1506</ele>
        <time>2016-01-23T11:55:34.060Z</time>
      </trkpt>
      <trkpt lat="43.98724" lon="7.18907">
        <ele>1507</ele>
        <time>2016-01-23T11:55:43.060Z</time>
      </trkpt>
      <trkpt lat="43.98721" lon="7.18915">
        <ele>1509</ele>
        <time>2016-01-23T11:55:53.060Z</time>
      </trkpt>
      <trkpt lat="43.98721" lon="7.18923">
        <ele>1511</ele>
        <time>2016-01-23T11:56:20.060Z</time>
      </trkpt>
      <trkpt lat="43.9872" lon="7.18933">
        <ele>1515</ele>
        <time>2016-01-23T11:56:37.060Z</time>
      </trkpt>
      <trkpt lat="43.98716" lon="7.18944">
        <ele>1520</ele>
        <time>2016-01-23T11:56:55.060Z</time>
      </trkpt>
      <trkpt lat="43.98713" lon="7.18953">
        <ele>1525</ele>
        <time>2016-01-23T11:57:08.060Z</time>
      </trkpt>
      <trkpt lat="43.98712" lon="7.18964">
        <ele>1527</ele>
        <time>2016-01-23T11:57:38.060Z</time>
      </trkpt>
      <trkpt lat="43.98709" lon="7.18973">
        <ele>1529</ele>
        <time>2016-01-23T11:57:48.060Z</time>
      </trkpt>
      <trkpt lat="43.98708" lon="7.18984">
        <ele>1530</ele>
        <time>2016-01-23T11:58:04.060Z</time>
      </trkpt>
      <trkpt lat="43.98711" lon="7.18996">
        <ele>1530</ele>
        <time>2016-01-23T11:58:14.060Z</time>
      </trkpt>
      <trkpt lat="43.98714" lon="7.19008">
        <ele>1530</ele>
        <time>2016-01-23T11:58:27.060Z</time>
      </trkpt>
      <trkpt lat="43.98712" lon="7.19023">
        <ele>1532</ele>
        <time>2016-01-23T11:58:44.060Z</time>
      </trkpt>
      <trkpt lat="43.98707" lon="7.19036">
        <ele>1538</ele>
        <time>2016-01-23T11:59:09.060Z</time>
      </trkpt>
      <trkpt lat="43.98705" lon="7.1905">
        <ele>1539</ele>
        <time>2016-01-23T11:59:30.060Z</time>
      </trkpt>
      <trkpt lat="43.98701" lon="7.19063">
        <ele>1542.0199808</ele>
        <time>2016-01-23T11:59:51.060Z</time>
      </trkpt>
      <trkpt lat="43.98705" lon="7.19076">
        <ele>1544</ele>
        <time>2016-01-23T12:00:05.060Z</time>
      </trkpt>
      <trkpt lat="43.98707" lon="7.1909">
        <ele>1544</ele>
        <time>2016-01-23T12:00:20.060Z</time>
      </trkpt>
      <trkpt lat="43.9871" lon="7.19103">
        <ele>1545</ele>
        <time>2016-01-23T12:00:34.060Z</time>
      </trkpt>
      <trkpt lat="43.98713" lon="7.19116">
        <ele>1551</ele>
        <time>2016-01-23T12:01:08.060Z</time>
      </trkpt>
      <trkpt lat="43.98715" lon="7.1913">
        <ele>1555</ele>
        <time>2016-01-23T12:01:40.060Z</time>
      </trkpt>
      <trkpt lat="43.9872" lon="7.19142">
        <ele>1561</ele>
        <time>2016-01-23T12:02:04.060Z</time>
      </trkpt>
      <trkpt lat="43.98723" lon="7.19155">
        <ele>1564</ele>
        <time>2016-01-23T12:02:53.060Z</time>
      </trkpt>
      <trkpt lat="43.98733" lon="7.1916">
        <ele>1574</ele>
        <time>2016-01-23T12:05:06.060Z</time>
      </trkpt>
      <trkpt lat="43.98738" lon="7.19172">
        <ele>1578</ele>
        <time>2016-01-23T12:05:37.060Z</time>
      </trkpt>
      <trkpt lat="43.98748" lon="7.19168">
        <ele>1582</ele>
        <time>2016-01-23T12:06:13.060Z</time>
      </trkpt>
      <trkpt lat="43.98757" lon="7.19174">
        <ele>1587</ele>
        <time>2016-01-23T12:06:46.060Z</time>
      </trkpt>
      <trkpt lat="43.9876" lon="7.19187">
        <ele>1595</ele>
        <time>2016-01-23T12:07:33.060Z</time>
      </trkpt>
      <trkpt lat="43.98769" lon="7.19193">
        <ele>1605</ele>
        <time>2016-01-23T12:08:44.060Z</time>
      </trkpt>
      <trkpt lat="43.98771" lon="7.19203">
        <ele>1614</ele>
        <time>2016-01-23T12:09:33.060Z</time>
      </trkpt>
      <trkpt lat="43.98772" lon="7.19212">
        <ele>1618</ele>
        <time>2016-01-23T12:10:51.060Z</time>
      </trkpt>
      <trkpt lat="43.98771" lon="7.19219">
        <ele>1623</ele>
        <time>2016-01-23T12:12:11.060Z</time>
      </trkpt>
      <trkpt lat="43.98768" lon="7.19226">
        <ele>1626</ele>
        <time>2016-01-23T12:14:06.060Z</time>
      </trkpt>
      <trkpt lat="43.98768" lon="7.19236">
        <ele>1627</ele>
        <time>2016-01-23T12:14:48.060Z</time>
      </trkpt>
      <trkpt lat="43.98759" lon="7.19238">
        <ele>1628</ele>
        <time>2016-01-23T12:15:09.060Z</time>
      </trkpt>
      <trkpt lat="43.98756" lon="7.19245">
        <ele>1631</ele>
        <time>2016-01-23T12:15:48.060Z</time>
      </trkpt>
      <trkpt lat="43.98756" lon="7.19259">
        <ele>1632</ele>
        <time>2016-01-23T12:16:25.060Z</time>
      </trkpt>
      <trkpt lat="43.98748" lon="7.19264">
        <ele>1630</ele>
        <time>2016-01-23T12:18:42.060Z</time>
      </trkpt>
      <trkpt lat="43.98751" lon="7.19262">
        <ele>1627</ele>
        <time>2016-01-23T12:22:02.060Z</time>
      </trkpt>
      <trkpt lat="43.98751" lon="7.19253">
        <ele>1626</ele>
        <time>2016-01-23T12:23:09.060Z</time>
      </trkpt>
      <trkpt lat="43.98755" lon="7.19265">
        <ele>1628</ele>
        <time>2016-01-23T12:23:29.060Z</time>
      </trkpt>
      <trkpt lat="43.98752" lon="7.1926">
        <ele>1627</ele>
        <time>2016-01-23T12:23:55.060Z</time>
      </trkpt>
      <trkpt lat="43.98746" lon="7.19252">
        <ele>1627</ele>
        <time>2016-01-23T12:24:14.060Z</time>
      </trkpt>
      <trkpt lat="43.98752" lon="7.19256">
        <ele>1628</ele>
        <time>2016-01-23T12:41:13.060Z</time>
      </trkpt>
      <trkpt lat="43.98753" lon="7.19263">
        <ele>1629</ele>
        <time>2016-01-23T12:41:31.060Z</time>
      </trkpt>
      <trkpt lat="43.98757" lon="7.19268">
        <ele>1629</ele>
        <time>2016-01-23T12:41:40.060Z</time>
      </trkpt>
      <trkpt lat="43.98761" lon="7.19263">
        <ele>1627</ele>
        <time>2016-01-23T12:41:47.060Z</time>
      </trkpt>
      <trkpt lat="43.98763" lon="7.19277">
        <ele>1626</ele>
        <time>2016-01-23T12:41:58.060Z</time>
      </trkpt>
      <trkpt lat="43.98765" lon="7.19289">
        <ele>1622</ele>
        <time>2016-01-23T12:42:05.060Z</time>
      </trkpt>
      <trkpt lat="43.98769" lon="7.19303">
        <ele>1620</ele>
        <time>2016-01-23T12:42:15.060Z</time>
      </trkpt>
      <trkpt lat="43.98772" lon="7.19317">
        <ele>1617</ele>
        <time>2016-01-23T12:42:25.060Z</time>
      </trkpt>
      <trkpt lat="43.98776" lon="7.19326">
        <ele>1614</ele>
        <time>2016-01-23T12:42:51.060Z</time>
      </trkpt>
      <trkpt lat="43.98779" lon="7.19335">
        <ele>1610</ele>
        <time>2016-01-23T12:43:54.060Z</time>
      </trkpt>
      <trkpt lat="43.98781" lon="7.19348">
        <ele>1605</ele>
        <time>2016-01-23T12:44:43.060Z</time>
      </trkpt>
      <trkpt lat="43.9878" lon="7.19362">
        <ele>1604</ele>
        <time>2016-01-23T12:44:59.060Z</time>
      </trkpt>
      <trkpt lat="43.98782" lon="7.19377">
        <ele>1601</ele>
        <time>2016-01-23T12:45:05.060Z</time>
      </trkpt>
      <trkpt lat="43.98787" lon="7.19392">
        <ele>1597</ele>
        <time>2016-01-23T12:45:12.060Z</time>
      </trkpt>
      <trkpt lat="43.98797" lon="7.19389">
        <ele>1592</ele>
        <time>2016-01-23T12:45:23.060Z</time>
      </trkpt>
      <trkpt lat="43.98803" lon="7.19392">
        <ele>1588</ele>
        <time>2016-01-23T12:46:13.060Z</time>
      </trkpt>
      <trkpt lat="43.98806" lon="7.19378">
        <ele>1587</ele>
        <time>2016-01-23T12:47:34.060Z</time>
      </trkpt>
      <trkpt lat="43.98812" lon="7.19365">
        <ele>1585</ele>
        <time>2016-01-23T12:47:44.060Z</time>
      </trkpt>
      <trkpt lat="43.98817" lon="7.19353">
        <ele>1585</ele>
        <time>2016-01-23T12:47:50.060Z</time>
      </trkpt>
      <trkpt lat="43.98821" lon="7.1934">
        <ele>1579</ele>
        <time>2016-01-23T12:48:00.060Z</time>
      </trkpt>
      <trkpt lat="43.98825" lon="7.19327">
        <ele>1574</ele>
        <time>2016-01-23T12:48:12.060Z</time>
      </trkpt>
      <trkpt lat="43.98827" lon="7.19314">
        <ele>1572</ele>
        <time>2016-01-23T12:48:24.060Z</time>
      </trkpt>
      <trkpt lat="43.98828" lon="7.193">
        <ele>1570</ele>
        <time>2016-01-23T12:48:35.060Z</time>
      </trkpt>
      <trkpt lat="43.98831" lon="7.19285">
        <ele>1568</ele>
        <time>2016-01-23T12:48:44.060Z</time>
      </trkpt>
      <trkpt lat="43.98831" lon="7.19271">
        <ele>1566</ele>
        <time>2016-01-23T12:48:56.060Z</time>
      </trkpt>
      <trkpt lat="43.98838" lon="7.1928">
        <ele>1562</ele>
        <time>2016-01-23T12:49:18.060Z</time>
      </trkpt>
      <trkpt lat="43.98841" lon="7.19294">
        <ele>1557</ele>
        <time>2016-01-23T12:49:27.060Z</time>
      </trkpt>
      <trkpt lat="43.98842" lon="7.19308">
        <ele>1555.4899968</ele>
        <time>2016-01-23T12:49:36.060Z</time>
      </trkpt>
      <trkpt lat="43.98845" lon="7.19322">
        <ele>1554</ele>
        <time>2016-01-23T12:49:43.060Z</time>
      </trkpt>
      <trkpt lat="43.98848" lon="7.19337">
        <ele>1554</ele>
        <time>2016-01-23T12:49:49.060Z</time>
      </trkpt>
      <trkpt lat="43.98851" lon="7.19351">
        <ele>1552</ele>
        <time>2016-01-23T12:49:54.060Z</time>
      </trkpt>
      <trkpt lat="43.98855" lon="7.19366">
        <ele>1550.4700288</ele>
        <time>2016-01-23T12:50:01.060Z</time>
      </trkpt>
      <trkpt lat="43.98857" lon="7.19374">
        <ele>1547.9799936</ele>
        <time>2016-01-23T12:50:06.060Z</time>
      </trkpt>
      <trkpt lat="43.98863" lon="7.19382">
        <ele>1544</ele>
        <time>2016-01-23T12:50:32.060Z</time>
      </trkpt>
      <trkpt lat="43.98866" lon="7.19389">
        <ele>1544</ele>
        <time>2016-01-23T12:50:39.060Z</time>
      </trkpt>
      <trkpt lat="43.98871" lon="7.19398">
        <ele>1543</ele>
        <time>2016-01-23T12:50:49.060Z</time>
      </trkpt>
      <trkpt lat="43.98877" lon="7.19404">
        <ele>1540</ele>
        <time>2016-01-23T12:51:09.060Z</time>
      </trkpt>
      <trkpt lat="43.98884" lon="7.1941">
        <ele>1538</ele>
        <time>2016-01-23T12:51:22.060Z</time>
      </trkpt>
      <trkpt lat="43.98892" lon="7.19418">
        <ele>1536</ele>
        <time>2016-01-23T12:51:32.060Z</time>
      </trkpt>
      <trkpt lat="43.98898" lon="7.19425">
        <ele>1536</ele>
        <time>2016-01-23T12:51:37.060Z</time>
      </trkpt>
      <trkpt lat="43.98903" lon="7.19434">
        <ele>1532</ele>
        <time>2016-01-23T12:51:48.060Z</time>
      </trkpt>
      <trkpt lat="43.98907" lon="7.19439">
        <ele>1532</ele>
        <time>2016-01-23T12:52:39.060Z</time>
      </trkpt>
      <trkpt lat="43.98912" lon="7.19445">
        <ele>1531</ele>
        <time>2016-01-23T12:52:49.060Z</time>
      </trkpt>
      <trkpt lat="43.98917" lon="7.19453">
        <ele>1528</ele>
        <time>2016-01-23T12:53:04.060Z</time>
      </trkpt>
      <trkpt lat="43.98922" lon="7.19457">
        <ele>1528</ele>
        <time>2016-01-23T12:53:30.060Z</time>
      </trkpt>
      <trkpt lat="43.98928" lon="7.19464">
        <ele>1524.9800192</ele>
        <time>2016-01-23T12:54:01.060Z</time>
      </trkpt>
      <trkpt lat="43.98932" lon="7.19468">
        <ele>1523.4900096</ele>
        <time>2016-01-23T12:54:21.060Z</time>
      </trkpt>
      <trkpt lat="43.98936" lon="7.19475">
        <ele>1523</ele>
        <time>2016-01-23T12:54:36.060Z</time>
      </trkpt>
      <trkpt lat="43.98943" lon="7.19477">
        <ele>1523</ele>
        <time>2016-01-23T12:54:48.060Z</time>
      </trkpt>
      <trkpt lat="43.98949" lon="7.19481">
        <ele>1521</ele>
        <time>2016-01-23T12:54:59.060Z</time>
      </trkpt>
      <trkpt lat="43.98955" lon="7.19489">
        <ele>1519</ele>
        <time>2016-01-23T12:55:08.060Z</time>
      </trkpt>
      <trkpt lat="43.98962" lon="7.19496">
        <ele>1518</ele>
        <time>2016-01-23T12:55:16.060Z</time>
      </trkpt>
      <trkpt lat="43.98967" lon="7.19501">
        <ele>1516</ele>
        <time>2016-01-23T12:55:25.060Z</time>
      </trkpt>
      <trkpt lat="43.98972" lon="7.19506">
        <ele>1515</ele>
        <time>2016-01-23T12:55:37.060Z</time>
      </trkpt>
      <trkpt lat="43.98981" lon="7.19512">
        <ele>1515</ele>
        <time>2016-01-23T12:56:00.060Z</time>
      </trkpt>
      <trkpt lat="43.9899" lon="7.19517">
        <ele>1511</ele>
        <time>2016-01-23T12:56:07.060Z</time>
      </trkpt>
      <trkpt lat="43.98997" lon="7.19522">
        <ele>1509</ele>
        <time>2016-01-23T12:56:13.060Z</time>
      </trkpt>
      <trkpt lat="43.99004" lon="7.19526">
        <ele>1507</ele>
        <time>2016-01-23T12:56:25.060Z</time>
      </trkpt>
      <trkpt lat="43.99012" lon="7.19529">
        <ele>1505</ele>
        <time>2016-01-23T12:56:33.060Z</time>
      </trkpt>
      <trkpt lat="43.99017" lon="7.19532">
        <ele>1505</ele>
        <time>2016-01-23T12:56:39.060Z</time>
      </trkpt>
      <trkpt lat="43.99025" lon="7.19537">
        <ele>1505</ele>
        <time>2016-01-23T12:56:46.060Z</time>
      </trkpt>
      <trkpt lat="43.99035" lon="7.19539">
        <ele>1503</ele>
        <time>2016-01-23T12:56:54.060Z</time>
      </trkpt>
      <trkpt lat="43.99044" lon="7.19541">
        <ele>1503</ele>
        <time>2016-01-23T12:56:59.060Z</time>
      </trkpt>
      <trkpt lat="43.99051" lon="7.19545">
        <ele>1498</ele>
        <time>2016-01-23T12:57:03.060Z</time>
      </trkpt>
      <trkpt lat="43.99059" lon="7.19552">
        <ele>1498</ele>
        <time>2016-01-23T12:57:08.060Z</time>
      </trkpt>
      <trkpt lat="43.99066" lon="7.19557">
        <ele>1497</ele>
        <time>2016-01-23T12:57:15.060Z</time>
      </trkpt>
      <trkpt lat="43.99074" lon="7.19563">
        <ele>1496.4900096</ele>
        <time>2016-01-23T12:57:21.060Z</time>
      </trkpt>
      <trkpt lat="43.99081" lon="7.19573">
        <ele>1497</ele>
        <time>2016-01-23T12:57:29.060Z</time>
      </trkpt>
      <trkpt lat="43.99089" lon="7.19581">
        <ele>1495</ele>
        <time>2016-01-23T12:57:39.060Z</time>
      </trkpt>
      <trkpt lat="43.99098" lon="7.19585">
        <ele>1493</ele>
        <time>2016-01-23T12:57:47.060Z</time>
      </trkpt>
      <trkpt lat="43.99107" lon="7.19591">
        <ele>1492</ele>
        <time>2016-01-23T12:57:58.060Z</time>
      </trkpt>
      <trkpt lat="43.99115" lon="7.19586">
        <ele>1489</ele>
        <time>2016-01-23T12:58:07.060Z</time>
      </trkpt>
      <trkpt lat="43.99123" lon="7.19582">
        <ele>1488</ele>
        <time>2016-01-23T12:58:15.060Z</time>
      </trkpt>
      <trkpt lat="43.9913" lon="7.19581">
        <ele>1486</ele>
        <time>2016-01-23T12:58:25.060Z</time>
      </trkpt>
      <trkpt lat="43.99138" lon="7.1958">
        <ele>1483</ele>
        <time>2016-01-23T13:01:23.060Z</time>
      </trkpt>
      <trkpt lat="43.99148" lon="7.19581">
        <ele>1481.4700288</ele>
        <time>2016-01-23T13:01:31.060Z</time>
      </trkpt>
      <trkpt lat="43.99159" lon="7.19584">
        <ele>1480</ele>
        <time>2016-01-23T13:01:35.060Z</time>
      </trkpt>
      <trkpt lat="43.99166" lon="7.19589">
        <ele>1479</ele>
        <time>2016-01-23T13:01:38.060Z</time>
      </trkpt>
      <trkpt lat="43.99172" lon="7.19598">
        <ele>1478</ele>
        <time>2016-01-23T13:01:45.060Z</time>
      </trkpt>
      <trkpt lat="43.9918" lon="7.19607">
        <ele>1479</ele>
        <time>2016-01-23T13:01:54.060Z</time>
      </trkpt>
      <trkpt lat="43.99189" lon="7.19614">
        <ele>1479</ele>
        <time>2016-01-23T13:02:03.060Z</time>
      </trkpt>
      <trkpt lat="43.99195" lon="7.19622">
        <ele>1480.0199808</ele>
        <time>2016-01-23T13:02:11.060Z</time>
      </trkpt>
      <trkpt lat="43.99203" lon="7.19626">
        <ele>1481</ele>
        <time>2016-01-23T13:02:21.060Z</time>
      </trkpt>
      <trkpt lat="43.9921" lon="7.1963">
        <ele>1481</ele>
        <time>2016-01-23T13:02:29.060Z</time>
      </trkpt>
      <trkpt lat="43.99216" lon="7.19637">
        <ele>1481</ele>
        <time>2016-01-23T13:02:34.060Z</time>
      </trkpt>
      <trkpt lat="43.99222" lon="7.19641">
        <ele>1481</ele>
        <time>2016-01-23T13:02:40.060Z</time>
      </trkpt>
      <trkpt lat="43.99229" lon="7.19644">
        <ele>1481</ele>
        <time>2016-01-23T13:02:45.060Z</time>
      </trkpt>
      <trkpt lat="43.99235" lon="7.19645">
        <ele>1481</ele>
        <time>2016-01-23T13:02:49.060Z</time>
      </trkpt>
      <trkpt lat="43.99243" lon="7.19647">
        <ele>1479</ele>
        <time>2016-01-23T13:02:53.060Z</time>
      </trkpt>
      <trkpt lat="43.9925" lon="7.19648">
        <ele>1477.9799936</ele>
        <time>2016-01-23T13:02:56.060Z</time>
      </trkpt>
      <trkpt lat="43.9926" lon="7.19647">
        <ele>1477</ele>
        <time>2016-01-23T13:02:59.060Z</time>
      </trkpt>
      <trkpt lat="43.99269" lon="7.19647">
        <ele>1476</ele>
        <time>2016-01-23T13:03:02.060Z</time>
      </trkpt>
      <trkpt lat="43.99277" lon="7.19646">
        <ele>1476</ele>
        <time>2016-01-23T13:03:05.060Z</time>
      </trkpt>
      <trkpt lat="43.99285" lon="7.19643">
        <ele>1476</ele>
        <time>2016-01-23T13:03:08.060Z</time>
      </trkpt>
      <trkpt lat="43.99291" lon="7.19639">
        <ele>1475.4900096</ele>
        <time>2016-01-23T13:03:11.060Z</time>
      </trkpt>
      <trkpt lat="43.99296" lon="7.19638">
        <ele>1475</ele>
        <time>2016-01-23T13:03:13.060Z</time>
      </trkpt>
      <trkpt lat="43.99307" lon="7.19637">
        <ele>1475</ele>
        <time>2016-01-23T13:03:18.060Z</time>
      </trkpt>
      <trkpt lat="43.99314" lon="7.19642">
        <ele>1474</ele>
        <time>2016-01-23T13:03:24.060Z</time>
      </trkpt>
      <trkpt lat="43.99321" lon="7.1964">
        <ele>1473</ele>
        <time>2016-01-23T13:03:38.060Z</time>
      </trkpt>
      <trkpt lat="43.99328" lon="7.19638">
        <ele>1473</ele>
        <time>2016-01-23T13:03:41.060Z</time>
      </trkpt>
      <trkpt lat="43.99335" lon="7.19636">
        <ele>1473</ele>
        <time>2016-01-23T13:03:45.060Z</time>
      </trkpt>
      <trkpt lat="43.99346" lon="7.19633">
        <ele>1471.9800192</ele>
        <time>2016-01-23T13:03:51.060Z</time>
      </trkpt>
      <trkpt lat="43.99356" lon="7.19632">
        <ele>1471</ele>
        <time>2016-01-23T13:03:56.060Z</time>
      </trkpt>
      <trkpt lat="43.99365" lon="7.19631">
        <ele>1468.450048</ele>
        <time>2016-01-23T13:04:01.060Z</time>
      </trkpt>
      <trkpt lat="43.99374" lon="7.19627">
        <ele>1464.4900096</ele>
        <time>2016-01-23T13:04:07.060Z</time>
      </trkpt>
      <trkpt lat="43.99384" lon="7.19622">
        <ele>1463</ele>
        <time>2016-01-23T13:04:14.060Z</time>
      </trkpt>
      <trkpt lat="43.99395" lon="7.19616">
        <ele>1462</ele>
        <time>2016-01-23T13:04:20.060Z</time>
      </trkpt>
      <trkpt lat="43.99402" lon="7.1961">
        <ele>1461</ele>
        <time>2016-01-23T13:04:24.060Z</time>
      </trkpt>
      <trkpt lat="43.99411" lon="7.19607">
        <ele>1458</ele>
        <time>2016-01-23T13:04:29.060Z</time>
      </trkpt>
      <trkpt lat="43.99422" lon="7.19606">
        <ele>1451.4899968</ele>
        <time>2016-01-23T13:04:38.060Z</time>
      </trkpt>
      <trkpt lat="43.99433" lon="7.19601">
        <ele>1449</ele>
        <time>2016-01-23T13:04:44.060Z</time>
      </trkpt>
      <trkpt lat="43.99442" lon="7.19593">
        <ele>1447</ele>
        <time>2016-01-23T13:04:49.060Z</time>
      </trkpt>
      <trkpt lat="43.99452" lon="7.19588">
        <ele>1446</ele>
        <time>2016-01-23T13:04:53.060Z</time>
      </trkpt>
      <trkpt lat="43.99462" lon="7.19582">
        <ele>1445</ele>
        <time>2016-01-23T13:04:57.060Z</time>
      </trkpt>
      <trkpt lat="43.99473" lon="7.19577">
        <ele>1443</ele>
        <time>2016-01-23T13:05:02.060Z</time>
      </trkpt>
      <trkpt lat="43.99483" lon="7.19577">
        <ele>1443</ele>
        <time>2016-01-23T13:05:10.060Z</time>
      </trkpt>
      <trkpt lat="43.99492" lon="7.19582">
        <ele>1443</ele>
        <time>2016-01-23T13:05:15.060Z</time>
      </trkpt>
      <trkpt lat="43.99503" lon="7.19584">
        <ele>1443</ele>
        <time>2016-01-23T13:05:19.060Z</time>
      </trkpt>
      <trkpt lat="43.99514" lon="7.19587">
        <ele>1442</ele>
        <time>2016-01-23T13:05:23.060Z</time>
      </trkpt>
      <trkpt lat="43.99526" lon="7.19591">
        <ele>1442</ele>
        <time>2016-01-23T13:05:28.060Z</time>
      </trkpt>
      <trkpt lat="43.99537" lon="7.19589">
        <ele>1438</ele>
        <time>2016-01-23T13:05:33.060Z</time>
      </trkpt>
      <trkpt lat="43.99547" lon="7.19587">
        <ele>1434</ele>
        <time>2016-01-23T13:05:37.060Z</time>
      </trkpt>
      <trkpt lat="43.9956" lon="7.19589">
        <ele>1431</ele>
        <time>2016-01-23T13:05:43.060Z</time>
      </trkpt>
      <trkpt lat="43.9957" lon="7.19595">
        <ele>1429.4899968</ele>
        <time>2016-01-23T13:05:48.060Z</time>
      </trkpt>
      <trkpt lat="43.9958" lon="7.19601">
        <ele>1428</ele>
        <time>2016-01-23T13:05:54.060Z</time>
      </trkpt>
      <trkpt lat="43.99589" lon="7.19608">
        <ele>1426</ele>
        <time>2016-01-23T13:05:59.060Z</time>
      </trkpt>
      <trkpt lat="43.99595" lon="7.19622">
        <ele>1423</ele>
        <time>2016-01-23T13:06:03.060Z</time>
      </trkpt>
      <trkpt lat="43.99601" lon="7.19635">
        <ele>1423</ele>
        <time>2016-01-23T13:06:07.060Z</time>
      </trkpt>
      <trkpt lat="43.99608" lon="7.19645">
        <ele>1423</ele>
        <time>2016-01-23T13:06:11.060Z</time>
      </trkpt>
      <trkpt lat="43.99618" lon="7.19655">
        <ele>1423</ele>
        <time>2016-01-23T13:06:17.060Z</time>
      </trkpt>
      <trkpt lat="43.99627" lon="7.19662">
        <ele>1422</ele>
        <time>2016-01-23T13:06:22.060Z</time>
      </trkpt>
      <trkpt lat="43.99636" lon="7.19673">
        <ele>1422</ele>
        <time>2016-01-23T13:06:27.060Z</time>
      </trkpt>
      <trkpt lat="43.99645" lon="7.19681">
        <ele>1419</ele>
        <time>2016-01-23T13:06:32.060Z</time>
      </trkpt>
      <trkpt lat="43.99655" lon="7.19689">
        <ele>1417</ele>
        <time>2016-01-23T13:06:38.060Z</time>
      </trkpt>
      <trkpt lat="43.99663" lon="7.19695">
        <ele>1416</ele>
        <time>2016-01-23T13:06:42.060Z</time>
      </trkpt>
      <trkpt lat="43.99673" lon="7.19702">
        <ele>1414.9799936</ele>
        <time>2016-01-23T13:06:46.060Z</time>
      </trkpt>
      <trkpt lat="43.99682" lon="7.19707">
        <ele>1413</ele>
        <time>2016-01-23T13:06:52.060Z</time>
      </trkpt>
      <trkpt lat="43.99692" lon="7.19713">
        <ele>1412</ele>
        <time>2016-01-23T13:07:01.060Z</time>
      </trkpt>
      <trkpt lat="43.99702" lon="7.19716">
        <ele>1412</ele>
        <time>2016-01-23T13:07:06.060Z</time>
      </trkpt>
      <trkpt lat="43.99713" lon="7.19715">
        <ele>1411</ele>
        <time>2016-01-23T13:07:12.060Z</time>
      </trkpt>
      <trkpt lat="43.99724" lon="7.19716">
        <ele>1411</ele>
        <time>2016-01-23T13:07:17.060Z</time>
      </trkpt>
      <trkpt lat="43.99734" lon="7.19719">
        <ele>1406</ele>
        <time>2016-01-23T13:07:25.060Z</time>
      </trkpt>
      <trkpt lat="43.99745" lon="7.1972">
        <ele>1402</ele>
        <time>2016-01-23T13:07:32.060Z</time>
      </trkpt>
      <trkpt lat="43.99755" lon="7.19721">
        <ele>1399</ele>
        <time>2016-01-23T13:07:43.060Z</time>
      </trkpt>
      <trkpt lat="43.99766" lon="7.19722">
        <ele>1398</ele>
        <time>2016-01-23T13:07:49.060Z</time>
      </trkpt>
      <trkpt lat="43.99776" lon="7.19722">
        <ele>1396</ele>
        <time>2016-01-23T13:07:54.060Z</time>
      </trkpt>
      <trkpt lat="43.99787" lon="7.19722">
        <ele>1391.9800192</ele>
        <time>2016-01-23T13:08:01.060Z</time>
      </trkpt>
      <trkpt lat="43.99798" lon="7.1972">
        <ele>1390</ele>
        <time>2016-01-23T13:08:09.060Z</time>
      </trkpt>
      <trkpt lat="43.99809" lon="7.19717">
        <ele>1389</ele>
        <time>2016-01-23T13:08:15.060Z</time>
      </trkpt>
      <trkpt lat="43.99821" lon="7.19713">
        <ele>1389</ele>
        <time>2016-01-23T13:08:20.060Z</time>
      </trkpt>
      <trkpt lat="43.99831" lon="7.19716">
        <ele>1387</ele>
        <time>2016-01-23T13:08:24.060Z</time>
      </trkpt>
      <trkpt lat="43.99841" lon="7.19718">
        <ele>1384.9600384</ele>
        <time>2016-01-23T13:08:31.060Z</time>
      </trkpt>
      <trkpt lat="43.99851" lon="7.19722">
        <ele>1381</ele>
        <time>2016-01-23T13:08:39.060Z</time>
      </trkpt>
      <trkpt lat="43.99861" lon="7.1972">
        <ele>1377.4699904</ele>
        <time>2016-01-23T13:08:46.060Z</time>
      </trkpt>
      <trkpt lat="43.99872" lon="7.19714">
        <ele>1375.4900096</ele>
        <time>2016-01-23T13:08:51.060Z</time>
      </trkpt>
      <trkpt lat="43.99881" lon="7.19709">
        <ele>1375</ele>
        <time>2016-01-23T13:08:55.060Z</time>
      </trkpt>
      <trkpt lat="43.99892" lon="7.19705">
        <ele>1372</ele>
        <time>2016-01-23T13:09:00.060Z</time>
      </trkpt>
      <trkpt lat="43.99902" lon="7.19702">
        <ele>1370</ele>
        <time>2016-01-23T13:09:05.060Z</time>
      </trkpt>
      <trkpt lat="43.99911" lon="7.19695">
        <ele>1367.9800192</ele>
        <time>2016-01-23T13:09:11.060Z</time>
      </trkpt>
      <trkpt lat="43.99917" lon="7.19684">
        <ele>1366</ele>
        <time>2016-01-23T13:09:20.060Z</time>
      </trkpt>
      <trkpt lat="43.99924" lon="7.19684">
        <ele>1360</ele>
        <time>2016-01-23T13:10:01.060Z</time>
      </trkpt>
      <trkpt lat="43.99931" lon="7.19674">
        <ele>1359</ele>
        <time>2016-01-23T13:10:25.060Z</time>
      </trkpt>
      <trkpt lat="43.99937" lon="7.1966">
        <ele>1356</ele>
        <time>2016-01-23T13:10:34.060Z</time>
      </trkpt>
      <trkpt lat="43.99943" lon="7.19647">
        <ele>1352</ele>
        <time>2016-01-23T13:10:42.060Z</time>
      </trkpt>
      <trkpt lat="43.99949" lon="7.19636">
        <ele>1348</ele>
        <time>2016-01-23T13:10:52.060Z</time>
      </trkpt>
      <trkpt lat="43.99959" lon="7.19634">
        <ele>1346</ele>
        <time>2016-01-23T13:11:05.060Z</time>
      </trkpt>
      <trkpt lat="43.9997" lon="7.1963">
        <ele>1346</ele>
        <time>2016-01-23T13:11:11.060Z</time>
      </trkpt>
      <trkpt lat="43.99981" lon="7.19628">
        <ele>1346</ele>
        <time>2016-01-23T13:11:19.060Z</time>
      </trkpt>
      <trkpt lat="43.99992" lon="7.19626">
        <ele>1346</ele>
        <time>2016-01-23T13:11:24.060Z</time>
      </trkpt>
      <trkpt lat="44.00004" lon="7.19625">
        <ele>1346</ele>
        <time>2016-01-23T13:11:29.060Z</time>
      </trkpt>
      <trkpt lat="44.00014" lon="7.19624">
        <ele>1345</ele>
        <time>2016-01-23T13:11:33.060Z</time>
      </trkpt>
      <trkpt lat="44.00025" lon="7.19626">
        <ele>1345</ele>
        <time>2016-01-23T13:11:37.060Z</time>
      </trkpt>
      <trkpt lat="44.00037" lon="7.1963">
        <ele>1344</ele>
        <time>2016-01-23T13:11:42.060Z</time>
      </trkpt>
      <trkpt lat="44.00048" lon="7.19633">
        <ele>1344</ele>
        <time>2016-01-23T13:11:47.060Z</time>
      </trkpt>
      <trkpt lat="44.00058" lon="7.19641">
        <ele>1345</ele>
        <time>2016-01-23T13:11:52.060Z</time>
      </trkpt>
      <trkpt lat="44.00067" lon="7.19649">
        <ele>1345</ele>
        <time>2016-01-23T13:11:56.060Z</time>
      </trkpt>
      <trkpt lat="44.00076" lon="7.19658">
        <ele>1345</ele>
        <time>2016-01-23T13:12:00.060Z</time>
      </trkpt>
      <trkpt lat="44.00083" lon="7.19668">
        <ele>1346</ele>
        <time>2016-01-23T13:12:04.060Z</time>
      </trkpt>
      <trkpt lat="44.00091" lon="7.19682">
        <ele>1346</ele>
        <time>2016-01-23T13:12:08.060Z</time>
      </trkpt>
      <trkpt lat="44.00096" lon="7.19693">
        <ele>1346</ele>
        <time>2016-01-23T13:12:12.060Z</time>
      </trkpt>
      <trkpt lat="44.001" lon="7.19707">
        <ele>1346</ele>
        <time>2016-01-23T13:12:17.060Z</time>
      </trkpt>
      <trkpt lat="44.00103" lon="7.19722">
        <ele>1347</ele>
        <time>2016-01-23T13:12:22.060Z</time>
      </trkpt>
      <trkpt lat="44.00106" lon="7.19737">
        <ele>1347</ele>
        <time>2016-01-23T13:12:27.060Z</time>
      </trkpt>
      <trkpt lat="44.00109" lon="7.19752">
        <ele>1348</ele>
        <time>2016-01-23T13:12:32.060Z</time>
      </trkpt>
      <trkpt lat="44.00114" lon="7.19765">
        <ele>1348</ele>
        <time>2016-01-23T13:12:37.060Z</time>
      </trkpt>
      <trkpt lat="44.00122" lon="7.19777">
        <ele>1348</ele>
        <time>2016-01-23T13:12:43.060Z</time>
      </trkpt>
      <trkpt lat="44.00131" lon="7.19786">
        <ele>1348</ele>
        <time>2016-01-23T13:12:49.060Z</time>
      </trkpt>
      <trkpt lat="44.00141" lon="7.19794">
        <ele>1349</ele>
        <time>2016-01-23T13:12:55.060Z</time>
      </trkpt>
      <trkpt lat="44.00152" lon="7.19798">
        <ele>1349</ele>
        <time>2016-01-23T13:13:00.060Z</time>
      </trkpt>
      <trkpt lat="44.00162" lon="7.19803">
        <ele>1350</ele>
        <time>2016-01-23T13:13:05.060Z</time>
      </trkpt>
      <trkpt lat="44.00173" lon="7.19808">
        <ele>1350</ele>
        <time>2016-01-23T13:13:10.060Z</time>
      </trkpt>
      <trkpt lat="44.00183" lon="7.19811">
        <ele>1351</ele>
        <time>2016-01-23T13:13:15.060Z</time>
      </trkpt>
      <trkpt lat="44.00193" lon="7.19812">
        <ele>1351</ele>
        <time>2016-01-23T13:13:20.060Z</time>
      </trkpt>
      <trkpt lat="44.00203" lon="7.19814">
        <ele>1352</ele>
        <time>2016-01-23T13:13:25.060Z</time>
      </trkpt>
      <trkpt lat="44.00215" lon="7.19812">
        <ele>1352</ele>
        <time>2016-01-23T13:13:30.060Z</time>
      </trkpt>
      <trkpt lat="44.00225" lon="7.19811">
        <ele>1353</ele>
        <time>2016-01-23T13:13:35.060Z</time>
      </trkpt>
      <trkpt lat="44.00237" lon="7.1981">
        <ele>1353</ele>
        <time>2016-01-23T13:13:40.060Z</time>
      </trkpt>
      <trkpt lat="44.00247" lon="7.19806">
        <ele>1353</ele>
        <time>2016-01-23T13:13:45.060Z</time>
      </trkpt>
      <trkpt lat="44.00258" lon="7.19802">
        <ele>1353</ele>
        <time>2016-01-23T13:13:49.060Z</time>
      </trkpt>
      <trkpt lat="44.00269" lon="7.19798">
        <ele>1353</ele>
        <time>2016-01-23T13:13:53.060Z</time>
      </trkpt>
      <trkpt lat="44.0028" lon="7.19795">
        <ele>1353</ele>
        <time>2016-01-23T13:13:59.060Z</time>
      </trkpt>
      <trkpt lat="44.0029" lon="7.1979">
        <ele>1353</ele>
        <time>2016-01-23T13:14:03.060Z</time>
      </trkpt>
      <trkpt lat="44.00301" lon="7.19787">
        <ele>1353</ele>
        <time>2016-01-23T13:14:08.060Z</time>
      </trkpt>
      <trkpt lat="44.00312" lon="7.19784">
        <ele>1353</ele>
        <time>2016-01-23T13:14:17.060Z</time>
      </trkpt>
      <trkpt lat="44.00322" lon="7.19789">
        <ele>1353</ele>
        <time>2016-01-23T13:14:25.060Z</time>
      </trkpt>
      <trkpt lat="44.00332" lon="7.19794">
        <ele>1353</ele>
        <time>2016-01-23T13:14:35.060Z</time>
      </trkpt>
      <trkpt lat="44.00341" lon="7.19798">
        <ele>1353</ele>
        <time>2016-01-23T13:14:43.060Z</time>
      </trkpt>
      <trkpt lat="44.0035" lon="7.19805">
        <ele>1353</ele>
        <time>2016-01-23T13:14:51.060Z</time>
      </trkpt>
      <trkpt lat="44.00358" lon="7.19814">
        <ele>1353</ele>
        <time>2016-01-23T13:14:59.060Z</time>
      </trkpt>
      <trkpt lat="44.00365" lon="7.19824">
        <ele>1353</ele>
        <time>2016-01-23T13:15:07.060Z</time>
      </trkpt>
      <trkpt lat="44.00372" lon="7.19834">
        <ele>1354</ele>
        <time>2016-01-23T13:15:15.060Z</time>
      </trkpt>
      <trkpt lat="44.00379" lon="7.19845">
        <ele>1354</ele>
        <time>2016-01-23T13:15:22.060Z</time>
      </trkpt>
      <trkpt lat="44.00385" lon="7.19852">
        <ele>1354</ele>
        <time>2016-01-23T13:15:27.060Z</time>
      </trkpt>
      <trkpt lat="44.00392" lon="7.19861">
        <ele>1354</ele>
        <time>2016-01-23T13:15:32.060Z</time>
      </trkpt>
      <trkpt lat="44.004" lon="7.19871">
        <ele>1354</ele>
        <time>2016-01-23T13:15:36.060Z</time>
      </trkpt>
      <trkpt lat="44.00408" lon="7.19881">
        <ele>1354</ele>
        <time>2016-01-23T13:15:41.060Z</time>
      </trkpt>
      <trkpt lat="44.00416" lon="7.1989">
        <ele>1354</ele>
        <time>2016-01-23T13:15:45.060Z</time>
      </trkpt>
      <trkpt lat="44.00423" lon="7.19899">
        <ele>1354</ele>
        <time>2016-01-23T13:15:49.060Z</time>
      </trkpt>
      <trkpt lat="44.0043" lon="7.1991">
        <ele>1355</ele>
        <time>2016-01-23T13:15:53.060Z</time>
      </trkpt>
      <trkpt lat="44.00439" lon="7.1992">
        <ele>1355</ele>
        <time>2016-01-23T13:15:58.060Z</time>
      </trkpt>
      <trkpt lat="44.00447" lon="7.19929">
        <ele>1356</ele>
        <time>2016-01-23T13:16:02.060Z</time>
      </trkpt>
      <trkpt lat="44.00453" lon="7.19941">
        <ele>1356</ele>
        <time>2016-01-23T13:16:06.060Z</time>
      </trkpt>
      <trkpt lat="44.00456" lon="7.19955">
        <ele>1356</ele>
        <time>2016-01-23T13:16:10.060Z</time>
      </trkpt>
      <trkpt lat="44.00457" lon="7.19968">
        <ele>1356</ele>
        <time>2016-01-23T13:16:14.060Z</time>
      </trkpt>
      <trkpt lat="44.0046" lon="7.19982">
        <ele>1356</ele>
        <time>2016-01-23T13:16:18.060Z</time>
      </trkpt>
      <trkpt lat="44.00466" lon="7.19992">
        <ele>1356</ele>
        <time>2016-01-23T13:16:22.060Z</time>
      </trkpt>
      <trkpt lat="44.00474" lon="7.20004">
        <ele>1356</ele>
        <time>2016-01-23T13:16:27.060Z</time>
      </trkpt>
      <trkpt lat="44.0048" lon="7.20012">
        <ele>1356</ele>
        <time>2016-01-23T13:16:31.060Z</time>
      </trkpt>
      <trkpt lat="44.00488" lon="7.20019">
        <ele>1356</ele>
        <time>2016-01-23T13:16:35.060Z</time>
      </trkpt>
      <trkpt lat="44.00495" lon="7.20027">
        <ele>1356</ele>
        <time>2016-01-23T13:16:39.060Z</time>
      </trkpt>
      <trkpt lat="44.00502" lon="7.20035">
        <ele>1356</ele>
        <time>2016-01-23T13:16:43.060Z</time>
      </trkpt>
      <trkpt lat="44.00513" lon="7.20044">
        <ele>1356</ele>
        <time>2016-01-23T13:16:49.060Z</time>
      </trkpt>
      <trkpt lat="44.00522" lon="7.20053">
        <ele>1356</ele>
        <time>2016-01-23T13:16:54.060Z</time>
      </trkpt>
      <trkpt lat="44.00528" lon="7.20063">
        <ele>1356</ele>
        <time>2016-01-23T13:16:58.060Z</time>
      </trkpt>
      <trkpt lat="44.00535" lon="7.20074">
        <ele>1357</ele>
        <time>2016-01-23T13:17:02.060Z</time>
      </trkpt>
      <trkpt lat="44.0054" lon="7.20085">
        <ele>1357</ele>
        <time>2016-01-23T13:17:06.060Z</time>
      </trkpt>
      <trkpt lat="44.00544" lon="7.20097">
        <ele>1357</ele>
        <time>2016-01-23T13:17:10.060Z</time>
      </trkpt>
      <trkpt lat="44.00545" lon="7.20113">
        <ele>1357</ele>
        <time>2016-01-23T13:17:15.060Z</time>
      </trkpt>
      <trkpt lat="44.00547" lon="7.20128">
        <ele>1357</ele>
        <time>2016-01-23T13:17:20.060Z</time>
      </trkpt>
      <trkpt lat="44.00546" lon="7.20142">
        <ele>1358</ele>
        <time>2016-01-23T13:17:25.060Z</time>
      </trkpt>
      <trkpt lat="44.00547" lon="7.20158">
        <ele>1358</ele>
        <time>2016-01-23T13:17:30.060Z</time>
      </trkpt>
      <trkpt lat="44.00547" lon="7.20173">
        <ele>1359</ele>
        <time>2016-01-23T13:17:35.060Z</time>
      </trkpt>
      <trkpt lat="44.00545" lon="7.20187">
        <ele>1359</ele>
        <time>2016-01-23T13:17:39.060Z</time>
      </trkpt>
      <trkpt lat="44.00543" lon="7.20201">
        <ele>1360</ele>
        <time>2016-01-23T13:17:43.060Z</time>
      </trkpt>
      <trkpt lat="44.00538" lon="7.20215">
        <ele>1360</ele>
        <time>2016-01-23T13:17:48.060Z</time>
      </trkpt>
      <trkpt lat="44.00533" lon="7.2023">
        <ele>1360</ele>
        <time>2016-01-23T13:17:53.060Z</time>
      </trkpt>
      <trkpt lat="44.00529" lon="7.20244">
        <ele>1360</ele>
        <time>2016-01-23T13:17:58.060Z</time>
      </trkpt>
      <trkpt lat="44.00525" lon="7.20259">
        <ele>1360</ele>
        <time>2016-01-23T13:18:03.060Z</time>
      </trkpt>
      <trkpt lat="44.00522" lon="7.20274">
        <ele>1360</ele>
        <time>2016-01-23T13:18:08.060Z</time>
      </trkpt>
      <trkpt lat="44.00521" lon="7.20289">
        <ele>1360</ele>
        <time>2016-01-23T13:18:13.060Z</time>
      </trkpt>
      <trkpt lat="44.0052" lon="7.20306">
        <ele>1360</ele>
        <time>2016-01-23T13:18:18.060Z</time>
      </trkpt>
      <trkpt lat="44.00523" lon="7.20321">
        <ele>1362</ele>
        <time>2016-01-23T13:18:23.060Z</time>
      </trkpt>
      <trkpt lat="44.00526" lon="7.20337">
        <ele>1362</ele>
        <time>2016-01-23T13:18:28.060Z</time>
      </trkpt>
      <trkpt lat="44.00528" lon="7.20351">
        <ele>1362</ele>
        <time>2016-01-23T13:18:33.060Z</time>
      </trkpt>
      <trkpt lat="44.00531" lon="7.20366">
        <ele>1362</ele>
        <time>2016-01-23T13:18:38.060Z</time>
      </trkpt>
      <trkpt lat="44.00533" lon="7.20381">
        <ele>1362</ele>
        <time>2016-01-23T13:18:43.060Z</time>
      </trkpt>
      <trkpt lat="44.00534" lon="7.20397">
        <ele>1362</ele>
        <time>2016-01-23T13:18:48.060Z</time>
      </trkpt>
      <trkpt lat="44.00532" lon="7.20413">
        <ele>1362</ele>
        <time>2016-01-23T13:18:53.060Z</time>
      </trkpt>
      <trkpt lat="44.0053" lon="7.20428">
        <ele>1362</ele>
        <time>2016-01-23T13:18:58.060Z</time>
      </trkpt>
      <trkpt lat="44.00528" lon="7.20444">
        <ele>1363</ele>
        <time>2016-01-23T13:19:03.060Z</time>
      </trkpt>
      <trkpt lat="44.00527" lon="7.20459">
        <ele>1363</ele>
        <time>2016-01-23T13:19:08.060Z</time>
      </trkpt>
      <trkpt lat="44.00526" lon="7.20474">
        <ele>1363</ele>
        <time>2016-01-23T13:19:13.060Z</time>
      </trkpt>
      <trkpt lat="44.00528" lon="7.2049">
        <ele>1363</ele>
        <time>2016-01-23T13:19:18.060Z</time>
      </trkpt>
      <trkpt lat="44.00528" lon="7.20507">
        <ele>1364</ele>
        <time>2016-01-23T13:19:23.060Z</time>
      </trkpt>
      <trkpt lat="44.00526" lon="7.20523">
        <ele>1364</ele>
        <time>2016-01-23T13:19:28.060Z</time>
      </trkpt>
      <trkpt lat="44.00524" lon="7.20537">
        <ele>1364</ele>
        <time>2016-01-23T13:19:39.060Z</time>
      </trkpt>
      <trkpt lat="44.00518" lon="7.20546">
        <ele>1364</ele>
        <time>2016-01-23T13:19:48.060Z</time>
      </trkpt>
      <trkpt lat="44.00514" lon="7.20556">
        <ele>1365</ele>
        <time>2016-01-23T13:20:12.060Z</time>
      </trkpt>
      <trkpt lat="44.00508" lon="7.20565">
        <ele>1365</ele>
        <time>2016-01-23T13:20:21.060Z</time>
      </trkpt>
      <trkpt lat="44.00511" lon="7.20554">
        <ele>1365</ele>
        <time>2016-01-23T13:20:42.060Z</time>
      </trkpt>
      <trkpt lat="44.00515" lon="7.20544">
        <ele>1365</ele>
        <time>2016-01-23T13:20:48.060Z</time>
      </trkpt>
      <trkpt lat="44.0052" lon="7.20531">
        <ele>1364</ele>
        <time>2016-01-23T13:20:56.060Z</time>
      </trkpt>
      <trkpt lat="44.00523" lon="7.20514">
        <ele>1364</ele>
        <time>2016-01-23T13:21:03.060Z</time>
      </trkpt>
      <trkpt lat="44.00525" lon="7.20501">
        <ele>1364</ele>
        <time>2016-01-23T13:21:07.060Z</time>
      </trkpt>
      <trkpt lat="44.00527" lon="7.20487">
        <ele>1364</ele>
        <time>2016-01-23T13:21:13.060Z</time>
      </trkpt>
      <trkpt lat="44.00527" lon="7.20471">
        <ele>1364</ele>
        <time>2016-01-23T13:21:21.060Z</time>
      </trkpt>
      <trkpt lat="44.00529" lon="7.20454">
        <ele>1364</ele>
        <time>2016-01-23T13:21:26.060Z</time>
      </trkpt>
      <trkpt lat="44.00531" lon="7.20438">
        <ele>1364</ele>
        <time>2016-01-23T13:21:30.060Z</time>
      </trkpt>
      <trkpt lat="44.00533" lon="7.20423">
        <ele>1364</ele>
        <time>2016-01-23T13:21:34.060Z</time>
      </trkpt>
      <trkpt lat="44.00537" lon="7.20409">
        <ele>1364</ele>
        <time>2016-01-23T13:21:38.060Z</time>
      </trkpt>
      <trkpt lat="44.00537" lon="7.20392">
        <ele>1364</ele>
        <time>2016-01-23T13:21:43.060Z</time>
      </trkpt>
      <trkpt lat="44.00534" lon="7.20377">
        <ele>1364</ele>
        <time>2016-01-23T13:21:47.060Z</time>
      </trkpt>
      <trkpt lat="44.0053" lon="7.20363">
        <ele>1364</ele>
        <time>2016-01-23T13:21:51.060Z</time>
      </trkpt>
      <trkpt lat="44.00527" lon="7.20349">
        <ele>1364</ele>
        <time>2016-01-23T13:21:55.060Z</time>
      </trkpt>
      <trkpt lat="44.00523" lon="7.20335">
        <ele>1364</ele>
        <time>2016-01-23T13:21:59.060Z</time>
      </trkpt>
      <trkpt lat="44.0052" lon="7.20322">
        <ele>1362</ele>
        <time>2016-01-23T13:22:03.060Z</time>
      </trkpt>
      <trkpt lat="44.00517" lon="7.20306">
        <ele>1362</ele>
        <time>2016-01-23T13:22:08.060Z</time>
      </trkpt>
      <trkpt lat="44.00517" lon="7.20291">
        <ele>1362</ele>
        <time>2016-01-23T13:22:12.060Z</time>
      </trkpt>
      <trkpt lat="44.0052" lon="7.20278">
        <ele>1362</ele>
        <time>2016-01-23T13:22:16.060Z</time>
      </trkpt>
      <trkpt lat="44.00525" lon="7.20265">
        <ele>1362</ele>
        <time>2016-01-23T13:22:20.060Z</time>
      </trkpt>
      <trkpt lat="44.00531" lon="7.20251">
        <ele>1362</ele>
        <time>2016-01-23T13:22:25.060Z</time>
      </trkpt>
      <trkpt lat="44.00533" lon="7.20236">
        <ele>1362</ele>
        <time>2016-01-23T13:22:30.060Z</time>
      </trkpt>
      <trkpt lat="44.00537" lon="7.2022">
        <ele>1362</ele>
        <time>2016-01-23T13:22:34.060Z</time>
      </trkpt>
      <trkpt lat="44.00542" lon="7.20208">
        <ele>1362</ele>
        <time>2016-01-23T13:22:38.060Z</time>
      </trkpt>
      <trkpt lat="44.00546" lon="7.20194">
        <ele>1361</ele>
        <time>2016-01-23T13:22:42.060Z</time>
      </trkpt>
      <trkpt lat="44.00548" lon="7.20178">
        <ele>1361</ele>
        <time>2016-01-23T13:22:46.060Z</time>
      </trkpt>
      <trkpt lat="44.00549" lon="7.20164">
        <ele>1361</ele>
        <time>2016-01-23T13:22:50.060Z</time>
      </trkpt>
      <trkpt lat="44.00549" lon="7.20147">
        <ele>1361</ele>
        <time>2016-01-23T13:22:55.060Z</time>
      </trkpt>
      <trkpt lat="44.00549" lon="7.20134">
        <ele>1361</ele>
        <time>2016-01-23T13:22:59.060Z</time>
      </trkpt>
      <trkpt lat="44.00546" lon="7.20118">
        <ele>1360</ele>
        <time>2016-01-23T13:23:04.060Z</time>
      </trkpt>
      <trkpt lat="44.00542" lon="7.20105">
        <ele>1360</ele>
        <time>2016-01-23T13:23:08.060Z</time>
      </trkpt>
      <trkpt lat="44.00539" lon="7.20092">
        <ele>1360</ele>
        <time>2016-01-23T13:23:12.060Z</time>
      </trkpt>
      <trkpt lat="44.00536" lon="7.20079">
        <ele>1360</ele>
        <time>2016-01-23T13:23:16.060Z</time>
      </trkpt>
      <trkpt lat="44.00531" lon="7.20065">
        <ele>1360</ele>
        <time>2016-01-23T13:23:20.060Z</time>
      </trkpt>
      <trkpt lat="44.00525" lon="7.20055">
        <ele>1359</ele>
        <time>2016-01-23T13:23:24.060Z</time>
      </trkpt>
      <trkpt lat="44.00516" lon="7.20043">
        <ele>1359</ele>
        <time>2016-01-23T13:23:29.060Z</time>
      </trkpt>
      <trkpt lat="44.00507" lon="7.20034">
        <ele>1359</ele>
        <time>2016-01-23T13:23:34.060Z</time>
      </trkpt>
      <trkpt lat="44.00498" lon="7.20025">
        <ele>1359</ele>
        <time>2016-01-23T13:23:38.060Z</time>
      </trkpt>
      <trkpt lat="44.00487" lon="7.20016">
        <ele>1358</ele>
        <time>2016-01-23T13:23:43.060Z</time>
      </trkpt>
      <trkpt lat="44.0048" lon="7.20007">
        <ele>1358</ele>
        <time>2016-01-23T13:23:47.060Z</time>
      </trkpt>
      <trkpt lat="44.0047" lon="7.20002">
        <ele>1358</ele>
        <time>2016-01-23T13:23:53.060Z</time>
      </trkpt>
      <trkpt lat="44.0046" lon="7.20003">
        <ele>1358</ele>
        <time>2016-01-23T13:24:14.060Z</time>
      </trkpt>
      <trkpt lat="44.00451" lon="7.20006">
        <ele>1360</ele>
        <time>2016-01-23T13:24:34.060Z</time>
      </trkpt>
      <trkpt lat="44.00441" lon="7.20007">
        <ele>1365</ele>
        <time>2016-01-23T13:24:55.060Z</time>
      </trkpt>
      <trkpt lat="44.00437" lon="7.20013">
        <ele>1370</ele>
        <time>2016-01-23T13:25:26.060Z</time>
      </trkpt>
      <trkpt lat="44.0044" lon="7.20027">
        <ele>1374</ele>
        <time>2016-01-23T13:25:42.060Z</time>
      </trkpt>
      <trkpt lat="44.00446" lon="7.20038">
        <ele>1376</ele>
        <time>2016-01-23T13:25:54.060Z</time>
      </trkpt>
      <trkpt lat="44.00451" lon="7.20045">
        <ele>1377.0199808</ele>
        <time>2016-01-23T13:26:01.060Z</time>
      </trkpt>
      <trkpt lat="44.00457" lon="7.20052">
        <ele>1378</ele>
        <time>2016-01-23T13:26:10.060Z</time>
      </trkpt>
      <trkpt lat="44.00464" lon="7.2006">
        <ele>1380</ele>
        <time>2016-01-23T13:26:19.060Z</time>
      </trkpt>
      <trkpt lat="44.00471" lon="7.2007">
        <ele>1381</ele>
        <time>2016-01-23T13:26:30.060Z</time>
      </trkpt>
      <trkpt lat="44.00477" lon="7.20079">
        <ele>1383</ele>
        <time>2016-01-23T13:26:40.060Z</time>
      </trkpt>
      <trkpt lat="44.00482" lon="7.20089">
        <ele>1384</ele>
        <time>2016-01-23T13:26:47.060Z</time>
      </trkpt>
      <trkpt lat="44.00486" lon="7.20099">
        <ele>1385</ele>
        <time>2016-01-23T13:26:56.060Z</time>
      </trkpt>
      <trkpt lat="44.00488" lon="7.2011">
        <ele>1387</ele>
        <time>2016-01-23T13:27:05.060Z</time>
      </trkpt>
      <trkpt lat="44.00492" lon="7.20118">
        <ele>1388</ele>
        <time>2016-01-23T13:27:13.060Z</time>
      </trkpt>
      <trkpt lat="44.00493" lon="7.20128">
        <ele>1389</ele>
        <time>2016-01-23T13:27:22.060Z</time>
      </trkpt>
      <trkpt lat="44.00494" lon="7.20143">
        <ele>1391</ele>
        <time>2016-01-23T13:27:37.060Z</time>
      </trkpt>
      <trkpt lat="44.00496" lon="7.20157">
        <ele>1392</ele>
        <time>2016-01-23T13:28:57.060Z</time>
      </trkpt>
      <trkpt lat="44.00498" lon="7.20166">
        <ele>1393</ele>
        <time>2016-01-23T13:29:26.060Z</time>
      </trkpt>
      <trkpt lat="44.00497" lon="7.20181">
        <ele>1394</ele>
        <time>2016-01-23T13:29:55.060Z</time>
      </trkpt>
      <trkpt lat="44.00492" lon="7.20193">
        <ele>1397</ele>
        <time>2016-01-23T13:30:05.060Z</time>
      </trkpt>
      <trkpt lat="44.00489" lon="7.20207">
        <ele>1397</ele>
        <time>2016-01-23T13:30:28.060Z</time>
      </trkpt>
      <trkpt lat="44.00486" lon="7.20221">
        <ele>1398</ele>
        <time>2016-01-23T13:30:38.060Z</time>
      </trkpt>
      <trkpt lat="44.00481" lon="7.20234">
        <ele>1400</ele>
        <time>2016-01-23T13:30:47.060Z</time>
      </trkpt>
      <trkpt lat="44.00477" lon="7.20247">
        <ele>1401</ele>
        <time>2016-01-23T13:30:56.060Z</time>
      </trkpt>
      <trkpt lat="44.00472" lon="7.2026">
        <ele>1402</ele>
        <time>2016-01-23T13:31:06.060Z</time>
      </trkpt>
      <trkpt lat="44.00469" lon="7.20274">
        <ele>1404</ele>
        <time>2016-01-23T13:31:17.060Z</time>
      </trkpt>
      <trkpt lat="44.00465" lon="7.20288">
        <ele>1406</ele>
        <time>2016-01-23T13:31:27.060Z</time>
      </trkpt>
      <trkpt lat="44.00462" lon="7.20302">
        <ele>1408</ele>
        <time>2016-01-23T13:31:39.060Z</time>
      </trkpt>
      <trkpt lat="44.00461" lon="7.20317">
        <ele>1409</ele>
        <time>2016-01-23T13:31:50.060Z</time>
      </trkpt>
      <trkpt lat="44.00463" lon="7.20331">
        <ele>1412</ele>
        <time>2016-01-23T13:32:03.060Z</time>
      </trkpt>
      <trkpt lat="44.00462" lon="7.20346">
        <ele>1414</ele>
        <time>2016-01-23T13:32:13.060Z</time>
      </trkpt>
      <trkpt lat="44.00462" lon="7.20361">
        <ele>1415</ele>
        <time>2016-01-23T13:32:23.060Z</time>
      </trkpt>
      <trkpt lat="44.00462" lon="7.20375">
        <ele>1416</ele>
        <time>2016-01-23T13:32:35.060Z</time>
      </trkpt>
      <trkpt lat="44.0046" lon="7.20389">
        <ele>1418</ele>
        <time>2016-01-23T13:32:49.060Z</time>
      </trkpt>
      <trkpt lat="44.00457" lon="7.20403">
        <ele>1422</ele>
        <time>2016-01-23T13:33:02.060Z</time>
      </trkpt>
      <trkpt lat="44.00454" lon="7.20417">
        <ele>1423</ele>
        <time>2016-01-23T13:33:13.060Z</time>
      </trkpt>
      <trkpt lat="44.0045" lon="7.2043">
        <ele>1424</ele>
        <time>2016-01-23T13:33:24.060Z</time>
      </trkpt>
      <trkpt lat="44.00446" lon="7.20443">
        <ele>1425</ele>
        <time>2016-01-23T13:33:36.060Z</time>
      </trkpt>
      <trkpt lat="44.00439" lon="7.20454">
        <ele>1426</ele>
        <time>2016-01-23T13:33:48.060Z</time>
      </trkpt>
      <trkpt lat="44.00431" lon="7.20464">
        <ele>1428</ele>
        <time>2016-01-23T13:33:59.060Z</time>
      </trkpt>
      <trkpt lat="44.00425" lon="7.20471">
        <ele>1429</ele>
        <time>2016-01-23T13:34:08.060Z</time>
      </trkpt>
      <trkpt lat="44.00415" lon="7.20478">
        <ele>1431</ele>
        <time>2016-01-23T13:34:19.060Z</time>
      </trkpt>
      <trkpt lat="44.00408" lon="7.20483">
        <ele>1432</ele>
        <time>2016-01-23T13:34:29.060Z</time>
      </trkpt>
      <trkpt lat="44.004" lon="7.2049">
        <ele>1432</ele>
        <time>2016-01-23T13:34:38.060Z</time>
      </trkpt>
      <trkpt lat="44.00393" lon="7.20499">
        <ele>1434</ele>
        <time>2016-01-23T13:34:48.060Z</time>
      </trkpt>
      <trkpt lat="44.00385" lon="7.20509">
        <ele>1437</ele>
        <time>2016-01-23T13:34:59.060Z</time>
      </trkpt>
      <trkpt lat="44.00376" lon="7.20517">
        <ele>1438</ele>
        <time>2016-01-23T13:35:09.060Z</time>
      </trkpt>
      <trkpt lat="44.0037" lon="7.20528">
        <ele>1440.0199808</ele>
        <time>2016-01-23T13:35:21.060Z</time>
      </trkpt>
      <trkpt lat="44.00365" lon="7.2054">
        <ele>1443</ele>
        <time>2016-01-23T13:35:34.060Z</time>
      </trkpt>
      <trkpt lat="44.00362" lon="7.20553">
        <ele>1443</ele>
        <time>2016-01-23T13:35:46.060Z</time>
      </trkpt>
      <trkpt lat="44.00357" lon="7.20565">
        <ele>1445</ele>
        <time>2016-01-23T13:35:58.060Z</time>
      </trkpt>
      <trkpt lat="44.00354" lon="7.20579">
        <ele>1446</ele>
        <time>2016-01-23T13:36:10.060Z</time>
      </trkpt>
      <trkpt lat="44.00349" lon="7.20591">
        <ele>1449</ele>
        <time>2016-01-23T13:36:23.060Z</time>
      </trkpt>
      <trkpt lat="44.00345" lon="7.20605">
        <ele>1451</ele>
        <time>2016-01-23T13:36:39.060Z</time>
      </trkpt>
      <trkpt lat="44.0034" lon="7.20616">
        <ele>1452</ele>
        <time>2016-01-23T13:36:46.060Z</time>
      </trkpt>
      <trkpt lat="44.00333" lon="7.20628">
        <ele>1453</ele>
        <time>2016-01-23T13:36:57.060Z</time>
      </trkpt>
      <trkpt lat="44.00329" lon="7.20636">
        <ele>1454</ele>
        <time>2016-01-23T13:37:07.060Z</time>
      </trkpt>
      <trkpt lat="44.00322" lon="7.20647">
        <ele>1457.0199808</ele>
        <time>2016-01-23T13:37:21.060Z</time>
      </trkpt>
      <trkpt lat="44.00316" lon="7.20658">
        <ele>1458</ele>
        <time>2016-01-23T13:37:32.060Z</time>
      </trkpt>
      <trkpt lat="44.00312" lon="7.20667">
        <ele>1460</ele>
        <time>2016-01-23T13:37:45.060Z</time>
      </trkpt>
      <trkpt lat="44.00305" lon="7.20678">
        <ele>1462</ele>
        <time>2016-01-23T13:37:56.060Z</time>
      </trkpt>
      <trkpt lat="44.003" lon="7.20687">
        <ele>1462</ele>
        <time>2016-01-23T13:38:03.060Z</time>
      </trkpt>
      <trkpt lat="44.00296" lon="7.20697">
        <ele>1463</ele>
        <time>2016-01-23T13:38:14.060Z</time>
      </trkpt>
      <trkpt lat="44.00292" lon="7.20708">
        <ele>1465</ele>
        <time>2016-01-23T13:38:25.060Z</time>
      </trkpt>
      <trkpt lat="44.00286" lon="7.20721">
        <ele>1466</ele>
        <time>2016-01-23T13:38:36.060Z</time>
      </trkpt>
      <trkpt lat="44.00282" lon="7.20735">
        <ele>1467</ele>
        <time>2016-01-23T13:38:47.060Z</time>
      </trkpt>
      <trkpt lat="44.00282" lon="7.2075">
        <ele>1469</ele>
        <time>2016-01-23T13:38:57.060Z</time>
      </trkpt>
      <trkpt lat="44.0028" lon="7.20763">
        <ele>1470</ele>
        <time>2016-01-23T13:39:08.060Z</time>
      </trkpt>
      <trkpt lat="44.00275" lon="7.20775">
        <ele>1472</ele>
        <time>2016-01-23T13:39:20.060Z</time>
      </trkpt>
      <trkpt lat="44.0027" lon="7.20788">
        <ele>1475</ele>
        <time>2016-01-23T13:39:34.060Z</time>
      </trkpt>
      <trkpt lat="44.00266" lon="7.20801">
        <ele>1477</ele>
        <time>2016-01-23T13:39:44.060Z</time>
      </trkpt>
      <trkpt lat="44.00262" lon="7.20813">
        <ele>1479</ele>
        <time>2016-01-23T13:39:53.060Z</time>
      </trkpt>
      <trkpt lat="44.00258" lon="7.20827">
        <ele>1480</ele>
        <time>2016-01-23T13:40:02.060Z</time>
      </trkpt>
      <trkpt lat="44.00256" lon="7.20841">
        <ele>1480.5099904</ele>
        <time>2016-01-23T13:40:11.060Z</time>
      </trkpt>
      <trkpt lat="44.00255" lon="7.20854">
        <ele>1481</ele>
        <time>2016-01-23T13:40:18.060Z</time>
      </trkpt>
      <trkpt lat="44.00258" lon="7.20865">
        <ele>1481</ele>
        <time>2016-01-23T13:40:25.060Z</time>
      </trkpt>
      <trkpt lat="44.00261" lon="7.20876">
        <ele>1481</ele>
        <time>2016-01-23T13:40:32.060Z</time>
      </trkpt>
      <trkpt lat="44.00263" lon="7.20887">
        <ele>1481</ele>
        <time>2016-01-23T13:40:39.060Z</time>
      </trkpt>
      <trkpt lat="44.00266" lon="7.209">
        <ele>1481</ele>
        <time>2016-01-23T13:40:46.060Z</time>
      </trkpt>
      <trkpt lat="44.00266" lon="7.20908">
        <ele>1481</ele>
        <time>2016-01-23T13:41:38.060Z</time>
      </trkpt>
      <trkpt lat="44.00261" lon="7.20913">
        <ele>1481</ele>
        <time>2016-01-23T13:42:46.060Z</time>
      </trkpt>
      <trkpt lat="44.00255" lon="7.20922">
        <ele>1481</ele>
        <time>2016-01-23T13:42:53.060Z</time>
      </trkpt>
      <trkpt lat="44.00248" lon="7.20933">
        <ele>1481</ele>
        <time>2016-01-23T13:42:57.060Z</time>
      </trkpt>
      <trkpt lat="44.00243" lon="7.20944">
        <ele>1477.9703444605</ele>
        <time>2016-01-23T13:43:01.060Z</time>
      </trkpt>
      <trkpt lat="44.00237" lon="7.20954">
        <ele>1474</ele>
        <time>2016-01-23T13:43:05.060Z</time>
      </trkpt>
      <trkpt lat="44.00228" lon="7.20962">
        <ele>1472.4900096</ele>
        <time>2016-01-23T13:43:09.060Z</time>
      </trkpt>
      <trkpt lat="44.00217" lon="7.20965">
        <ele>1471</ele>
        <time>2016-01-23T13:43:14.060Z</time>
      </trkpt>
      <trkpt lat="44.00221" lon="7.20949">
        <ele>1469</ele>
        <time>2016-01-23T13:43:20.060Z</time>
      </trkpt>
      <trkpt lat="44.00226" lon="7.20935">
        <ele>1466.4699904</ele>
        <time>2016-01-23T13:43:26.060Z</time>
      </trkpt>
      <trkpt lat="44.00227" lon="7.2092">
        <ele>1462.4899968</ele>
        <time>2016-01-23T13:43:32.060Z</time>
      </trkpt>
      <trkpt lat="44.00227" lon="7.20904">
        <ele>1460</ele>
        <time>2016-01-23T13:43:38.060Z</time>
      </trkpt>
      <trkpt lat="44.00225" lon="7.20889">
        <ele>1459</ele>
        <time>2016-01-23T13:43:43.060Z</time>
      </trkpt>
      <trkpt lat="44.00218" lon="7.20877">
        <ele>1458</ele>
        <time>2016-01-23T13:43:48.060Z</time>
      </trkpt>
      <trkpt lat="44.00213" lon="7.20864">
        <ele>1456</ele>
        <time>2016-01-23T13:43:52.060Z</time>
      </trkpt>
      <trkpt lat="44.00206" lon="7.2085">
        <ele>1454</ele>
        <time>2016-01-23T13:43:57.060Z</time>
      </trkpt>
      <trkpt lat="44.00199" lon="7.2084">
        <ele>1453</ele>
        <time>2016-01-23T13:44:03.060Z</time>
      </trkpt>
      <trkpt lat="44.002" lon="7.20854">
        <ele>1448</ele>
        <time>2016-01-23T13:44:17.060Z</time>
      </trkpt>
      <trkpt lat="44.00202" lon="7.20868">
        <ele>1447</ele>
        <time>2016-01-23T13:44:23.060Z</time>
      </trkpt>
      <trkpt lat="44.00201" lon="7.20883">
        <ele>1444</ele>
        <time>2016-01-23T13:44:32.060Z</time>
      </trkpt>
      <trkpt lat="44.00193" lon="7.20892">
        <ele>1443</ele>
        <time>2016-01-23T13:44:38.060Z</time>
      </trkpt>
      <trkpt lat="44.00185" lon="7.2088">
        <ele>1440</ele>
        <time>2016-01-23T13:44:48.060Z</time>
      </trkpt>
      <trkpt lat="44.00178" lon="7.20866">
        <ele>1438</ele>
        <time>2016-01-23T13:44:53.060Z</time>
      </trkpt>
      <trkpt lat="44.00171" lon="7.20856">
        <ele>1436</ele>
        <time>2016-01-23T13:44:59.060Z</time>
      </trkpt>
      <trkpt lat="44.0016" lon="7.2086">
        <ele>1433</ele>
        <time>2016-01-23T13:45:05.060Z</time>
      </trkpt>
      <trkpt lat="44.00151" lon="7.20867">
        <ele>1432</ele>
        <time>2016-01-23T13:45:10.060Z</time>
      </trkpt>
      <trkpt lat="44.00148" lon="7.20851">
        <ele>1428</ele>
        <time>2016-01-23T13:45:20.060Z</time>
      </trkpt>
      <trkpt lat="44.0015" lon="7.20834">
        <ele>1427</ele>
        <time>2016-01-23T13:45:25.060Z</time>
      </trkpt>
      <trkpt lat="44.0015" lon="7.20818">
        <ele>1425</ele>
        <time>2016-01-23T13:45:30.060Z</time>
      </trkpt>
      <trkpt lat="44.0015" lon="7.20803">
        <ele>1422</ele>
        <time>2016-01-23T13:45:35.060Z</time>
      </trkpt>
      <trkpt lat="44.00145" lon="7.20788">
        <ele>1421</ele>
        <time>2016-01-23T13:45:40.060Z</time>
      </trkpt>
      <trkpt lat="44.00138" lon="7.20777">
        <ele>1418</ele>
        <time>2016-01-23T13:45:44.060Z</time>
      </trkpt>
      <trkpt lat="44.00133" lon="7.20764">
        <ele>1415</ele>
        <time>2016-01-23T13:45:48.060Z</time>
      </trkpt>
      <trkpt lat="44.00132" lon="7.20748">
        <ele>1414</ele>
        <time>2016-01-23T13:45:53.060Z</time>
      </trkpt>
      <trkpt lat="44.00129" lon="7.20763">
        <ele>1410</ele>
        <time>2016-01-23T13:46:05.060Z</time>
      </trkpt>
      <trkpt lat="44.00129" lon="7.20776">
        <ele>1410</ele>
        <time>2016-01-23T13:46:10.060Z</time>
      </trkpt>
      <trkpt lat="44.00125" lon="7.20761">
        <ele>1408</ele>
        <time>2016-01-23T13:46:18.060Z</time>
      </trkpt>
      <trkpt lat="44.00118" lon="7.20748">
        <ele>1405</ele>
        <time>2016-01-23T13:46:24.060Z</time>
      </trkpt>
      <trkpt lat="44.00113" lon="7.20736">
        <ele>1403</ele>
        <time>2016-01-23T13:46:30.060Z</time>
      </trkpt>
      <trkpt lat="44.00104" lon="7.20726">
        <ele>1403</ele>
        <time>2016-01-23T13:46:35.060Z</time>
      </trkpt>
      <trkpt lat="44.00097" lon="7.20716">
        <ele>1400</ele>
        <time>2016-01-23T13:46:39.060Z</time>
      </trkpt>
      <trkpt lat="44.00089" lon="7.20705">
        <ele>1398</ele>
        <time>2016-01-23T13:46:44.060Z</time>
      </trkpt>
      <trkpt lat="44.00084" lon="7.20697">
        <ele>1394</ele>
        <time>2016-01-23T13:46:52.060Z</time>
      </trkpt>
      <trkpt lat="44.00076" lon="7.20692">
        <ele>1391.4700288</ele>
        <time>2016-01-23T13:47:01.060Z</time>
      </trkpt>
      <trkpt lat="44.0008" lon="7.20707">
        <ele>1389</ele>
        <time>2016-01-23T13:47:14.060Z</time>
      </trkpt>
      <trkpt lat="44.00071" lon="7.207">
        <ele>1384</ele>
        <time>2016-01-23T13:47:29.060Z</time>
      </trkpt>
      <trkpt lat="44.00061" lon="7.20696">
        <ele>1382</ele>
        <time>2016-01-23T13:47:34.060Z</time>
      </trkpt>
      <trkpt lat="44.0005" lon="7.20692">
        <ele>1380</ele>
        <time>2016-01-23T13:47:39.060Z</time>
      </trkpt>
      <trkpt lat="44.0004" lon="7.20691">
        <ele>1378</ele>
        <time>2016-01-23T13:47:44.060Z</time>
      </trkpt>
      <trkpt lat="44.0003" lon="7.2069">
        <ele>1376</ele>
        <time>2016-01-23T13:47:50.060Z</time>
      </trkpt>
      <trkpt lat="44.0002" lon="7.20683">
        <ele>1374</ele>
        <time>2016-01-23T13:47:59.060Z</time>
      </trkpt>
      <trkpt lat="44.0001" lon="7.20677">
        <ele>1371.4899968</ele>
        <time>2016-01-23T13:48:06.060Z</time>
      </trkpt>
      <trkpt lat="43.99998" lon="7.20673">
        <ele>1369.9800192</ele>
        <time>2016-01-23T13:48:11.060Z</time>
      </trkpt>
      <trkpt lat="43.99989" lon="7.20668">
        <ele>1367.4699904</ele>
        <time>2016-01-23T13:48:16.060Z</time>
      </trkpt>
      <trkpt lat="43.99977" lon="7.20663">
        <ele>1364.9800192</ele>
        <time>2016-01-23T13:48:21.060Z</time>
      </trkpt>
      <trkpt lat="43.99968" lon="7.20657">
        <ele>1363.4899968</ele>
        <time>2016-01-23T13:48:26.060Z</time>
      </trkpt>
      <trkpt lat="43.99958" lon="7.20648">
        <ele>1362.4900096</ele>
        <time>2016-01-23T13:48:31.060Z</time>
      </trkpt>
      <trkpt lat="43.99948" lon="7.2064">
        <ele>1362</ele>
        <time>2016-01-23T13:48:36.060Z</time>
      </trkpt>
      <trkpt lat="43.9994" lon="7.2063">
        <ele>1359</ele>
        <time>2016-01-23T13:48:42.060Z</time>
      </trkpt>
      <trkpt lat="43.99932" lon="7.20622">
        <ele>1359</ele>
        <time>2016-01-23T13:48:50.060Z</time>
      </trkpt>
      <trkpt lat="43.99922" lon="7.20621">
        <ele>1355</ele>
        <time>2016-01-23T13:48:57.060Z</time>
      </trkpt>
      <trkpt lat="43.99912" lon="7.20627">
        <ele>1353</ele>
        <time>2016-01-23T13:49:05.060Z</time>
      </trkpt>
      <trkpt lat="43.99902" lon="7.20631">
        <ele>1351</ele>
        <time>2016-01-23T13:49:17.060Z</time>
      </trkpt>
      <trkpt lat="43.99891" lon="7.20627">
        <ele>1349</ele>
        <time>2016-01-23T13:49:24.060Z</time>
      </trkpt>
      <trkpt lat="43.99881" lon="7.2062">
        <ele>1349</ele>
        <time>2016-01-23T13:49:28.060Z</time>
      </trkpt>
      <trkpt lat="43.99872" lon="7.20614">
        <ele>1347</ele>
        <time>2016-01-23T13:49:32.060Z</time>
      </trkpt>
      <trkpt lat="43.99862" lon="7.20608">
        <ele>1347</ele>
        <time>2016-01-23T13:49:37.060Z</time>
      </trkpt>
      <trkpt lat="43.9985" lon="7.20606">
        <ele>1346.4900096</ele>
        <time>2016-01-23T13:49:41.060Z</time>
      </trkpt>
      <trkpt lat="43.9984" lon="7.20605">
        <ele>1346</ele>
        <time>2016-01-23T13:49:45.060Z</time>
      </trkpt>
      <trkpt lat="43.99828" lon="7.20604">
        <ele>1346</ele>
        <time>2016-01-23T13:49:50.060Z</time>
      </trkpt>
      <trkpt lat="43.99818" lon="7.20603">
        <ele>1344</ele>
        <time>2016-01-23T13:49:54.060Z</time>
      </trkpt>
      <trkpt lat="43.99806" lon="7.20603">
        <ele>1344</ele>
        <time>2016-01-23T13:49:58.060Z</time>
      </trkpt>
      <trkpt lat="43.99795" lon="7.20599">
        <ele>1340</ele>
        <time>2016-01-23T13:50:03.060Z</time>
      </trkpt>
      <trkpt lat="43.99785" lon="7.20597">
        <ele>1339</ele>
        <time>2016-01-23T13:50:07.060Z</time>
      </trkpt>
      <trkpt lat="43.99773" lon="7.20595">
        <ele>1338</ele>
        <time>2016-01-23T13:50:12.060Z</time>
      </trkpt>
      <trkpt lat="43.99763" lon="7.20595">
        <ele>1338</ele>
        <time>2016-01-23T13:50:20.060Z</time>
      </trkpt>
      <trkpt lat="43.99752" lon="7.20592">
        <ele>1334</ele>
        <time>2016-01-23T13:50:38.060Z</time>
      </trkpt>
      <trkpt lat="43.99742" lon="7.2059">
        <ele>1331</ele>
        <time>2016-01-23T13:50:44.060Z</time>
      </trkpt>
      <trkpt lat="43.99731" lon="7.20585">
        <ele>1329</ele>
        <time>2016-01-23T13:50:49.060Z</time>
      </trkpt>
      <trkpt lat="43.99721" lon="7.20586">
        <ele>1327</ele>
        <time>2016-01-23T13:50:54.060Z</time>
      </trkpt>
      <trkpt lat="43.99711" lon="7.20585">
        <ele>1325</ele>
        <time>2016-01-23T13:50:59.060Z</time>
      </trkpt>
      <trkpt lat="43.99699" lon="7.20585">
        <ele>1322</ele>
        <time>2016-01-23T13:51:05.060Z</time>
      </trkpt>
      <trkpt lat="43.99687" lon="7.20588">
        <ele>1320</ele>
        <time>2016-01-23T13:51:10.060Z</time>
      </trkpt>
      <trkpt lat="43.99677" lon="7.2059">
        <ele>1315.4900096</ele>
        <time>2016-01-23T13:51:13.060Z</time>
      </trkpt>
      <trkpt lat="43.99688" lon="7.20592">
        <ele>1312</ele>
        <time>2016-01-23T13:51:28.060Z</time>
      </trkpt>
      <trkpt lat="43.99688" lon="7.20606">
        <ele>1307</ele>
        <time>2016-01-23T13:51:38.060Z</time>
      </trkpt>
      <trkpt lat="43.99678" lon="7.2061">
        <ele>1306</ele>
        <time>2016-01-23T13:51:44.060Z</time>
      </trkpt>
      <trkpt lat="43.99686" lon="7.20618">
        <ele>1300</ele>
        <time>2016-01-23T13:51:59.060Z</time>
      </trkpt>
      <trkpt lat="43.99679" lon="7.20628">
        <ele>1296</ele>
        <time>2016-01-23T13:52:07.060Z</time>
      </trkpt>
      <trkpt lat="43.99668" lon="7.20632">
        <ele>1295</ele>
        <time>2016-01-23T13:52:13.060Z</time>
      </trkpt>
      <trkpt lat="43.99655" lon="7.20628">
        <ele>1291.9800192</ele>
        <time>2016-01-23T13:52:21.060Z</time>
      </trkpt>
      <trkpt lat="43.99644" lon="7.20623">
        <ele>1286</ele>
        <time>2016-01-23T13:52:39.060Z</time>
      </trkpt>
      <trkpt lat="43.99635" lon="7.20617">
        <ele>1284</ele>
        <time>2016-01-23T13:52:43.060Z</time>
      </trkpt>
      <trkpt lat="43.99626" lon="7.20611">
        <ele>1282</ele>
        <time>2016-01-23T13:52:48.060Z</time>
      </trkpt>
      <trkpt lat="43.99616" lon="7.20615">
        <ele>1280</ele>
        <time>2016-01-23T13:52:55.060Z</time>
      </trkpt>
      <trkpt lat="43.99605" lon="7.20621">
        <ele>1276.4700288</ele>
        <time>2016-01-23T13:53:01.060Z</time>
      </trkpt>
      <trkpt lat="43.99593" lon="7.20627">
        <ele>1273.9799936</ele>
        <time>2016-01-23T13:53:06.060Z</time>
      </trkpt>
      <trkpt lat="43.99582" lon="7.2063">
        <ele>1270</ele>
        <time>2016-01-23T13:53:12.060Z</time>
      </trkpt>
      <trkpt lat="43.99572" lon="7.20632">
        <ele>1268</ele>
        <time>2016-01-23T13:53:17.060Z</time>
      </trkpt>
      <trkpt lat="43.9956" lon="7.2063">
        <ele>1266.9800192</ele>
        <time>2016-01-23T13:53:21.060Z</time>
      </trkpt>
      <trkpt lat="43.9955" lon="7.20627">
        <ele>1266</ele>
        <time>2016-01-23T13:53:25.060Z</time>
      </trkpt>
      <trkpt lat="43.9954" lon="7.20624">
        <ele>1264</ele>
        <time>2016-01-23T13:53:29.060Z</time>
      </trkpt>
      <trkpt lat="43.9953" lon="7.20618">
        <ele>1262</ele>
        <time>2016-01-23T13:53:34.060Z</time>
      </trkpt>
      <trkpt lat="43.99521" lon="7.2061">
        <ele>1260</ele>
        <time>2016-01-23T13:53:39.060Z</time>
      </trkpt>
      <trkpt lat="43.99511" lon="7.20606">
        <ele>1256</ele>
        <time>2016-01-23T13:53:47.060Z</time>
      </trkpt>
      <trkpt lat="43.99501" lon="7.20607">
        <ele>1254</ele>
        <time>2016-01-23T13:53:53.060Z</time>
      </trkpt>
      <trkpt lat="43.99492" lon="7.20613">
        <ele>1253</ele>
        <time>2016-01-23T13:54:00.060Z</time>
      </trkpt>
      <trkpt lat="43.9948" lon="7.20614">
        <ele>1251</ele>
        <time>2016-01-23T13:54:05.060Z</time>
      </trkpt>
      <trkpt lat="43.99471" lon="7.20621">
        <ele>1250</ele>
        <time>2016-01-23T13:54:10.060Z</time>
      </trkpt>
      <trkpt lat="43.99462" lon="7.20628">
        <ele>1249</ele>
        <time>2016-01-23T13:54:15.060Z</time>
      </trkpt>
      <trkpt lat="43.99453" lon="7.20636">
        <ele>1247</ele>
        <time>2016-01-23T13:54:20.060Z</time>
      </trkpt>
      <trkpt lat="43.99463" lon="7.2063">
        <ele>1241.4700288</ele>
        <time>2016-01-23T13:54:31.060Z</time>
      </trkpt>
      <trkpt lat="43.99473" lon="7.2063">
        <ele>1240</ele>
        <time>2016-01-23T13:54:35.060Z</time>
      </trkpt>
      <trkpt lat="43.99485" lon="7.20631">
        <ele>1238</ele>
        <time>2016-01-23T13:54:39.060Z</time>
      </trkpt>
      <trkpt lat="43.99477" lon="7.20645">
        <ele>1233</ele>
        <time>2016-01-23T13:54:52.060Z</time>
      </trkpt>
      <trkpt lat="43.99467" lon="7.2065">
        <ele>1233</ele>
        <time>2016-01-23T13:54:55.060Z</time>
      </trkpt>
      <trkpt lat="43.99459" lon="7.20658">
        <ele>1231</ele>
        <time>2016-01-23T13:54:59.060Z</time>
      </trkpt>
      <trkpt lat="43.99449" lon="7.20665">
        <ele>1226.4900096</ele>
        <time>2016-01-23T13:55:05.060Z</time>
      </trkpt>
      <trkpt lat="43.99438" lon="7.20673">
        <ele>1225</ele>
        <time>2016-01-23T13:55:10.060Z</time>
      </trkpt>
      <trkpt lat="43.99429" lon="7.2068">
        <ele>1224</ele>
        <time>2016-01-23T13:55:15.060Z</time>
      </trkpt>
      <trkpt lat="43.99421" lon="7.20688">
        <ele>1223</ele>
        <time>2016-01-23T13:55:19.060Z</time>
      </trkpt>
      <trkpt lat="43.99411" lon="7.20693">
        <ele>1221</ele>
        <time>2016-01-23T13:55:23.060Z</time>
      </trkpt>
      <trkpt lat="43.99421" lon="7.20687">
        <ele>1217</ele>
        <time>2016-01-23T13:55:33.060Z</time>
      </trkpt>
      <trkpt lat="43.99432" lon="7.20683">
        <ele>1215</ele>
        <time>2016-01-23T13:55:39.060Z</time>
      </trkpt>
      <trkpt lat="43.99443" lon="7.2068">
        <ele>1214</ele>
        <time>2016-01-23T13:55:44.060Z</time>
      </trkpt>
      <trkpt lat="43.99454" lon="7.20679">
        <ele>1214</ele>
        <time>2016-01-23T13:55:48.060Z</time>
      </trkpt>
      <trkpt lat="43.99467" lon="7.20681">
        <ele>1213</ele>
        <time>2016-01-23T13:55:52.060Z</time>
      </trkpt>
      <trkpt lat="43.9948" lon="7.20682">
        <ele>1213</ele>
        <time>2016-01-23T13:55:55.060Z</time>
      </trkpt>
      <trkpt lat="43.99492" lon="7.20685">
        <ele>1213</ele>
        <time>2016-01-23T13:56:00.060Z</time>
      </trkpt>
      <trkpt lat="43.99484" lon="7.20696">
        <ele>1205.4900096</ele>
        <time>2016-01-23T13:56:05.060Z</time>
      </trkpt>
      <trkpt lat="43.99474" lon="7.20701">
        <ele>1203</ele>
        <time>2016-01-23T13:56:10.060Z</time>
      </trkpt>
      <trkpt lat="43.99464" lon="7.20706">
        <ele>1203</ele>
        <time>2016-01-23T13:56:14.060Z</time>
      </trkpt>
      <trkpt lat="43.99448" lon="7.20712">
        <ele>1202</ele>
        <time>2016-01-23T13:56:18.060Z</time>
      </trkpt>
      <trkpt lat="43.99437" lon="7.20715">
        <ele>1201.4900096</ele>
        <time>2016-01-23T13:56:21.060Z</time>
      </trkpt>
      <trkpt lat="43.99428" lon="7.20723">
        <ele>1201</ele>
        <time>2016-01-23T13:56:25.060Z</time>
      </trkpt>
      <trkpt lat="43.99419" lon="7.20731">
        <ele>1199</ele>
        <time>2016-01-23T13:56:30.060Z</time>
      </trkpt>
      <trkpt lat="43.99411" lon="7.2074">
        <ele>1194.9799936</ele>
        <time>2016-01-23T13:56:36.060Z</time>
      </trkpt>
      <trkpt lat="43.99401" lon="7.20742">
        <ele>1192</ele>
        <time>2016-01-23T13:56:42.060Z</time>
      </trkpt>
      <trkpt lat="43.99389" lon="7.20743">
        <ele>1191.4899968</ele>
        <time>2016-01-23T13:56:46.060Z</time>
      </trkpt>
      <trkpt lat="43.9938" lon="7.20737">
        <ele>1191</ele>
        <time>2016-01-23T13:56:50.060Z</time>
      </trkpt>
      <trkpt lat="43.99374" lon="7.20726">
        <ele>1186.9799936</ele>
        <time>2016-01-23T13:56:56.060Z</time>
      </trkpt>
      <trkpt lat="43.99367" lon="7.20713">
        <ele>1185</ele>
        <time>2016-01-23T13:57:04.060Z</time>
      </trkpt>
      <trkpt lat="43.99361" lon="7.20701">
        <ele>1184</ele>
        <time>2016-01-23T13:57:10.060Z</time>
      </trkpt>
      <trkpt lat="43.99352" lon="7.20692">
        <ele>1180.9799936</ele>
        <time>2016-01-23T13:57:16.060Z</time>
      </trkpt>
      <trkpt lat="43.99345" lon="7.2068">
        <ele>1176.4899968</ele>
        <time>2016-01-23T13:57:26.060Z</time>
      </trkpt>
      <trkpt lat="43.99336" lon="7.20673">
        <ele>1175</ele>
        <time>2016-01-23T13:57:34.060Z</time>
      </trkpt>
      <trkpt lat="43.99337" lon="7.20658">
        <ele>1175</ele>
        <time>2016-01-23T13:57:39.060Z</time>
      </trkpt>
      <trkpt lat="43.99333" lon="7.20643">
        <ele>1173</ele>
        <time>2016-01-23T13:57:45.060Z</time>
      </trkpt>
      <trkpt lat="43.99328" lon="7.20631">
        <ele>1173</ele>
        <time>2016-01-23T13:57:50.060Z</time>
      </trkpt>
      <trkpt lat="43.99319" lon="7.2062">
        <ele>1171</ele>
        <time>2016-01-23T13:57:54.060Z</time>
      </trkpt>
      <trkpt lat="43.99312" lon="7.20609">
        <ele>1171</ele>
        <time>2016-01-23T13:57:58.060Z</time>
      </trkpt>
      <trkpt lat="43.99309" lon="7.20595">
        <ele>1168</ele>
        <time>2016-01-23T13:58:02.060Z</time>
      </trkpt>
      <trkpt lat="43.99306" lon="7.20579">
        <ele>1168</ele>
        <time>2016-01-23T13:58:07.060Z</time>
      </trkpt>
      <trkpt lat="43.99298" lon="7.20568">
        <ele>1166</ele>
        <time>2016-01-23T13:58:14.060Z</time>
      </trkpt>
      <trkpt lat="43.99291" lon="7.20578">
        <ele>1163</ele>
        <time>2016-01-23T13:58:23.060Z</time>
      </trkpt>
      <trkpt lat="43.9928" lon="7.20576">
        <ele>1161</ele>
        <time>2016-01-23T13:58:32.060Z</time>
      </trkpt>
      <trkpt lat="43.99269" lon="7.20577">
        <ele>1161</ele>
        <time>2016-01-23T13:58:39.060Z</time>
      </trkpt>
      <trkpt lat="43.99258" lon="7.20583">
        <ele>1163</ele>
        <time>2016-01-23T13:58:44.060Z</time>
      </trkpt>
      <trkpt lat="43.99247" lon="7.20591">
        <ele>1163</ele>
        <time>2016-01-23T13:58:48.060Z</time>
      </trkpt>
      <trkpt lat="43.99238" lon="7.20602">
        <ele>1164</ele>
        <time>2016-01-23T13:58:52.060Z</time>
      </trkpt>
      <trkpt lat="43.99231" lon="7.20612">
        <ele>1164</ele>
        <time>2016-01-23T13:58:56.060Z</time>
      </trkpt>
      <trkpt lat="43.99224" lon="7.20623">
        <ele>1164</ele>
        <time>2016-01-23T13:59:00.060Z</time>
      </trkpt>
      <trkpt lat="43.99214" lon="7.20635">
        <ele>1164</ele>
        <time>2016-01-23T13:59:05.060Z</time>
      </trkpt>
      <trkpt lat="43.99206" lon="7.20645">
        <ele>1164</ele>
        <time>2016-01-23T13:59:09.060Z</time>
      </trkpt>
      <trkpt lat="43.99199" lon="7.20656">
        <ele>1163</ele>
        <time>2016-01-23T13:59:13.060Z</time>
      </trkpt>
      <trkpt lat="43.9919" lon="7.20669">
        <ele>1163</ele>
        <time>2016-01-23T13:59:18.060Z</time>
      </trkpt>
      <trkpt lat="43.99183" lon="7.20679">
        <ele>1163</ele>
        <time>2016-01-23T13:59:23.060Z</time>
      </trkpt>
      <trkpt lat="43.99176" lon="7.20691">
        <ele>1163</ele>
        <time>2016-01-23T13:59:28.060Z</time>
      </trkpt>
      <trkpt lat="43.99164" lon="7.20698">
        <ele>1162</ele>
        <time>2016-01-23T13:59:32.060Z</time>
      </trkpt>
      <trkpt lat="43.99154" lon="7.20699">
        <ele>1162</ele>
        <time>2016-01-23T13:59:36.060Z</time>
      </trkpt>
      <trkpt lat="43.99142" lon="7.20696">
        <ele>1160.4700288</ele>
        <time>2016-01-23T13:59:41.060Z</time>
      </trkpt>
      <trkpt lat="43.99132" lon="7.20696">
        <ele>1157.4699904</ele>
        <time>2016-01-23T13:59:46.060Z</time>
      </trkpt>
      <trkpt lat="43.99122" lon="7.20697">
        <ele>1155.4949575921</ele>
        <time>2016-01-23T13:59:51.060Z</time>
      </trkpt>
      <trkpt lat="43.99111" lon="7.20701">
        <ele>1154.4899968</ele>
        <time>2016-01-23T13:59:56.060Z</time>
      </trkpt>
      <trkpt lat="43.99101" lon="7.207">
        <ele>1154</ele>
        <time>2016-01-23T14:00:00.060Z</time>
      </trkpt>
      <trkpt lat="43.9909" lon="7.20695">
        <ele>1151</ele>
        <time>2016-01-23T14:00:04.060Z</time>
      </trkpt>
      <trkpt lat="43.99083" lon="7.20685">
        <ele>1150</ele>
        <time>2016-01-23T14:00:08.060Z</time>
      </trkpt>
      <trkpt lat="43.99074" lon="7.20675">
        <ele>1147</ele>
        <time>2016-01-23T14:00:13.060Z</time>
      </trkpt>
      <trkpt lat="43.99066" lon="7.20666">
        <ele>1145</ele>
        <time>2016-01-23T14:00:18.060Z</time>
      </trkpt>
      <trkpt lat="43.9906" lon="7.20655">
        <ele>1143.4899968</ele>
        <time>2016-01-23T14:00:26.060Z</time>
      </trkpt>
      <trkpt lat="43.99054" lon="7.20643">
        <ele>1143</ele>
        <time>2016-01-23T14:00:37.060Z</time>
      </trkpt>
      <trkpt lat="43.99049" lon="7.20631">
        <ele>1141</ele>
        <time>2016-01-23T14:00:47.060Z</time>
      </trkpt>
      <trkpt lat="43.99047" lon="7.20618">
        <ele>1137.4899968</ele>
        <time>2016-01-23T14:00:56.060Z</time>
      </trkpt>
      <trkpt lat="43.99043" lon="7.20603">
        <ele>1134</ele>
        <time>2016-01-23T14:01:05.060Z</time>
      </trkpt>
      <trkpt lat="43.99036" lon="7.20593">
        <ele>1132</ele>
        <time>2016-01-23T14:01:14.060Z</time>
      </trkpt>
      <trkpt lat="43.99026" lon="7.20587">
        <ele>1130</ele>
        <time>2016-01-23T14:01:24.060Z</time>
      </trkpt>
      <trkpt lat="43.99017" lon="7.20578">
        <ele>1127</ele>
        <time>2016-01-23T14:01:32.060Z</time>
      </trkpt>
      <trkpt lat="43.9901" lon="7.20568">
        <ele>1126</ele>
        <time>2016-01-23T14:01:39.060Z</time>
      </trkpt>
      <trkpt lat="43.99006" lon="7.20561">
        <ele>1125</ele>
        <time>2016-01-23T14:01:44.060Z</time>
      </trkpt>
      <trkpt lat="43.98999" lon="7.2055">
        <ele>1123.9800192</ele>
        <time>2016-01-23T14:01:51.060Z</time>
      </trkpt>
      <trkpt lat="43.98992" lon="7.20539">
        <ele>1122</ele>
        <time>2016-01-23T14:01:58.060Z</time>
      </trkpt>
      <trkpt lat="43.98984" lon="7.20529">
        <ele>1122</ele>
        <time>2016-01-23T14:02:05.060Z</time>
      </trkpt>
      <trkpt lat="43.98977" lon="7.20517">
        <ele>1121</ele>
        <time>2016-01-23T14:02:14.060Z</time>
      </trkpt>
      <trkpt lat="43.98973" lon="7.20504">
        <ele>1118</ele>
        <time>2016-01-23T14:02:23.060Z</time>
      </trkpt>
      <trkpt lat="43.98964" lon="7.20507">
        <ele>1117</ele>
        <time>2016-01-23T14:02:36.060Z</time>
      </trkpt>
      <trkpt lat="43.98957" lon="7.20518">
        <ele>1116</ele>
        <time>2016-01-23T14:02:45.060Z</time>
      </trkpt>
      <trkpt lat="43.98954" lon="7.20532">
        <ele>1116</ele>
        <time>2016-01-23T14:02:55.060Z</time>
      </trkpt>
      <trkpt lat="43.98949" lon="7.20544">
        <ele>1113</ele>
        <time>2016-01-23T14:03:02.060Z</time>
      </trkpt>
      <trkpt lat="43.98945" lon="7.20558">
        <ele>1113</ele>
        <time>2016-01-23T14:03:08.060Z</time>
      </trkpt>
      <trkpt lat="43.98939" lon="7.20569">
        <ele>1112</ele>
        <time>2016-01-23T14:03:16.060Z</time>
      </trkpt>
      <trkpt lat="43.9893" lon="7.20578">
        <ele>1111</ele>
        <time>2016-01-23T14:03:22.060Z</time>
      </trkpt>
      <trkpt lat="43.98923" lon="7.20588">
        <ele>1111</ele>
        <time>2016-01-23T14:03:27.060Z</time>
      </trkpt>
      <trkpt lat="43.98914" lon="7.20599">
        <ele>1108</ele>
        <time>2016-01-23T14:03:32.060Z</time>
      </trkpt>
      <trkpt lat="43.98906" lon="7.20607">
        <ele>1108</ele>
        <time>2016-01-23T14:03:36.060Z</time>
      </trkpt>
      <trkpt lat="43.98897" lon="7.20618">
        <ele>1106</ele>
        <time>2016-01-23T14:03:42.060Z</time>
      </trkpt>
      <trkpt lat="43.98888" lon="7.20624">
        <ele>1105.4899968</ele>
        <time>2016-01-23T14:03:46.060Z</time>
      </trkpt>
      <trkpt lat="43.98878" lon="7.20631">
        <ele>1105</ele>
        <time>2016-01-23T14:03:50.060Z</time>
      </trkpt>
      <trkpt lat="43.98866" lon="7.20641">
        <ele>1105</ele>
        <time>2016-01-23T14:03:54.060Z</time>
      </trkpt>
      <trkpt lat="43.98857" lon="7.20649">
        <ele>1105</ele>
        <time>2016-01-23T14:03:57.060Z</time>
      </trkpt>
      <trkpt lat="43.98846" lon="7.20656">
        <ele>1103.4700288</ele>
        <time>2016-01-23T14:04:01.060Z</time>
      </trkpt>
      <trkpt lat="43.98837" lon="7.20665">
        <ele>1102</ele>
        <time>2016-01-23T14:04:05.060Z</time>
      </trkpt>
      <trkpt lat="43.98828" lon="7.20671">
        <ele>1102</ele>
        <time>2016-01-23T14:04:09.060Z</time>
      </trkpt>
      <trkpt lat="43.98818" lon="7.20677">
        <ele>1101</ele>
        <time>2016-01-23T14:04:15.060Z</time>
      </trkpt>
      <trkpt lat="43.98808" lon="7.20682">
        <ele>1101</ele>
        <time>2016-01-23T14:04:23.060Z</time>
      </trkpt>
      <trkpt lat="43.98797" lon="7.20687">
        <ele>1101</ele>
        <time>2016-01-23T14:04:29.060Z</time>
      </trkpt>
      <trkpt lat="43.98787" lon="7.2069">
        <ele>1100</ele>
        <time>2016-01-23T14:04:33.060Z</time>
      </trkpt>
      <trkpt lat="43.98776" lon="7.20694">
        <ele>1100</ele>
        <time>2016-01-23T14:04:38.060Z</time>
      </trkpt>
      <trkpt lat="43.98766" lon="7.207">
        <ele>1099</ele>
        <time>2016-01-23T14:04:47.060Z</time>
      </trkpt>
      <trkpt lat="43.98761" lon="7.20713">
        <ele>1095.9600384</ele>
        <time>2016-01-23T14:05:01.060Z</time>
      </trkpt>
      <trkpt lat="43.98756" lon="7.20725">
        <ele>1092</ele>
        <time>2016-01-23T14:05:13.060Z</time>
      </trkpt>
      <trkpt lat="43.98753" lon="7.20738">
        <ele>1090</ele>
        <time>2016-01-23T14:05:22.060Z</time>
      </trkpt>
      <trkpt lat="43.98748" lon="7.20755">
        <ele>1085</ele>
        <time>2016-01-23T14:05:37.060Z</time>
      </trkpt>
      <trkpt lat="43.9874" lon="7.20764">
        <ele>1083.9800192</ele>
        <time>2016-01-23T14:05:41.060Z</time>
      </trkpt>
      <trkpt lat="43.98733" lon="7.20776">
        <ele>1080</ele>
        <time>2016-01-23T14:05:47.060Z</time>
      </trkpt>
      <trkpt lat="43.98724" lon="7.20784">
        <ele>1078</ele>
        <time>2016-01-23T14:05:53.060Z</time>
      </trkpt>
      <trkpt lat="43.98714" lon="7.20791">
        <ele>1077</ele>
        <time>2016-01-23T14:06:00.060Z</time>
      </trkpt>
      <trkpt lat="43.98703" lon="7.20796">
        <ele>1075</ele>
        <time>2016-01-23T14:06:04.060Z</time>
      </trkpt>
      <trkpt lat="43.98693" lon="7.20803">
        <ele>1073</ele>
        <time>2016-01-23T14:06:08.060Z</time>
      </trkpt>
      <trkpt lat="43.98684" lon="7.2081">
        <ele>1070</ele>
        <time>2016-01-23T14:06:13.060Z</time>
      </trkpt>
      <trkpt lat="43.98675" lon="7.20817">
        <ele>1069</ele>
        <time>2016-01-23T14:06:18.060Z</time>
      </trkpt>
      <trkpt lat="43.98666" lon="7.20823">
        <ele>1066</ele>
        <time>2016-01-23T14:06:23.060Z</time>
      </trkpt>
      <trkpt lat="43.98656" lon="7.20827">
        <ele>1063</ele>
        <time>2016-01-23T14:06:30.060Z</time>
      </trkpt>
      <trkpt lat="43.98646" lon="7.2082">
        <ele>1061</ele>
        <time>2016-01-23T14:06:39.060Z</time>
      </trkpt>
      <trkpt lat="43.98653" lon="7.20833">
        <ele>1057</ele>
        <time>2016-01-23T14:06:53.060Z</time>
      </trkpt>
      <trkpt lat="43.98643" lon="7.20839">
        <ele>1055</ele>
        <time>2016-01-23T14:07:00.060Z</time>
      </trkpt>
      <trkpt lat="43.98634" lon="7.20834">
        <ele>1052.9799936</ele>
        <time>2016-01-23T14:07:06.060Z</time>
      </trkpt>
      <trkpt lat="43.98626" lon="7.20825">
        <ele>1050</ele>
        <time>2016-01-23T14:07:14.060Z</time>
      </trkpt>
      <trkpt lat="43.98618" lon="7.2082">
        <ele>1047</ele>
        <time>2016-01-23T14:07:23.060Z</time>
      </trkpt>
      <trkpt lat="43.9861" lon="7.20812">
        <ele>1046</ele>
        <time>2016-01-23T14:07:30.060Z</time>
      </trkpt>
      <trkpt lat="43.98601" lon="7.20806">
        <ele>1045</ele>
        <time>2016-01-23T14:07:40.060Z</time>
      </trkpt>
      <trkpt lat="43.9859" lon="7.2081">
        <ele>1041</ele>
        <time>2016-01-23T14:07:50.060Z</time>
      </trkpt>
      <trkpt lat="43.98581" lon="7.20808">
        <ele>1038.9799936</ele>
        <time>2016-01-23T14:07:56.060Z</time>
      </trkpt>
      <trkpt lat="43.98577" lon="7.20806">
        <ele>1038</ele>
        <time>2016-01-23T14:08:00.060Z</time>
      </trkpt>
      <trkpt lat="43.98569" lon="7.20801">
        <ele>1036</ele>
        <time>2016-01-23T14:08:08.060Z</time>
      </trkpt>
      <trkpt lat="43.98558" lon="7.20797">
        <ele>1035</ele>
        <time>2016-01-23T14:08:15.060Z</time>
      </trkpt>
      <trkpt lat="43.98548" lon="7.20792">
        <ele>1032</ele>
        <time>2016-01-23T14:08:23.060Z</time>
      </trkpt>
      <trkpt lat="43.98538" lon="7.20785">
        <ele>1030</ele>
        <time>2016-01-23T14:08:31.060Z</time>
      </trkpt>
      <trkpt lat="43.98536" lon="7.2077">
        <ele>1030</ele>
        <time>2016-01-23T14:08:38.060Z</time>
      </trkpt>
      <trkpt lat="43.98527" lon="7.20763">
        <ele>1030</ele>
        <time>2016-01-23T14:08:49.060Z</time>
      </trkpt>
      <trkpt lat="43.98518" lon="7.20772">
        <ele>1028</ele>
        <time>2016-01-23T14:08:57.060Z</time>
      </trkpt>
      <trkpt lat="43.98509" lon="7.2078">
        <ele>1024</ele>
        <time>2016-01-23T14:09:06.060Z</time>
      </trkpt>
      <trkpt lat="43.985" lon="7.20787">
        <ele>1023</ele>
        <time>2016-01-23T14:09:16.060Z</time>
      </trkpt>
      <trkpt lat="43.98489" lon="7.20792">
        <ele>1020</ele>
        <time>2016-01-23T14:09:25.060Z</time>
      </trkpt>
      <trkpt lat="43.98479" lon="7.20788">
        <ele>1017</ele>
        <time>2016-01-23T14:09:34.060Z</time>
      </trkpt>
      <trkpt lat="43.98469" lon="7.20789">
        <ele>1014.9800192</ele>
        <time>2016-01-23T14:09:41.060Z</time>
      </trkpt>
      <trkpt lat="43.98459" lon="7.20795">
        <ele>1013.4899968</ele>
        <time>2016-01-23T14:09:46.060Z</time>
      </trkpt>
      <trkpt lat="43.98451" lon="7.20804">
        <ele>1013</ele>
        <time>2016-01-23T14:09:52.060Z</time>
      </trkpt>
      <trkpt lat="43.98441" lon="7.20809">
        <ele>1013</ele>
        <time>2016-01-23T14:10:00.060Z</time>
      </trkpt>
      <trkpt lat="43.98451" lon="7.20807">
        <ele>1006</ele>
        <time>2016-01-23T14:10:27.060Z</time>
      </trkpt>
      <trkpt lat="43.98461" lon="7.2081">
        <ele>1005</ele>
        <time>2016-01-23T14:10:36.060Z</time>
      </trkpt>
      <trkpt lat="43.98453" lon="7.20819">
        <ele>1001</ele>
        <time>2016-01-23T14:10:52.060Z</time>
      </trkpt>
      <trkpt lat="43.98442" lon="7.20821">
        <ele>1001</ele>
        <time>2016-01-23T14:10:58.060Z</time>
      </trkpt>
      <trkpt lat="43.98432" lon="7.20821">
        <ele>1002</ele>
        <time>2016-01-23T14:11:05.060Z</time>
      </trkpt>
      <trkpt lat="43.98421" lon="7.2082">
        <ele>1002</ele>
        <time>2016-01-23T14:11:13.060Z</time>
      </trkpt>
      <trkpt lat="43.9841" lon="7.2082">
        <ele>1002</ele>
        <time>2016-01-23T14:11:22.060Z</time>
      </trkpt>
      <trkpt lat="43.984" lon="7.2082">
        <ele>1002</ele>
        <time>2016-01-23T14:11:33.060Z</time>
      </trkpt>
      <trkpt lat="43.9839" lon="7.20821">
        <ele>1002.5099904</ele>
        <time>2016-01-23T14:11:41.060Z</time>
      </trkpt>
      <trkpt lat="43.98379" lon="7.20822">
        <ele>1003</ele>
        <time>2016-01-23T14:11:48.060Z</time>
      </trkpt>
      <trkpt lat="43.98368" lon="7.20825">
        <ele>1003</ele>
        <time>2016-01-23T14:11:56.060Z</time>
      </trkpt>
      <trkpt lat="43.98357" lon="7.20828">
        <ele>1003</ele>
        <time>2016-01-23T14:12:04.060Z</time>
      </trkpt>
      <trkpt lat="43.98346" lon="7.20829">
        <ele>1003</ele>
        <time>2016-01-23T14:12:12.060Z</time>
      </trkpt>
      <trkpt lat="43.98336" lon="7.20828">
        <ele>1003</ele>
        <time>2016-01-23T14:12:20.060Z</time>
      </trkpt>
      <trkpt lat="43.98327" lon="7.20819">
        <ele>1003</ele>
        <time>2016-01-23T14:12:28.060Z</time>
      </trkpt>
      <trkpt lat="43.9832" lon="7.20808">
        <ele>1003</ele>
        <time>2016-01-23T14:12:36.060Z</time>
      </trkpt>
      <trkpt lat="43.9832" lon="7.20794">
        <ele>1003</ele>
        <time>2016-01-23T14:12:42.060Z</time>
      </trkpt>
      <trkpt lat="43.98322" lon="7.20781">
        <ele>1004</ele>
        <time>2016-01-23T14:12:51.060Z</time>
      </trkpt>
      <trkpt lat="43.98322" lon="7.20767">
        <ele>1004</ele>
        <time>2016-01-23T14:12:58.060Z</time>
      </trkpt>
      <trkpt lat="43.98323" lon="7.20753">
        <ele>1003</ele>
        <time>2016-01-23T14:13:06.060Z</time>
      </trkpt>
      <trkpt lat="43.98323" lon="7.20737">
        <ele>1003</ele>
        <time>2016-01-23T14:13:13.060Z</time>
      </trkpt>
      <trkpt lat="43.98324" lon="7.20721">
        <ele>1003</ele>
        <time>2016-01-23T14:13:19.060Z</time>
      </trkpt>
      <trkpt lat="43.98322" lon="7.20707">
        <ele>1003</ele>
        <time>2016-01-23T14:13:23.060Z</time>
      </trkpt>
      <trkpt lat="43.98319" lon="7.20692">
        <ele>1003</ele>
        <time>2016-01-23T14:13:27.060Z</time>
      </trkpt>
      <trkpt lat="43.98315" lon="7.20676">
        <ele>1003.5099904</ele>
        <time>2016-01-23T14:13:31.060Z</time>
      </trkpt>
      <trkpt lat="43.98314" lon="7.20661">
        <ele>1004</ele>
        <time>2016-01-23T14:13:35.060Z</time>
      </trkpt>
      <trkpt lat="43.98316" lon="7.20646">
        <ele>1004</ele>
        <time>2016-01-23T14:13:39.060Z</time>
      </trkpt>
      <trkpt lat="43.9832" lon="7.2063">
        <ele>1004</ele>
        <time>2016-01-23T14:13:44.060Z</time>
      </trkpt>
      <trkpt lat="43.98324" lon="7.20618">
        <ele>1004</ele>
        <time>2016-01-23T14:13:48.060Z</time>
      </trkpt>
      <trkpt lat="43.98325" lon="7.20603">
        <ele>1004</ele>
        <time>2016-01-23T14:13:52.060Z</time>
      </trkpt>
      <trkpt lat="43.98322" lon="7.2059">
        <ele>1004</ele>
        <time>2016-01-23T14:13:56.060Z</time>
      </trkpt>
      <trkpt lat="43.98318" lon="7.20575">
        <ele>1004</ele>
        <time>2016-01-23T14:14:01.060Z</time>
      </trkpt>
      <trkpt lat="43.98314" lon="7.20559">
        <ele>1004</ele>
        <time>2016-01-23T14:14:05.060Z</time>
      </trkpt>
      <trkpt lat="43.98313" lon="7.20543">
        <ele>1004</ele>
        <time>2016-01-23T14:14:10.060Z</time>
      </trkpt>
      <trkpt lat="43.98312" lon="7.20527">
        <ele>1006</ele>
        <time>2016-01-23T14:14:14.060Z</time>
      </trkpt>
      <trkpt lat="43.9831" lon="7.20511">
        <ele>1006</ele>
        <time>2016-01-23T14:14:19.060Z</time>
      </trkpt>
      <trkpt lat="43.98308" lon="7.20495">
        <ele>1008</ele>
        <time>2016-01-23T14:14:24.060Z</time>
      </trkpt>
      <trkpt lat="43.98306" lon="7.20479">
        <ele>1008</ele>
        <time>2016-01-23T14:14:29.060Z</time>
      </trkpt>
      <trkpt lat="43.98303" lon="7.20465">
        <ele>1009</ele>
        <time>2016-01-23T14:14:34.060Z</time>
      </trkpt>
      <trkpt lat="43.98301" lon="7.20449">
        <ele>1009</ele>
        <time>2016-01-23T14:14:39.060Z</time>
      </trkpt>
      <trkpt lat="43.98301" lon="7.20432">
        <ele>1011</ele>
        <time>2016-01-23T14:14:44.060Z</time>
      </trkpt>
      <trkpt lat="43.98298" lon="7.20416">
        <ele>1011</ele>
        <time>2016-01-23T14:14:49.060Z</time>
      </trkpt>
      <trkpt lat="43.98295" lon="7.20402">
        <ele>1012</ele>
        <time>2016-01-23T14:14:54.060Z</time>
      </trkpt>
      <trkpt lat="43.98294" lon="7.20386">
        <ele>1012</ele>
        <time>2016-01-23T14:14:59.060Z</time>
      </trkpt>
      <trkpt lat="43.98293" lon="7.2037">
        <ele>1014</ele>
        <time>2016-01-23T14:15:04.060Z</time>
      </trkpt>
      <trkpt lat="43.98291" lon="7.20355">
        <ele>1014</ele>
        <time>2016-01-23T14:15:09.060Z</time>
      </trkpt>
      <trkpt lat="43.98289" lon="7.2034">
        <ele>1015</ele>
        <time>2016-01-23T14:15:13.060Z</time>
      </trkpt>
      <trkpt lat="43.98289" lon="7.20325">
        <ele>1015</ele>
        <time>2016-01-23T14:15:18.060Z</time>
      </trkpt>
      <trkpt lat="43.98281" lon="7.20312">
        <ele>1016</ele>
        <time>2016-01-23T14:15:23.060Z</time>
      </trkpt>
      <trkpt lat="43.98271" lon="7.20312">
        <ele>1016</ele>
        <time>2016-01-23T14:15:28.060Z</time>
      </trkpt>
      <trkpt lat="43.98261" lon="7.20311">
        <ele>1017</ele>
        <time>2016-01-23T14:15:33.060Z</time>
      </trkpt>
      <trkpt lat="43.9825" lon="7.20309">
        <ele>1018</ele>
        <time>2016-01-23T14:15:42.060Z</time>
      </trkpt>
      <trkpt lat="43.98242" lon="7.203">
        <ele>1018</ele>
        <time>2016-01-23T14:15:50.060Z</time>
      </trkpt>
      <trkpt lat="43.98234" lon="7.20291">
        <ele>1019</ele>
        <time>2016-01-23T14:15:59.060Z</time>
      </trkpt>
      <trkpt lat="43.98223" lon="7.20289">
        <ele>1019</ele>
        <time>2016-01-23T14:16:10.060Z</time>
      </trkpt>
      <trkpt lat="43.98213" lon="7.20295">
        <ele>1020</ele>
        <time>2016-01-23T14:16:20.060Z</time>
      </trkpt>
      <trkpt lat="43.98208" lon="7.20309">
        <ele>1020</ele>
        <time>2016-01-23T14:16:28.060Z</time>
      </trkpt>
      <trkpt lat="43.98208" lon="7.20325">
        <ele>1021</ele>
        <time>2016-01-23T14:16:37.060Z</time>
      </trkpt>
      <trkpt lat="43.98209" lon="7.2034">
        <ele>1021</ele>
        <time>2016-01-23T14:16:45.060Z</time>
      </trkpt>
      <trkpt lat="43.98199" lon="7.20343">
        <ele>1021</ele>
        <time>2016-01-23T14:16:55.060Z</time>
      </trkpt>
      <trkpt lat="43.98191" lon="7.20334">
        <ele>1025</ele>
        <time>2016-01-23T14:17:05.060Z</time>
      </trkpt>
      <trkpt lat="43.98193" lon="7.20348">
        <ele>1027</ele>
        <time>2016-01-23T14:17:20.060Z</time>
      </trkpt>
      <trkpt lat="43.98182" lon="7.20348">
        <ele>1029</ele>
        <time>2016-01-23T14:17:30.060Z</time>
      </trkpt>
      <trkpt lat="43.98171" lon="7.20344">
        <ele>1031</ele>
        <time>2016-01-23T14:17:40.060Z</time>
      </trkpt>
      <trkpt lat="43.98167" lon="7.20331">
        <ele>1038</ele>
        <time>2016-01-23T14:17:59.060Z</time>
      </trkpt>
      <trkpt lat="43.98168" lon="7.20316">
        <ele>1041.5099904</ele>
        <time>2016-01-23T14:18:11.060Z</time>
      </trkpt>
      <trkpt lat="43.98166" lon="7.20302">
        <ele>1046</ele>
        <time>2016-01-23T14:18:24.060Z</time>
      </trkpt>
      <trkpt lat="43.98162" lon="7.20289">
        <ele>1050</ele>
        <time>2016-01-23T14:18:48.060Z</time>
      </trkpt>
      <trkpt lat="43.98159" lon="7.20275">
        <ele>1056</ele>
        <time>2016-01-23T14:19:09.060Z</time>
      </trkpt>
      <trkpt lat="43.98149" lon="7.20276">
        <ele>1060</ele>
        <time>2016-01-23T14:19:30.060Z</time>
      </trkpt>
      <trkpt lat="43.98146" lon="7.20261">
        <ele>1066</ele>
        <time>2016-01-23T14:19:53.060Z</time>
      </trkpt>
      <trkpt lat="43.98143" lon="7.20248">
        <ele>1068</ele>
        <time>2016-01-23T14:20:07.060Z</time>
      </trkpt>
      <trkpt lat="43.98138" lon="7.20233">
        <ele>1073</ele>
        <time>2016-01-23T14:20:23.060Z</time>
      </trkpt>
      <trkpt lat="43.98132" lon="7.20222">
        <ele>1076</ele>
        <time>2016-01-23T14:20:36.060Z</time>
      </trkpt>
      <trkpt lat="43.98128" lon="7.20209">
        <ele>1078.0199808</ele>
        <time>2016-01-23T14:20:51.060Z</time>
      </trkpt>
      <trkpt lat="43.98125" lon="7.20195">
        <ele>1084.5099904</ele>
        <time>2016-01-23T14:21:11.060Z</time>
      </trkpt>
      <trkpt lat="43.98133" lon="7.20186">
        <ele>1087</ele>
        <time>2016-01-23T14:21:27.060Z</time>
      </trkpt>
      <trkpt lat="43.98141" lon="7.20177">
        <ele>1089</ele>
        <time>2016-01-23T14:21:39.060Z</time>
      </trkpt>
      <trkpt lat="43.98139" lon="7.20162">
        <ele>1096</ele>
        <time>2016-01-23T14:22:09.060Z</time>
      </trkpt>
      <trkpt lat="43.98128" lon="7.20161">
        <ele>1102</ele>
        <time>2016-01-23T14:22:32.060Z</time>
      </trkpt>
      <trkpt lat="43.9812" lon="7.20152">
        <ele>1104</ele>
        <time>2016-01-23T14:22:50.060Z</time>
      </trkpt>
      <trkpt lat="43.98114" lon="7.20141">
        <ele>1109</ele>
        <time>2016-01-23T14:23:08.060Z</time>
      </trkpt>
      <trkpt lat="43.98104" lon="7.20137">
        <ele>1113</ele>
        <time>2016-01-23T14:23:38.060Z</time>
      </trkpt>
      <trkpt lat="43.98097" lon="7.20126">
        <ele>1117</ele>
        <time>2016-01-23T14:23:56.060Z</time>
      </trkpt>
      <trkpt lat="43.98087" lon="7.20128">
        <ele>1124</ele>
        <time>2016-01-23T14:24:25.060Z</time>
      </trkpt>
      <trkpt lat="43.98077" lon="7.20121">
        <ele>1126</ele>
        <time>2016-01-23T14:24:40.060Z</time>
      </trkpt>
      <trkpt lat="43.98077" lon="7.20107">
        <ele>1130.5049552632</ele>
        <time>2016-01-23T14:24:56.060Z</time>
      </trkpt>
      <trkpt lat="43.98075" lon="7.20093">
        <ele>1135</ele>
        <time>2016-01-23T14:25:15.060Z</time>
      </trkpt>
      <trkpt lat="43.9808" lon="7.2008">
        <ele>1138</ele>
        <time>2016-01-23T14:25:34.060Z</time>
      </trkpt>
      <trkpt lat="43.9809" lon="7.20076">
        <ele>1140</ele>
        <time>2016-01-23T14:25:42.060Z</time>
      </trkpt>
      <trkpt lat="43.98094" lon="7.20064">
        <ele>1146</ele>
        <time>2016-01-23T14:26:12.060Z</time>
      </trkpt>
      <trkpt lat="43.98086" lon="7.20055">
        <ele>1149</ele>
        <time>2016-01-23T14:26:32.060Z</time>
      </trkpt>
      <trkpt lat="43.98077" lon="7.20048">
        <ele>1153</ele>
        <time>2016-01-23T14:26:50.060Z</time>
      </trkpt>
      <trkpt lat="43.98067" lon="7.20049">
        <ele>1158</ele>
        <time>2016-01-23T14:27:08.060Z</time>
      </trkpt>
      <trkpt lat="43.98057" lon="7.20051">
        <ele>1167</ele>
        <time>2016-01-23T14:27:57.060Z</time>
      </trkpt>
      <trkpt lat="43.98047" lon="7.20046">
        <ele>1172</ele>
        <time>2016-01-23T14:28:14.060Z</time>
      </trkpt>
      <trkpt lat="43.98038" lon="7.20053">
        <ele>1175</ele>
        <time>2016-01-23T14:28:44.060Z</time>
      </trkpt>
      <trkpt lat="43.98028" lon="7.20049">
        <ele>1182</ele>
        <time>2016-01-23T14:29:19.060Z</time>
      </trkpt>
      <trkpt lat="43.9803" lon="7.20035">
        <ele>1182</ele>
        <time>2016-01-23T14:29:52.060Z</time>
      </trkpt>
      <trkpt lat="43.98022" lon="7.20044">
        <ele>1189</ele>
        <time>2016-01-23T14:30:34.060Z</time>
      </trkpt>
      <trkpt lat="43.98013" lon="7.2005">
        <ele>1193</ele>
        <time>2016-01-23T14:30:57.060Z</time>
      </trkpt>
      <trkpt lat="43.98009" lon="7.20063">
        <ele>1198.0199808</ele>
        <time>2016-01-23T14:31:11.060Z</time>
      </trkpt>
      <trkpt lat="43.98003" lon="7.20075">
        <ele>1202</ele>
        <time>2016-01-23T14:31:32.060Z</time>
      </trkpt>
      <trkpt lat="43.97995" lon="7.20067">
        <ele>1204</ele>
        <time>2016-01-23T14:31:45.060Z</time>
      </trkpt>
      <trkpt lat="43.97987" lon="7.20076">
        <ele>1209</ele>
        <time>2016-01-23T14:32:20.060Z</time>
      </trkpt>
      <trkpt lat="43.97977" lon="7.20072">
        <ele>1214</ele>
        <time>2016-01-23T14:32:50.060Z</time>
      </trkpt>
      <trkpt lat="43.97969" lon="7.20081">
        <ele>1224</ele>
        <time>2016-01-23T14:33:39.060Z</time>
      </trkpt>
      <trkpt lat="43.9796" lon="7.20087">
        <ele>1228</ele>
        <time>2016-01-23T14:34:18.060Z</time>
      </trkpt>
      <trkpt lat="43.97956" lon="7.20103">
        <ele>1229</ele>
        <time>2016-01-23T14:34:34.060Z</time>
      </trkpt>
      <trkpt lat="43.97956" lon="7.20116">
        <ele>1230</ele>
        <time>2016-01-23T14:34:49.060Z</time>
      </trkpt>
      <trkpt lat="43.97954" lon="7.2013">
        <ele>1235</ele>
        <time>2016-01-23T14:35:02.060Z</time>
      </trkpt>
      <trkpt lat="43.97952" lon="7.20144">
        <ele>1238</ele>
        <time>2016-01-23T14:35:24.060Z</time>
      </trkpt>
      <trkpt lat="43.97948" lon="7.20157">
        <ele>1239</ele>
        <time>2016-01-23T14:35:51.060Z</time>
      </trkpt>
      <trkpt lat="43.97947" lon="7.20169">
        <ele>1240</ele>
        <time>2016-01-23T14:36:25.060Z</time>
      </trkpt>
      <trkpt lat="43.97943" lon="7.2018">
        <ele>1241</ele>
        <time>2016-01-23T14:36:49.060Z</time>
      </trkpt>
      <trkpt lat="43.97937" lon="7.20191">
        <ele>1243</ele>
        <time>2016-01-23T14:37:07.060Z</time>
      </trkpt>
      <trkpt lat="43.97932" lon="7.20203">
        <ele>1245</ele>
        <time>2016-01-23T14:37:17.060Z</time>
      </trkpt>
      <trkpt lat="43.97927" lon="7.20215">
        <ele>1248.0199808</ele>
        <time>2016-01-23T14:37:31.060Z</time>
      </trkpt>
      <trkpt lat="43.97921" lon="7.20225">
        <ele>1249</ele>
        <time>2016-01-23T14:37:45.060Z</time>
      </trkpt>
      <trkpt lat="43.97914" lon="7.20236">
        <ele>1250</ele>
        <time>2016-01-23T14:37:57.060Z</time>
      </trkpt>
      <trkpt lat="43.97908" lon="7.20247">
        <ele>1253</ele>
        <time>2016-01-23T14:38:09.060Z</time>
      </trkpt>
      <trkpt lat="43.97901" lon="7.20255">
        <ele>1253</ele>
        <time>2016-01-23T14:38:20.060Z</time>
      </trkpt>
      <trkpt lat="43.97897" lon="7.20268">
        <ele>1257</ele>
        <time>2016-01-23T14:38:35.060Z</time>
      </trkpt>
      <trkpt lat="43.97892" lon="7.20281">
        <ele>1259</ele>
        <time>2016-01-23T14:38:47.060Z</time>
      </trkpt>
      <trkpt lat="43.97888" lon="7.20288">
        <ele>1260</ele>
        <time>2016-01-23T14:38:56.060Z</time>
      </trkpt>
      <trkpt lat="43.97885" lon="7.20275">
        <ele>1264</ele>
        <time>2016-01-23T14:39:14.060Z</time>
      </trkpt>
      <trkpt lat="43.97885" lon="7.20263">
        <ele>1266.5099904</ele>
        <time>2016-01-23T14:39:41.060Z</time>
      </trkpt>
      <trkpt lat="43.97886" lon="7.20251">
        <ele>1267</ele>
        <time>2016-01-23T14:39:55.060Z</time>
      </trkpt>
      <trkpt lat="43.97883" lon="7.20241">
        <ele>1269</ele>
        <time>2016-01-23T14:40:04.060Z</time>
      </trkpt>
      <trkpt lat="43.97877" lon="7.20245">
        <ele>1271</ele>
        <time>2016-01-23T14:40:19.060Z</time>
      </trkpt>
      <trkpt lat="43.97871" lon="7.20236">
        <ele>1274</ele>
        <time>2016-01-23T14:41:26.060Z</time>
      </trkpt>
      <trkpt lat="43.97867" lon="7.20229">
        <ele>1275</ele>
        <time>2016-01-23T14:41:32.060Z</time>
      </trkpt>
      <trkpt lat="43.97862" lon="7.20219">
        <ele>1274</ele>
        <time>2016-01-23T14:41:42.060Z</time>
      </trkpt>
      <trkpt lat="43.97856" lon="7.20208">
        <ele>1273</ele>
        <time>2016-01-23T14:41:53.060Z</time>
      </trkpt>
      <trkpt lat="43.97847" lon="7.20199">
        <ele>1273</ele>
        <time>2016-01-23T14:42:00.060Z</time>
      </trkpt>
      <trkpt lat="43.9784" lon="7.20188">
        <ele>1272</ele>
        <time>2016-01-23T14:42:10.060Z</time>
      </trkpt>
      <trkpt lat="43.97833" lon="7.20178">
        <ele>1271</ele>
        <time>2016-01-23T14:42:20.060Z</time>
      </trkpt>
      <trkpt lat="43.97825" lon="7.20168">
        <ele>1270</ele>
        <time>2016-01-23T14:42:30.060Z</time>
      </trkpt>
      <trkpt lat="43.97815" lon="7.20165">
        <ele>1271</ele>
        <time>2016-01-23T14:42:40.060Z</time>
      </trkpt>
      <trkpt lat="43.97804" lon="7.20166">
        <ele>1269</ele>
        <time>2016-01-23T14:42:52.060Z</time>
      </trkpt>
      <trkpt lat="43.97793" lon="7.20168">
        <ele>1271</ele>
        <time>2016-01-23T14:43:03.060Z</time>
      </trkpt>
      <trkpt lat="43.97782" lon="7.20167">
        <ele>1272.0199808</ele>
        <time>2016-01-23T14:43:11.060Z</time>
      </trkpt>
      <trkpt lat="43.97774" lon="7.20171">
        <ele>1273</ele>
        <time>2016-01-23T14:43:18.060Z</time>
      </trkpt>
      <trkpt lat="43.97764" lon="7.20168">
        <ele>1274</ele>
        <time>2016-01-23T14:43:30.060Z</time>
      </trkpt>
      <trkpt lat="43.97763" lon="7.20156">
        <ele>1274</ele>
        <time>2016-01-23T14:43:37.060Z</time>
      </trkpt>
      <trkpt lat="43.97765" lon="7.20143">
        <ele>1274</ele>
        <time>2016-01-23T14:43:44.060Z</time>
      </trkpt>
      <trkpt lat="43.97767" lon="7.20129">
        <ele>1272</ele>
        <time>2016-01-23T14:43:56.060Z</time>
      </trkpt>
      <trkpt lat="43.97765" lon="7.20115">
        <ele>1270</ele>
        <time>2016-01-23T14:44:30.060Z</time>
      </trkpt>
      <trkpt lat="43.97765" lon="7.20101">
        <ele>1270</ele>
        <time>2016-01-23T14:44:38.060Z</time>
      </trkpt>
      <trkpt lat="43.97765" lon="7.20086">
        <ele>1269</ele>
        <time>2016-01-23T14:44:48.060Z</time>
      </trkpt>
      <trkpt lat="43.97768" lon="7.20072">
        <ele>1268</ele>
        <time>2016-01-23T14:44:57.060Z</time>
      </trkpt>
      <trkpt lat="43.97769" lon="7.20057">
        <ele>1268</ele>
        <time>2016-01-23T14:45:04.060Z</time>
      </trkpt>
      <trkpt lat="43.9777" lon="7.20044">
        <ele>1267</ele>
        <time>2016-01-23T14:45:13.060Z</time>
      </trkpt>
      <trkpt lat="43.9777" lon="7.2003">
        <ele>1266</ele>
        <time>2016-01-23T14:45:25.060Z</time>
      </trkpt>
      <trkpt lat="43.97767" lon="7.20018">
        <ele>1264</ele>
        <time>2016-01-23T14:45:33.060Z</time>
      </trkpt>
      <trkpt lat="43.97766" lon="7.20003">
        <ele>1264</ele>
        <time>2016-01-23T14:45:43.060Z</time>
      </trkpt>
      <trkpt lat="43.97768" lon="7.19989">
        <ele>1262</ele>
        <time>2016-01-23T14:45:52.060Z</time>
      </trkpt>
      <trkpt lat="43.97764" lon="7.19975">
        <ele>1259</ele>
        <time>2016-01-23T14:46:04.060Z</time>
      </trkpt>
      <trkpt lat="43.97762" lon="7.19961">
        <ele>1258</ele>
        <time>2016-01-23T14:46:22.060Z</time>
      </trkpt>
      <trkpt lat="43.97756" lon="7.1995">
        <ele>1254.4899968</ele>
        <time>2016-01-23T14:46:36.060Z</time>
      </trkpt>
      <trkpt lat="43.9775" lon="7.19938">
        <ele>1253</ele>
        <time>2016-01-23T14:46:47.060Z</time>
      </trkpt>
      <trkpt lat="43.97743" lon="7.19928">
        <ele>1249</ele>
        <time>2016-01-23T14:47:02.060Z</time>
      </trkpt>
      <trkpt lat="43.97736" lon="7.19916">
        <ele>1247</ele>
        <time>2016-01-23T14:47:14.060Z</time>
      </trkpt>
      <trkpt lat="43.97732" lon="7.19902">
        <ele>1247</ele>
        <time>2016-01-23T14:47:22.060Z</time>
      </trkpt>
      <trkpt lat="43.97726" lon="7.19893">
        <ele>1247</ele>
        <time>2016-01-23T14:47:31.060Z</time>
      </trkpt>
      <trkpt lat="43.97719" lon="7.19883">
        <ele>1247</ele>
        <time>2016-01-23T14:47:44.060Z</time>
      </trkpt>
      <trkpt lat="43.97712" lon="7.19873">
        <ele>1246</ele>
        <time>2016-01-23T14:47:57.060Z</time>
      </trkpt>
      <trkpt lat="43.97702" lon="7.19865">
        <ele>1247</ele>
        <time>2016-01-23T14:48:08.060Z</time>
      </trkpt>
      <trkpt lat="43.97692" lon="7.19863">
        <ele>1247</ele>
        <time>2016-01-23T14:48:23.060Z</time>
      </trkpt>
      <trkpt lat="43.97682" lon="7.19858">
        <ele>1248</ele>
        <time>2016-01-23T14:48:36.060Z</time>
      </trkpt>
      <trkpt lat="43.97672" lon="7.19856">
        <ele>1248</ele>
        <time>2016-01-23T14:48:48.060Z</time>
      </trkpt>
      <trkpt lat="43.97661" lon="7.19856">
        <ele>1249</ele>
        <time>2016-01-23T14:48:59.060Z</time>
      </trkpt>
      <trkpt lat="43.97652" lon="7.19855">
        <ele>1248</ele>
        <time>2016-01-23T14:49:14.060Z</time>
      </trkpt>
      <trkpt lat="43.97643" lon="7.19856">
        <ele>1249</ele>
        <time>2016-01-23T14:49:31.060Z</time>
      </trkpt>
      <trkpt lat="43.97635" lon="7.19854">
        <ele>1248</ele>
        <time>2016-01-23T14:49:45.060Z</time>
      </trkpt>
      <trkpt lat="43.97626" lon="7.19852">
        <ele>1249</ele>
        <time>2016-01-23T14:49:59.060Z</time>
      </trkpt>
      <trkpt lat="43.9762" lon="7.19849">
        <ele>1249</ele>
        <time>2016-01-23T14:50:08.060Z</time>
      </trkpt>
      <trkpt lat="43.9761" lon="7.19847">
        <ele>1251</ele>
        <time>2016-01-23T14:50:22.060Z</time>
      </trkpt>
      <trkpt lat="43.976" lon="7.19847">
        <ele>1252</ele>
        <time>2016-01-23T14:50:33.060Z</time>
      </trkpt>
      <trkpt lat="43.97592" lon="7.19848">
        <ele>1252</ele>
        <time>2016-01-23T14:50:47.060Z</time>
      </trkpt>
      <trkpt lat="43.97583" lon="7.1985">
        <ele>1253</ele>
        <time>2016-01-23T14:51:01.060Z</time>
      </trkpt>
      <trkpt lat="43.97575" lon="7.19859">
        <ele>1254</ele>
        <time>2016-01-23T14:51:16.060Z</time>
      </trkpt>
      <trkpt lat="43.97565" lon="7.19865">
        <ele>1256</ele>
        <time>2016-01-23T14:51:26.060Z</time>
      </trkpt>
      <trkpt lat="43.97557" lon="7.19873">
        <ele>1259</ele>
        <time>2016-01-23T14:51:34.060Z</time>
      </trkpt>
      <trkpt lat="43.97547" lon="7.19877">
        <ele>1263</ele>
        <time>2016-01-23T14:51:48.060Z</time>
      </trkpt>
      <trkpt lat="43.97537" lon="7.19878">
        <ele>1265</ele>
        <time>2016-01-23T14:52:02.060Z</time>
      </trkpt>
      <trkpt lat="43.97527" lon="7.19874">
        <ele>1267</ele>
        <time>2016-01-23T14:52:14.060Z</time>
      </trkpt>
      <trkpt lat="43.9752" lon="7.19864">
        <ele>1268</ele>
        <time>2016-01-23T14:52:27.060Z</time>
      </trkpt>
      <trkpt lat="43.97512" lon="7.19854">
        <ele>1270</ele>
        <time>2016-01-23T14:52:42.060Z</time>
      </trkpt>
      <trkpt lat="43.97505" lon="7.19845">
        <ele>1271</ele>
        <time>2016-01-23T14:52:52.060Z</time>
      </trkpt>
      <trkpt lat="43.97495" lon="7.19841">
        <ele>1273</ele>
        <time>2016-01-23T14:53:09.060Z</time>
      </trkpt>
      <trkpt lat="43.97491" lon="7.19833">
        <ele>1274</ele>
        <time>2016-01-23T14:53:17.060Z</time>
      </trkpt>
      <trkpt lat="43.97487" lon="7.19825">
        <ele>1276</ele>
        <time>2016-01-23T14:53:26.060Z</time>
      </trkpt>
      <trkpt lat="43.97482" lon="7.19817">
        <ele>1278</ele>
        <time>2016-01-23T14:53:39.060Z</time>
      </trkpt>
      <trkpt lat="43.97475" lon="7.19816">
        <ele>1281</ele>
        <time>2016-01-23T14:54:02.060Z</time>
      </trkpt>
      <trkpt lat="43.97467" lon="7.19813">
        <ele>1281</ele>
        <time>2016-01-23T14:54:09.060Z</time>
      </trkpt>
      <trkpt lat="43.9746" lon="7.19811">
        <ele>1281</ele>
        <time>2016-01-23T14:54:14.060Z</time>
      </trkpt>
      <trkpt lat="43.97454" lon="7.19808">
        <ele>1281</ele>
        <time>2016-01-23T14:54:20.060Z</time>
      </trkpt>
      <trkpt lat="43.97447" lon="7.19809">
        <ele>1282</ele>
        <time>2016-01-23T14:54:26.060Z</time>
      </trkpt>
      <trkpt lat="43.97439" lon="7.1981">
        <ele>1284</ele>
        <time>2016-01-23T14:54:35.060Z</time>
      </trkpt>
      <trkpt lat="43.97432" lon="7.19814">
        <ele>1285</ele>
        <time>2016-01-23T14:54:43.060Z</time>
      </trkpt>
      <trkpt lat="43.97425" lon="7.19819">
        <ele>1285</ele>
        <time>2016-01-23T14:54:50.060Z</time>
      </trkpt>
      <trkpt lat="43.97418" lon="7.19818">
        <ele>1287</ele>
        <time>2016-01-23T14:54:55.060Z</time>
      </trkpt>
      <trkpt lat="43.9741" lon="7.19815">
        <ele>1288</ele>
        <time>2016-01-23T14:55:02.060Z</time>
      </trkpt>
      <trkpt lat="43.97403" lon="7.19811">
        <ele>1288</ele>
        <time>2016-01-23T14:55:09.060Z</time>
      </trkpt>
      <trkpt lat="43.97394" lon="7.19805">
        <ele>1286</ele>
        <time>2016-01-23T14:55:14.060Z</time>
      </trkpt>
      <trkpt lat="43.97384" lon="7.19801">
        <ele>1286</ele>
        <time>2016-01-23T14:55:19.060Z</time>
      </trkpt>
      <trkpt lat="43.97375" lon="7.19794">
        <ele>1285</ele>
        <time>2016-01-23T14:55:24.060Z</time>
      </trkpt>
      <trkpt lat="43.97364" lon="7.19787">
        <ele>1285</ele>
        <time>2016-01-23T14:55:30.060Z</time>
      </trkpt>
      <trkpt lat="43.97353" lon="7.19782">
        <ele>1285</ele>
        <time>2016-01-23T14:55:35.060Z</time>
      </trkpt>
      <trkpt lat="43.97342" lon="7.19776">
        <ele>1285</ele>
        <time>2016-01-23T14:55:40.060Z</time>
      </trkpt>
      <trkpt lat="43.97332" lon="7.19773">
        <ele>1287</ele>
        <time>2016-01-23T14:55:45.060Z</time>
      </trkpt>
      <trkpt lat="43.97322" lon="7.19773">
        <ele>1287</ele>
        <time>2016-01-23T14:55:49.060Z</time>
      </trkpt>
      <trkpt lat="43.97311" lon="7.19776">
        <ele>1287</ele>
        <time>2016-01-23T14:55:55.060Z</time>
      </trkpt>
      <trkpt lat="43.973" lon="7.19778">
        <ele>1283</ele>
        <time>2016-01-23T14:56:02.060Z</time>
      </trkpt>
      <trkpt lat="43.9729" lon="7.19782">
        <ele>1283</ele>
        <time>2016-01-23T14:56:07.060Z</time>
      </trkpt>
      <trkpt lat="43.97279" lon="7.19788">
        <ele>1281</ele>
        <time>2016-01-23T14:56:12.060Z</time>
      </trkpt>
      <trkpt lat="43.9727" lon="7.19795">
        <ele>1281</ele>
        <time>2016-01-23T14:56:17.060Z</time>
      </trkpt>
      <trkpt lat="43.97259" lon="7.19802">
        <ele>1278</ele>
        <time>2016-01-23T14:56:23.060Z</time>
      </trkpt>
      <trkpt lat="43.97248" lon="7.19806">
        <ele>1276</ele>
        <time>2016-01-23T14:56:29.060Z</time>
      </trkpt>
      <trkpt lat="43.97237" lon="7.19809">
        <ele>1274</ele>
        <time>2016-01-23T14:56:35.060Z</time>
      </trkpt>
      <trkpt lat="43.97227" lon="7.19806">
        <ele>1271</ele>
        <time>2016-01-23T14:56:43.060Z</time>
      </trkpt>
      <trkpt lat="43.97216" lon="7.19804">
        <ele>1268</ele>
        <time>2016-01-23T14:56:54.060Z</time>
      </trkpt>
      <trkpt lat="43.97206" lon="7.19807">
        <ele>1267</ele>
        <time>2016-01-23T14:57:05.060Z</time>
      </trkpt>
      <trkpt lat="43.97195" lon="7.19809">
        <ele>1267</ele>
        <time>2016-01-23T14:57:13.060Z</time>
      </trkpt>
      <trkpt lat="43.97185" lon="7.19813">
        <ele>1265</ele>
        <time>2016-01-23T14:57:22.060Z</time>
      </trkpt>
      <trkpt lat="43.97174" lon="7.19819">
        <ele>1265</ele>
        <time>2016-01-23T14:57:28.060Z</time>
      </trkpt>
      <trkpt lat="43.97163" lon="7.19822">
        <ele>1264</ele>
        <time>2016-01-23T14:57:33.060Z</time>
      </trkpt>
      <trkpt lat="43.97153" lon="7.19826">
        <ele>1264</ele>
        <time>2016-01-23T14:57:38.060Z</time>
      </trkpt>
      <trkpt lat="43.97141" lon="7.1983">
        <ele>1262</ele>
        <time>2016-01-23T14:57:44.060Z</time>
      </trkpt>
      <trkpt lat="43.9713" lon="7.19835">
        <ele>1262</ele>
        <time>2016-01-23T14:57:49.060Z</time>
      </trkpt>
      <trkpt lat="43.97119" lon="7.19841">
        <ele>1261</ele>
        <time>2016-01-23T14:57:53.060Z</time>
      </trkpt>
      <trkpt lat="43.97108" lon="7.19843">
        <ele>1261</ele>
        <time>2016-01-23T14:57:58.060Z</time>
      </trkpt>
      <trkpt lat="43.97097" lon="7.19844">
        <ele>1258</ele>
        <time>2016-01-23T14:58:03.060Z</time>
      </trkpt>
      <trkpt lat="43.97087" lon="7.19848">
        <ele>1258</ele>
        <time>2016-01-23T14:58:08.060Z</time>
      </trkpt>
      <trkpt lat="43.97078" lon="7.19856">
        <ele>1258</ele>
        <time>2016-01-23T14:58:15.060Z</time>
      </trkpt>
      <trkpt lat="43.97067" lon="7.19861">
        <ele>1257</ele>
        <time>2016-01-23T14:58:23.060Z</time>
      </trkpt>
      <trkpt lat="43.97058" lon="7.19866">
        <ele>1257</ele>
        <time>2016-01-23T14:58:29.060Z</time>
      </trkpt>
      <trkpt lat="43.9705" lon="7.19872">
        <ele>1257</ele>
        <time>2016-01-23T14:58:35.060Z</time>
      </trkpt>
      <trkpt lat="43.97041" lon="7.19874">
        <ele>1256</ele>
        <time>2016-01-23T14:58:42.060Z</time>
      </trkpt>
      <trkpt lat="43.97031" lon="7.19871">
        <ele>1256</ele>
        <time>2016-01-23T14:58:49.060Z</time>
      </trkpt>
      <trkpt lat="43.9702" lon="7.19867">
        <ele>1255</ele>
        <time>2016-01-23T14:58:55.060Z</time>
      </trkpt>
      <trkpt lat="43.97009" lon="7.19863">
        <ele>1255</ele>
        <time>2016-01-23T14:59:00.060Z</time>
      </trkpt>
      <trkpt lat="43.96998" lon="7.19858">
        <ele>1250</ele>
        <time>2016-01-23T14:59:07.060Z</time>
      </trkpt>
      <trkpt lat="43.96987" lon="7.19853">
        <ele>1248</ele>
        <time>2016-01-23T14:59:13.060Z</time>
      </trkpt>
      <trkpt lat="43.96977" lon="7.19849">
        <ele>1246</ele>
        <time>2016-01-23T14:59:19.060Z</time>
      </trkpt>
      <trkpt lat="43.96964" lon="7.19851">
        <ele>1242</ele>
        <time>2016-01-23T14:59:28.060Z</time>
      </trkpt>
      <trkpt lat="43.96954" lon="7.19854">
        <ele>1240</ele>
        <time>2016-01-23T14:59:35.060Z</time>
      </trkpt>
      <trkpt lat="43.96956" lon="7.19866">
        <ele>1236</ele>
        <time>2016-01-23T14:59:49.060Z</time>
      </trkpt>
      <trkpt lat="43.96946" lon="7.19866">
        <ele>1227</ele>
        <time>2016-01-23T15:00:17.060Z</time>
      </trkpt>
      <trkpt lat="43.96939" lon="7.19876">
        <ele>1213</ele>
        <time>2016-01-23T15:01:04.060Z</time>
      </trkpt>
      <trkpt lat="43.96933" lon="7.19887">
        <ele>1205</ele>
        <time>2016-01-23T15:02:06.060Z</time>
      </trkpt>
      <trkpt lat="43.96927" lon="7.19899">
        <ele>1196</ele>
        <time>2016-01-23T15:03:16.060Z</time>
      </trkpt>
      <trkpt lat="43.9693" lon="7.19912">
        <ele>1195</ele>
        <time>2016-01-23T15:03:34.060Z</time>
      </trkpt>
      <trkpt lat="43.9692" lon="7.19912">
        <ele>1198</ele>
        <time>2016-01-23T15:04:32.060Z</time>
      </trkpt>
      <trkpt lat="43.96909" lon="7.19912">
        <ele>1198</ele>
        <time>2016-01-23T15:04:58.060Z</time>
      </trkpt>
      <trkpt lat="43.96919" lon="7.19908">
        <ele>1196</ele>
        <time>2016-01-23T15:05:06.060Z</time>
      </trkpt>
      <trkpt lat="43.96927" lon="7.19904">
        <ele>1196</ele>
        <time>2016-01-23T15:05:13.060Z</time>
      </trkpt>
      <trkpt lat="43.96917" lon="7.19908">
        <ele>1178.4899968</ele>
        <time>2016-01-23T15:06:36.060Z</time>
      </trkpt>
      <trkpt lat="43.96908" lon="7.19912">
        <ele>1171</ele>
        <time>2016-01-23T15:06:54.060Z</time>
      </trkpt>
      <trkpt lat="43.96898" lon="7.19914">
        <ele>1166</ele>
        <time>2016-01-23T15:07:11.060Z</time>
      </trkpt>
      <trkpt lat="43.96893" lon="7.19927">
        <ele>1158</ele>
        <time>2016-01-23T15:07:38.060Z</time>
      </trkpt>
      <trkpt lat="43.96895" lon="7.19941">
        <ele>1149.9800192</ele>
        <time>2016-01-23T15:08:01.060Z</time>
      </trkpt>
      <trkpt lat="43.96886" lon="7.19948">
        <ele>1140</ele>
        <time>2016-01-23T15:08:47.060Z</time>
      </trkpt>
      <trkpt lat="43.96877" lon="7.19944">
        <ele>1137</ele>
        <time>2016-01-23T15:09:00.060Z</time>
      </trkpt>
      <trkpt lat="43.96867" lon="7.19939">
        <ele>1133</ele>
        <time>2016-01-23T15:09:12.060Z</time>
      </trkpt>
      <trkpt lat="43.96858" lon="7.19934">
        <ele>1133</ele>
        <time>2016-01-23T15:09:20.060Z</time>
      </trkpt>
      <trkpt lat="43.96851" lon="7.19927">
        <ele>1131</ele>
        <time>2016-01-23T15:09:27.060Z</time>
      </trkpt>
      <trkpt lat="43.96843" lon="7.19923">
        <ele>1130</ele>
        <time>2016-01-23T15:09:32.060Z</time>
      </trkpt>
      <trkpt lat="43.96837" lon="7.19919">
        <ele>1130</ele>
        <time>2016-01-23T15:09:37.060Z</time>
      </trkpt>
      <trkpt lat="43.96826" lon="7.19918">
        <ele>1130</ele>
        <time>2016-01-23T15:09:46.060Z</time>
      </trkpt>
      <trkpt lat="43.96816" lon="7.19916">
        <ele>1131</ele>
        <time>2016-01-23T15:09:55.060Z</time>
      </trkpt>
      <trkpt lat="43.96806" lon="7.19912">
        <ele>1131</ele>
        <time>2016-01-23T15:10:03.060Z</time>
      </trkpt>
      <trkpt lat="43.96798" lon="7.19905">
        <ele>1132</ele>
        <time>2016-01-23T15:10:12.060Z</time>
      </trkpt>
      <trkpt lat="43.96791" lon="7.19897">
        <ele>1132</ele>
        <time>2016-01-23T15:10:18.060Z</time>
      </trkpt>
      <trkpt lat="43.96782" lon="7.19892">
        <ele>1133</ele>
        <time>2016-01-23T15:10:26.060Z</time>
      </trkpt>
      <trkpt lat="43.96772" lon="7.19892">
        <ele>1132</ele>
        <time>2016-01-23T15:11:18.060Z</time>
      </trkpt>
      <trkpt lat="43.96763" lon="7.1989">
        <ele>1133.0199808</ele>
        <time>2016-01-23T15:11:31.060Z</time>
      </trkpt>
      <trkpt lat="43.96758" lon="7.19887">
        <ele>1134</ele>
        <time>2016-01-23T15:11:38.060Z</time>
      </trkpt>
      <trkpt lat="43.96758" lon="7.19882">
        <ele>1135</ele>
        <time>2016-01-23T15:12:53.060Z</time>
      </trkpt>
      <trkpt lat="43.96754" lon="7.19879">
        <ele>1135</ele>
        <time>2016-01-23T15:12:57.060Z</time>
      </trkpt>
      <trkpt lat="43.96751" lon="7.19874">
        <ele>1134.4900096</ele>
        <time>2016-01-23T15:13:01.060Z</time>
      </trkpt>
      <trkpt lat="43.96748" lon="7.19871">
        <ele>1134</ele>
        <time>2016-01-23T15:13:04.060Z</time>
      </trkpt>
      <trkpt lat="43.96744" lon="7.19869">
        <ele>1134</ele>
        <time>2016-01-23T15:13:07.060Z</time>
      </trkpt>
      <trkpt lat="43.96743" lon="7.19865">
        <ele>1134</ele>
        <time>2016-01-23T15:13:09.060Z</time>
      </trkpt>
      <trkpt lat="43.96742" lon="7.1986">
        <ele>1134</ele>
        <time>2016-01-23T15:13:13.060Z</time>
      </trkpt>
      <trkpt lat="43.96738" lon="7.19848">
        <ele>1133</ele>
        <time>2016-01-23T15:13:54.060Z</time>
      </trkpt>
      <trkpt lat="43.96736" lon="7.19841">
        <ele>1134</ele>
        <time>2016-01-23T15:14:26.060Z</time>
      </trkpt>
      <trkpt lat="43.96725" lon="7.19835">
        <ele>1132</ele>
        <time>2016-01-23T15:15:38.060Z</time>
      </trkpt>
      <trkpt lat="43.96717" lon="7.19825">
        <ele>1131</ele>
        <time>2016-01-23T15:15:43.060Z</time>
      </trkpt>
      <trkpt lat="43.96711" lon="7.19814">
        <ele>1128</ele>
        <time>2016-01-23T15:15:53.060Z</time>
      </trkpt>
      <trkpt lat="43.96703" lon="7.19804">
        <ele>1123</ele>
        <time>2016-01-23T15:16:04.060Z</time>
      </trkpt>
      <trkpt lat="43.96696" lon="7.19794">
        <ele>1121</ele>
        <time>2016-01-23T15:16:14.060Z</time>
      </trkpt>
      <trkpt lat="43.96686" lon="7.19789">
        <ele>1119.9800192</ele>
        <time>2016-01-23T15:16:21.060Z</time>
      </trkpt>
      <trkpt lat="43.96675" lon="7.19786">
        <ele>1119</ele>
        <time>2016-01-23T15:16:26.060Z</time>
      </trkpt>
      <trkpt lat="43.96666" lon="7.19786">
        <ele>1119</ele>
        <time>2016-01-23T15:16:30.060Z</time>
      </trkpt>
      <trkpt lat="43.96657" lon="7.19791">
        <ele>1117</ele>
        <time>2016-01-23T15:16:35.060Z</time>
      </trkpt>
      <trkpt lat="43.96646" lon="7.19789">
        <ele>1116</ele>
        <time>2016-01-23T15:16:40.060Z</time>
      </trkpt>
      <trkpt lat="43.96636" lon="7.19793">
        <ele>1115</ele>
        <time>2016-01-23T15:16:47.060Z</time>
      </trkpt>
      <trkpt lat="43.96632" lon="7.1978">
        <ele>1109.9900894735</ele>
        <time>2016-01-23T15:16:56.060Z</time>
      </trkpt>
      <trkpt lat="43.96625" lon="7.19774">
        <ele>1106.5049552632</ele>
        <time>2016-01-23T15:17:08.060Z</time>
      </trkpt>
      <trkpt lat="43.9663" lon="7.19761">
        <ele>1101</ele>
        <time>2016-01-23T15:17:17.060Z</time>
      </trkpt>
      <trkpt lat="43.96619" lon="7.1976">
        <ele>1100</ele>
        <time>2016-01-23T15:17:22.060Z</time>
      </trkpt>
      <trkpt lat="43.9661" lon="7.19763">
        <ele>1098.4699904</ele>
        <time>2016-01-23T15:17:26.060Z</time>
      </trkpt>
      <trkpt lat="43.96602" lon="7.19772">
        <ele>1093.4899968</ele>
        <time>2016-01-23T15:17:32.060Z</time>
      </trkpt>
      <trkpt lat="43.96593" lon="7.19779">
        <ele>1091</ele>
        <time>2016-01-23T15:17:37.060Z</time>
      </trkpt>
      <trkpt lat="43.96585" lon="7.19774">
        <ele>1089</ele>
        <time>2016-01-23T15:17:41.060Z</time>
      </trkpt>
      <trkpt lat="43.96587" lon="7.19765">
        <ele>1088.5100032</ele>
        <time>2016-01-23T15:17:46.060Z</time>
      </trkpt>
      <trkpt lat="43.96581" lon="7.19759">
        <ele>1083</ele>
        <time>2016-01-23T15:18:03.060Z</time>
      </trkpt>
      <trkpt lat="43.96574" lon="7.19763">
        <ele>1083</ele>
        <time>2016-01-23T15:18:09.060Z</time>
      </trkpt>
      <trkpt lat="43.96568" lon="7.19767">
        <ele>1082</ele>
        <time>2016-01-23T15:18:17.060Z</time>
      </trkpt>
      <trkpt lat="43.96568" lon="7.19774">
        <ele>1080</ele>
        <time>2016-01-23T15:18:25.060Z</time>
      </trkpt>
      <trkpt lat="43.96563" lon="7.1978">
        <ele>1078</ele>
        <time>2016-01-23T15:18:32.060Z</time>
      </trkpt>
      <trkpt lat="43.96555" lon="7.1978">
        <ele>1075</ele>
        <time>2016-01-23T15:18:42.060Z</time>
      </trkpt>
      <trkpt lat="43.96549" lon="7.19776">
        <ele>1072</ele>
        <time>2016-01-23T15:18:50.060Z</time>
      </trkpt>
      <trkpt lat="43.96539" lon="7.19776">
        <ele>1066</ele>
        <time>2016-01-23T15:19:10.060Z</time>
      </trkpt>
      <trkpt lat="43.96527" lon="7.19777">
        <ele>1065</ele>
        <time>2016-01-23T15:19:20.060Z</time>
      </trkpt>
      <trkpt lat="43.96516" lon="7.19778">
        <ele>1059</ele>
        <time>2016-01-23T15:19:27.060Z</time>
      </trkpt>
      <trkpt lat="43.96507" lon="7.19776">
        <ele>1055.4899968</ele>
        <time>2016-01-23T15:19:32.060Z</time>
      </trkpt>
      <trkpt lat="43.96496" lon="7.19775">
        <ele>1053</ele>
        <time>2016-01-23T15:19:39.060Z</time>
      </trkpt>
      <trkpt lat="43.96486" lon="7.19771">
        <ele>1052</ele>
        <time>2016-01-23T15:19:44.060Z</time>
      </trkpt>
      <trkpt lat="43.96476" lon="7.19766">
        <ele>1051</ele>
        <time>2016-01-23T15:19:48.060Z</time>
      </trkpt>
      <trkpt lat="43.96468" lon="7.19762">
        <ele>1050.4900096</ele>
        <time>2016-01-23T15:19:51.060Z</time>
      </trkpt>
      <trkpt lat="43.9646" lon="7.19758">
        <ele>1050</ele>
        <time>2016-01-23T15:19:55.060Z</time>
      </trkpt>
      <trkpt lat="43.96455" lon="7.19747">
        <ele>1048</ele>
        <time>2016-01-23T15:20:00.060Z</time>
      </trkpt>
      <trkpt lat="43.96448" lon="7.19738">
        <ele>1045</ele>
        <time>2016-01-23T15:20:05.060Z</time>
      </trkpt>
      <trkpt lat="43.96442" lon="7.19731">
        <ele>1044</ele>
        <time>2016-01-23T15:20:09.060Z</time>
      </trkpt>
      <trkpt lat="43.96435" lon="7.19721">
        <ele>1043</ele>
        <time>2016-01-23T15:20:13.060Z</time>
      </trkpt>
      <trkpt lat="43.96428" lon="7.19712">
        <ele>1043</ele>
        <time>2016-01-23T15:20:17.060Z</time>
      </trkpt>
      <trkpt lat="43.9642" lon="7.19703">
        <ele>1041.9800192</ele>
        <time>2016-01-23T15:20:21.060Z</time>
      </trkpt>
      <trkpt lat="43.96411" lon="7.19698">
        <ele>1041</ele>
        <time>2016-01-23T15:20:25.060Z</time>
      </trkpt>
      <trkpt lat="43.96402" lon="7.19701">
        <ele>1040</ele>
        <time>2016-01-23T15:20:29.060Z</time>
      </trkpt>
      <trkpt lat="43.96395" lon="7.19707">
        <ele>1038</ele>
        <time>2016-01-23T15:20:34.060Z</time>
      </trkpt>
      <trkpt lat="43.96384" lon="7.19709">
        <ele>1035</ele>
        <time>2016-01-23T15:20:40.060Z</time>
      </trkpt>
      <trkpt lat="43.96375" lon="7.19714">
        <ele>1028.4899968</ele>
        <time>2016-01-23T15:20:46.060Z</time>
      </trkpt>
      <trkpt lat="43.96367" lon="7.1972">
        <ele>1027</ele>
        <time>2016-01-23T15:20:50.060Z</time>
      </trkpt>
      <trkpt lat="43.96359" lon="7.19727">
        <ele>1024.4899968</ele>
        <time>2016-01-23T15:20:54.060Z</time>
      </trkpt>
      <trkpt lat="43.96352" lon="7.19728">
        <ele>1023</ele>
        <time>2016-01-23T15:20:57.060Z</time>
      </trkpt>
      <trkpt lat="43.96342" lon="7.19732">
        <ele>1020</ele>
        <time>2016-01-23T15:21:02.060Z</time>
      </trkpt>
      <trkpt lat="43.96331" lon="7.19733">
        <ele>1019</ele>
        <time>2016-01-23T15:21:08.060Z</time>
      </trkpt>
      <trkpt lat="43.96319" lon="7.19735">
        <ele>1017</ele>
        <time>2016-01-23T15:21:14.060Z</time>
      </trkpt>
      <trkpt lat="43.96309" lon="7.19738">
        <ele>1015</ele>
        <time>2016-01-23T15:21:19.060Z</time>
      </trkpt>
      <trkpt lat="43.96299" lon="7.19745">
        <ele>1014</ele>
        <time>2016-01-23T15:21:24.060Z</time>
      </trkpt>
      <trkpt lat="43.9629" lon="7.19751">
        <ele>1013</ele>
        <time>2016-01-23T15:21:29.060Z</time>
      </trkpt>
      <trkpt lat="43.96282" lon="7.19761">
        <ele>1010</ele>
        <time>2016-01-23T15:21:34.060Z</time>
      </trkpt>
      <trkpt lat="43.96271" lon="7.19765">
        <ele>1009</ele>
        <time>2016-01-23T15:21:40.060Z</time>
      </trkpt>
      <trkpt lat="43.96261" lon="7.19766">
        <ele>1008</ele>
        <time>2016-01-23T15:21:45.060Z</time>
      </trkpt>
      <trkpt lat="43.96251" lon="7.19772">
        <ele>1008</ele>
        <time>2016-01-23T15:21:50.060Z</time>
      </trkpt>
      <trkpt lat="43.96242" lon="7.19777">
        <ele>1006</ele>
        <time>2016-01-23T15:21:55.060Z</time>
      </trkpt>
      <trkpt lat="43.96232" lon="7.19782">
        <ele>1006</ele>
        <time>2016-01-23T15:22:00.060Z</time>
      </trkpt>
      <trkpt lat="43.96223" lon="7.19787">
        <ele>1003</ele>
        <time>2016-01-23T15:22:05.060Z</time>
      </trkpt>
      <trkpt lat="43.96213" lon="7.19789">
        <ele>1003</ele>
        <time>2016-01-23T15:22:10.060Z</time>
      </trkpt>
      <trkpt lat="43.96203" lon="7.19793">
        <ele>1002</ele>
        <time>2016-01-23T15:22:15.060Z</time>
      </trkpt>
      <trkpt lat="43.96192" lon="7.19798">
        <ele>999.9600384</ele>
        <time>2016-01-23T15:22:21.060Z</time>
      </trkpt>
      <trkpt lat="43.96182" lon="7.198">
        <ele>996.4699904</ele>
        <time>2016-01-23T15:22:26.060Z</time>
      </trkpt>
      <trkpt lat="43.96172" lon="7.19805">
        <ele>994.4900096</ele>
        <time>2016-01-23T15:22:31.060Z</time>
      </trkpt>
      <trkpt lat="43.96162" lon="7.19807">
        <ele>994</ele>
        <time>2016-01-23T15:22:36.060Z</time>
      </trkpt>
      <trkpt lat="43.96152" lon="7.1981">
        <ele>993.4900096</ele>
        <time>2016-01-23T15:22:41.060Z</time>
      </trkpt>
      <trkpt lat="43.96142" lon="7.19816">
        <ele>993</ele>
        <time>2016-01-23T15:22:46.060Z</time>
      </trkpt>
      <trkpt lat="43.96133" lon="7.19821">
        <ele>991.4700288</ele>
        <time>2016-01-23T15:22:51.060Z</time>
      </trkpt>
      <trkpt lat="43.96123" lon="7.19824">
        <ele>988.9799936</ele>
        <time>2016-01-23T15:22:56.060Z</time>
      </trkpt>
      <trkpt lat="43.96113" lon="7.19828">
        <ele>986.4700288</ele>
        <time>2016-01-23T15:23:01.060Z</time>
      </trkpt>
      <trkpt lat="43.96102" lon="7.19832">
        <ele>985</ele>
        <time>2016-01-23T15:23:06.060Z</time>
      </trkpt>
      <trkpt lat="43.96092" lon="7.19835">
        <ele>984.4900096</ele>
        <time>2016-01-23T15:23:11.060Z</time>
      </trkpt>
      <trkpt lat="43.96081" lon="7.19839">
        <ele>984</ele>
        <time>2016-01-23T15:23:17.060Z</time>
      </trkpt>
      <trkpt lat="43.96071" lon="7.19844">
        <ele>981</ele>
        <time>2016-01-23T15:23:23.060Z</time>
      </trkpt>
      <trkpt lat="43.96061" lon="7.19846">
        <ele>978</ele>
        <time>2016-01-23T15:23:29.060Z</time>
      </trkpt>
      <trkpt lat="43.96051" lon="7.1985">
        <ele>975</ele>
        <time>2016-01-23T15:23:40.060Z</time>
      </trkpt>
      <trkpt lat="43.96044" lon="7.19863">
        <ele>971</ele>
        <time>2016-01-23T15:23:47.060Z</time>
      </trkpt>
      <trkpt lat="43.96033" lon="7.19866">
        <ele>969</ele>
        <time>2016-01-23T15:23:52.060Z</time>
      </trkpt>
      <trkpt lat="43.96026" lon="7.1988">
        <ele>967</ele>
        <time>2016-01-23T15:23:58.060Z</time>
      </trkpt>
      <trkpt lat="43.96018" lon="7.19889">
        <ele>965</ele>
        <time>2016-01-23T15:24:03.060Z</time>
      </trkpt>
      <trkpt lat="43.96007" lon="7.19895">
        <ele>964</ele>
        <time>2016-01-23T15:24:10.060Z</time>
      </trkpt>
      <trkpt lat="43.95998" lon="7.199">
        <ele>963</ele>
        <time>2016-01-23T15:24:17.060Z</time>
      </trkpt>
      <trkpt lat="43.95988" lon="7.19905">
        <ele>963</ele>
        <time>2016-01-23T15:24:22.060Z</time>
      </trkpt>
      <trkpt lat="43.95977" lon="7.1991">
        <ele>963</ele>
        <time>2016-01-23T15:24:27.060Z</time>
      </trkpt>
      <trkpt lat="43.95967" lon="7.19909">
        <ele>962</ele>
        <time>2016-01-23T15:24:32.060Z</time>
      </trkpt>
      <trkpt lat="43.95963" lon="7.199">
        <ele>962</ele>
        <time>2016-01-23T15:24:39.060Z</time>
      </trkpt>
      <trkpt lat="43.95965" lon="7.19893">
        <ele>959</ele>
        <time>2016-01-23T15:24:44.060Z</time>
      </trkpt>
      <trkpt lat="43.95956" lon="7.19887">
        <ele>956.4899968</ele>
        <time>2016-01-23T15:24:56.060Z</time>
      </trkpt>
      <trkpt lat="43.95947" lon="7.19886">
        <ele>951</ele>
        <time>2016-01-23T15:25:03.060Z</time>
      </trkpt>
      <trkpt lat="43.95939" lon="7.19887">
        <ele>949</ele>
        <time>2016-01-23T15:25:08.060Z</time>
      </trkpt>
      <trkpt lat="43.95932" lon="7.19889">
        <ele>948</ele>
        <time>2016-01-23T15:25:12.060Z</time>
      </trkpt>
      <trkpt lat="43.95924" lon="7.19892">
        <ele>947.4899968</ele>
        <time>2016-01-23T15:25:16.060Z</time>
      </trkpt>
      <trkpt lat="43.95916" lon="7.19894">
        <ele>947</ele>
        <time>2016-01-23T15:25:20.060Z</time>
      </trkpt>
      <trkpt lat="43.95908" lon="7.19896">
        <ele>945</ele>
        <time>2016-01-23T15:25:24.060Z</time>
      </trkpt>
      <trkpt lat="43.95902" lon="7.19896">
        <ele>943</ele>
        <time>2016-01-23T15:25:29.060Z</time>
      </trkpt>
      <trkpt lat="43.95895" lon="7.19894">
        <ele>942</ele>
        <time>2016-01-23T15:25:35.060Z</time>
      </trkpt>
      <trkpt lat="43.95888" lon="7.19893">
        <ele>940</ele>
        <time>2016-01-23T15:25:39.060Z</time>
      </trkpt>
      <trkpt lat="43.95878" lon="7.19891">
        <ele>936</ele>
        <time>2016-01-23T15:25:45.060Z</time>
      </trkpt>
      <trkpt lat="43.9587" lon="7.19887">
        <ele>933</ele>
        <time>2016-01-23T15:25:51.060Z</time>
      </trkpt>
      <trkpt lat="43.95864" lon="7.19884">
        <ele>932</ele>
        <time>2016-01-23T15:26:00.060Z</time>
      </trkpt>
      <trkpt lat="43.95858" lon="7.19881">
        <ele>929</ele>
        <time>2016-01-23T15:26:10.060Z</time>
      </trkpt>
      <trkpt lat="43.95851" lon="7.1988">
        <ele>927</ele>
        <time>2016-01-23T15:26:29.060Z</time>
      </trkpt>
      <trkpt lat="43.95843" lon="7.19875">
        <ele>925</ele>
        <time>2016-01-23T15:26:42.060Z</time>
      </trkpt>
      <trkpt lat="43.95832" lon="7.19869">
        <ele>925</ele>
        <time>2016-01-23T15:26:50.060Z</time>
      </trkpt>
      <trkpt lat="43.95821" lon="7.19869">
        <ele>921</ele>
        <time>2016-01-23T15:26:58.060Z</time>
      </trkpt>
      <trkpt lat="43.95812" lon="7.19871">
        <ele>920</ele>
        <time>2016-01-23T15:27:06.060Z</time>
      </trkpt>
      <trkpt lat="43.95802" lon="7.19869">
        <ele>919</ele>
        <time>2016-01-23T15:27:15.060Z</time>
      </trkpt>
      <trkpt lat="43.95792" lon="7.19865">
        <ele>916</ele>
        <time>2016-01-23T15:27:25.060Z</time>
      </trkpt>
      <trkpt lat="43.95785" lon="7.19862">
        <ele>915</ele>
        <time>2016-01-23T15:27:34.060Z</time>
      </trkpt>
      <trkpt lat="43.95777" lon="7.19861">
        <ele>915</ele>
        <time>2016-01-23T15:27:40.060Z</time>
      </trkpt>
      <trkpt lat="43.95769" lon="7.19859">
        <ele>914</ele>
        <time>2016-01-23T15:27:46.060Z</time>
      </trkpt>
      <trkpt lat="43.95763" lon="7.19856">
        <ele>913.4900096</ele>
        <time>2016-01-23T15:27:51.060Z</time>
      </trkpt>
      <trkpt lat="43.95755" lon="7.19852">
        <ele>913</ele>
        <time>2016-01-23T15:27:57.060Z</time>
      </trkpt>
      <trkpt lat="43.95748" lon="7.19847">
        <ele>912.4900096</ele>
        <time>2016-01-23T15:28:01.060Z</time>
      </trkpt>
      <trkpt lat="43.95741" lon="7.19842">
        <ele>912</ele>
        <time>2016-01-23T15:28:04.060Z</time>
      </trkpt>
      <trkpt lat="43.95733" lon="7.19838">
        <ele>912</ele>
        <time>2016-01-23T15:28:07.060Z</time>
      </trkpt>
      <trkpt lat="43.95724" lon="7.19834">
        <ele>911.4900096</ele>
        <time>2016-01-23T15:28:11.060Z</time>
      </trkpt>
      <trkpt lat="43.95712" lon="7.19834">
        <ele>911</ele>
        <time>2016-01-23T15:28:16.060Z</time>
      </trkpt>
      <trkpt lat="43.95702" lon="7.19838">
        <ele>908.9600384</ele>
        <time>2016-01-23T15:28:21.060Z</time>
      </trkpt>
      <trkpt lat="43.9569" lon="7.19841">
        <ele>904</ele>
        <time>2016-01-23T15:28:27.060Z</time>
      </trkpt>
      <trkpt lat="43.9568" lon="7.19843">
        <ele>903</ele>
        <time>2016-01-23T15:28:32.060Z</time>
      </trkpt>
      <trkpt lat="43.9567" lon="7.19841">
        <ele>902</ele>
        <time>2016-01-23T15:28:37.060Z</time>
      </trkpt>
      <trkpt lat="43.95659" lon="7.19839">
        <ele>899</ele>
        <time>2016-01-23T15:28:43.060Z</time>
      </trkpt>
      <trkpt lat="43.9565" lon="7.19835">
        <ele>897.4900096</ele>
        <time>2016-01-23T15:28:51.060Z</time>
      </trkpt>
      <trkpt lat="43.95643" lon="7.19831">
        <ele>894</ele>
        <time>2016-01-23T15:29:00.060Z</time>
      </trkpt>
      <trkpt lat="43.95633" lon="7.19836">
        <ele>892</ele>
        <time>2016-01-23T15:29:12.060Z</time>
      </trkpt>
      <trkpt lat="43.95624" lon="7.19841">
        <ele>889</ele>
        <time>2016-01-23T15:29:23.060Z</time>
      </trkpt>
      <trkpt lat="43.95613" lon="7.19839">
        <ele>884</ele>
        <time>2016-01-23T15:29:34.060Z</time>
      </trkpt>
      <trkpt lat="43.95604" lon="7.19837">
        <ele>879</ele>
        <time>2016-01-23T15:29:52.060Z</time>
      </trkpt>
      <trkpt lat="43.95595" lon="7.19836">
        <ele>875</ele>
        <time>2016-01-23T15:30:03.060Z</time>
      </trkpt>
      <trkpt lat="43.95587" lon="7.19832">
        <ele>874.4900096</ele>
        <time>2016-01-23T15:30:11.060Z</time>
      </trkpt>
      <trkpt lat="43.95576" lon="7.19827">
        <ele>874</ele>
        <time>2016-01-23T15:30:20.060Z</time>
      </trkpt>
      <trkpt lat="43.95568" lon="7.19824">
        <ele>872</ele>
        <time>2016-01-23T15:30:27.060Z</time>
      </trkpt>
      <trkpt lat="43.95558" lon="7.19818">
        <ele>870</ele>
        <time>2016-01-23T15:30:35.060Z</time>
      </trkpt>
      <trkpt lat="43.95549" lon="7.19813">
        <ele>869</ele>
        <time>2016-01-23T15:30:42.060Z</time>
      </trkpt>
      <trkpt lat="43.95541" lon="7.19806">
        <ele>869</ele>
        <time>2016-01-23T15:30:46.060Z</time>
      </trkpt>
      <trkpt lat="43.95532" lon="7.19797">
        <ele>867.9800192</ele>
        <time>2016-01-23T15:30:51.060Z</time>
      </trkpt>
      <trkpt lat="43.95522" lon="7.19792">
        <ele>867</ele>
        <time>2016-01-23T15:30:58.060Z</time>
      </trkpt>
      <trkpt lat="43.95511" lon="7.19789">
        <ele>865</ele>
        <time>2016-01-23T15:31:06.060Z</time>
      </trkpt>
      <trkpt lat="43.955" lon="7.19786">
        <ele>865</ele>
        <time>2016-01-23T15:31:11.060Z</time>
      </trkpt>
      <trkpt lat="43.95489" lon="7.19785">
        <ele>865</ele>
        <time>2016-01-23T15:31:16.060Z</time>
      </trkpt>
      <trkpt lat="43.95478" lon="7.19787">
        <ele>863.4700288</ele>
        <time>2016-01-23T15:31:21.060Z</time>
      </trkpt>
      <trkpt lat="43.9547" lon="7.1978">
        <ele>861</ele>
        <time>2016-01-23T15:31:29.060Z</time>
      </trkpt>
      <trkpt lat="43.9547" lon="7.1977">
        <ele>860</ele>
        <time>2016-01-23T15:31:34.060Z</time>
      </trkpt>
      <trkpt lat="43.95471" lon="7.1976">
        <ele>860</ele>
        <time>2016-01-23T15:31:39.060Z</time>
      </trkpt>
      <trkpt lat="43.9547" lon="7.19748">
        <ele>859</ele>
        <time>2016-01-23T15:31:45.060Z</time>
      </trkpt>
      <trkpt lat="43.95466" lon="7.19738">
        <ele>857</ele>
        <time>2016-01-23T15:31:53.060Z</time>
      </trkpt>
      <trkpt lat="43.95458" lon="7.1973">
        <ele>856.4900096</ele>
        <time>2016-01-23T15:32:01.060Z</time>
      </trkpt>
      <trkpt lat="43.95451" lon="7.19725">
        <ele>856</ele>
        <time>2016-01-23T15:32:07.060Z</time>
      </trkpt>
      <trkpt lat="43.95444" lon="7.1972">
        <ele>856</ele>
        <time>2016-01-23T15:32:13.060Z</time>
      </trkpt>
      <trkpt lat="43.95435" lon="7.19713">
        <ele>854.9800192</ele>
        <time>2016-01-23T15:32:21.060Z</time>
      </trkpt>
      <trkpt lat="43.95428" lon="7.19708">
        <ele>854</ele>
        <time>2016-01-23T15:32:27.060Z</time>
      </trkpt>
      <trkpt lat="43.95421" lon="7.19705">
        <ele>853</ele>
        <time>2016-01-23T15:32:33.060Z</time>
      </trkpt>
      <trkpt lat="43.95413" lon="7.19702">
        <ele>853</ele>
        <time>2016-01-23T15:32:39.060Z</time>
      </trkpt>
      <trkpt lat="43.95407" lon="7.19698">
        <ele>852</ele>
        <time>2016-01-23T15:32:45.060Z</time>
      </trkpt>
      <trkpt lat="43.954" lon="7.19695">
        <ele>850.9800192</ele>
        <time>2016-01-23T15:32:51.060Z</time>
      </trkpt>
      <trkpt lat="43.95393" lon="7.19693">
        <ele>850</ele>
        <time>2016-01-23T15:33:00.060Z</time>
      </trkpt>
      <trkpt lat="43.95384" lon="7.19687">
        <ele>848</ele>
        <time>2016-01-23T15:33:08.060Z</time>
      </trkpt>
      <trkpt lat="43.95377" lon="7.19685">
        <ele>848</ele>
        <time>2016-01-23T15:33:13.060Z</time>
      </trkpt>
      <trkpt lat="43.95371" lon="7.19682">
        <ele>848</ele>
        <time>2016-01-23T15:33:19.060Z</time>
      </trkpt>
      <trkpt lat="43.95365" lon="7.1968">
        <ele>847</ele>
        <time>2016-01-23T15:33:24.060Z</time>
      </trkpt>
      <trkpt lat="43.95361" lon="7.19679">
        <ele>847</ele>
        <time>2016-01-23T15:33:28.060Z</time>
      </trkpt>
      <trkpt lat="43.95356" lon="7.19679">
        <ele>844</ele>
        <time>2016-01-23T15:33:33.060Z</time>
      </trkpt>
      <trkpt lat="43.95346" lon="7.1968">
        <ele>841</ele>
        <time>2016-01-23T15:33:47.060Z</time>
      </trkpt>
      <trkpt lat="43.95336" lon="7.19678">
        <ele>839</ele>
        <time>2016-01-23T15:34:13.060Z</time>
      </trkpt>
      <trkpt lat="43.95326" lon="7.19674">
        <ele>837</ele>
        <time>2016-01-23T15:34:23.060Z</time>
      </trkpt>
      <trkpt lat="43.95322" lon="7.19672">
        <ele>836</ele>
        <time>2016-01-23T15:34:27.060Z</time>
      </trkpt>
      <trkpt lat="43.95316" lon="7.19672">
        <ele>836</ele>
        <time>2016-01-23T15:34:32.060Z</time>
      </trkpt>
      <trkpt lat="43.95312" lon="7.19675">
        <ele>836</ele>
        <time>2016-01-23T15:34:37.060Z</time>
      </trkpt>
      <trkpt lat="43.95306" lon="7.19675">
        <ele>836</ele>
        <time>2016-01-23T15:34:43.060Z</time>
      </trkpt>
      <trkpt lat="43.95299" lon="7.1967">
        <ele>836</ele>
        <time>2016-01-23T15:34:49.060Z</time>
      </trkpt>
      <trkpt lat="43.95295" lon="7.19669">
        <ele>834</ele>
        <time>2016-01-23T15:34:52.060Z</time>
      </trkpt>
      <trkpt lat="43.95292" lon="7.19667">
        <ele>834</ele>
        <time>2016-01-23T15:34:55.060Z</time>
      </trkpt>
      <trkpt lat="43.95288" lon="7.19665">
        <ele>834</ele>
        <time>2016-01-23T15:34:58.060Z</time>
      </trkpt>
      <trkpt lat="43.95284" lon="7.19664">
        <ele>833.4900096</ele>
        <time>2016-01-23T15:35:01.060Z</time>
      </trkpt>
      <trkpt lat="43.95274" lon="7.19659">
        <ele>833</ele>
        <time>2016-01-23T15:35:09.060Z</time>
      </trkpt>
      <trkpt lat="43.95264" lon="7.19654">
        <ele>833</ele>
        <time>2016-01-23T15:35:17.060Z</time>
      </trkpt>
      <trkpt lat="43.95254" lon="7.19648">
        <ele>832</ele>
        <time>2016-01-23T15:35:25.060Z</time>
      </trkpt>
      <trkpt lat="43.95243" lon="7.19643">
        <ele>831</ele>
        <time>2016-01-23T15:35:33.060Z</time>
      </trkpt>
      <trkpt lat="43.95232" lon="7.19638">
        <ele>831</ele>
        <time>2016-01-23T15:35:38.060Z</time>
      </trkpt>
      <trkpt lat="43.95221" lon="7.19634">
        <ele>830</ele>
        <time>2016-01-23T15:35:42.060Z</time>
      </trkpt>
      <trkpt lat="43.9521" lon="7.19631">
        <ele>830</ele>
        <time>2016-01-23T15:35:47.060Z</time>
      </trkpt>
      <trkpt lat="43.952" lon="7.1963">
        <ele>829</ele>
        <time>2016-01-23T15:35:52.060Z</time>
      </trkpt>
      <trkpt lat="43.95189" lon="7.1963">
        <ele>829</ele>
        <time>2016-01-23T15:35:58.060Z</time>
      </trkpt>
      <trkpt lat="43.95178" lon="7.19631">
        <ele>824</ele>
        <time>2016-01-23T15:36:04.060Z</time>
      </trkpt>
      <trkpt lat="43.95168" lon="7.19628">
        <ele>824</ele>
        <time>2016-01-23T15:36:09.060Z</time>
      </trkpt>
      <trkpt lat="43.95157" lon="7.19626">
        <ele>822</ele>
        <time>2016-01-23T15:36:14.060Z</time>
      </trkpt>
      <trkpt lat="43.95146" lon="7.19623">
        <ele>822</ele>
        <time>2016-01-23T15:36:20.060Z</time>
      </trkpt>
      <trkpt lat="43.95135" lon="7.19621">
        <ele>820</ele>
        <time>2016-01-23T15:36:25.060Z</time>
      </trkpt>
      <trkpt lat="43.95124" lon="7.19624">
        <ele>816</ele>
        <time>2016-01-23T15:36:35.060Z</time>
      </trkpt>
      <trkpt lat="43.95114" lon="7.19627">
        <ele>813</ele>
        <time>2016-01-23T15:36:44.060Z</time>
      </trkpt>
      <trkpt lat="43.95105" lon="7.19633">
        <ele>811</ele>
        <time>2016-01-23T15:36:55.060Z</time>
      </trkpt>
      <trkpt lat="43.95096" lon="7.19637">
        <ele>808</ele>
        <time>2016-01-23T15:37:04.060Z</time>
      </trkpt>
      <trkpt lat="43.95085" lon="7.19641">
        <ele>806</ele>
        <time>2016-01-23T15:37:14.060Z</time>
      </trkpt>
      <trkpt lat="43.95076" lon="7.19645">
        <ele>804</ele>
        <time>2016-01-23T15:37:22.060Z</time>
      </trkpt>
      <trkpt lat="43.95067" lon="7.19643">
        <ele>804</ele>
        <time>2016-01-23T15:37:30.060Z</time>
      </trkpt>
      <trkpt lat="43.95056" lon="7.19646">
        <ele>803</ele>
        <time>2016-01-23T15:37:37.060Z</time>
      </trkpt>
      <trkpt lat="43.95046" lon="7.1965">
        <ele>798</ele>
        <time>2016-01-23T15:37:49.060Z</time>
      </trkpt>
      <trkpt lat="43.95037" lon="7.19656">
        <ele>795</ele>
        <time>2016-01-23T15:37:59.060Z</time>
      </trkpt>
      <trkpt lat="43.95031" lon="7.19659">
        <ele>794</ele>
        <time>2016-01-23T15:38:04.060Z</time>
      </trkpt>
      <trkpt lat="43.95021" lon="7.19661">
        <ele>793</ele>
        <time>2016-01-23T15:38:15.060Z</time>
      </trkpt>
      <trkpt lat="43.95015" lon="7.19663">
        <ele>793</ele>
        <time>2016-01-23T15:38:19.060Z</time>
      </trkpt>
      <trkpt lat="43.95006" lon="7.19668">
        <ele>788</ele>
        <time>2016-01-23T15:38:33.060Z</time>
      </trkpt>
      <trkpt lat="43.94998" lon="7.19668">
        <ele>784</ele>
        <time>2016-01-23T15:38:42.060Z</time>
      </trkpt>
      <trkpt lat="43.94988" lon="7.19667">
        <ele>783</ele>
        <time>2016-01-23T15:38:52.060Z</time>
      </trkpt>
      <trkpt lat="43.94979" lon="7.19666">
        <ele>783</ele>
        <time>2016-01-23T15:38:58.060Z</time>
      </trkpt>
      <trkpt lat="43.94972" lon="7.19668">
        <ele>781</ele>
        <time>2016-01-23T15:39:03.060Z</time>
      </trkpt>
      <trkpt lat="43.94965" lon="7.19664">
        <ele>781</ele>
        <time>2016-01-23T15:39:09.060Z</time>
      </trkpt>
      <trkpt lat="43.94956" lon="7.19654">
        <ele>780</ele>
        <time>2016-01-23T15:39:16.060Z</time>
      </trkpt>
      <trkpt lat="43.94955" lon="7.19642">
        <ele>777</ele>
        <time>2016-01-23T15:39:24.060Z</time>
      </trkpt>
      <trkpt lat="43.94956" lon="7.19634">
        <ele>776</ele>
        <time>2016-01-23T15:39:30.060Z</time>
      </trkpt>
      <trkpt lat="43.94956" lon="7.19629">
        <ele>775</ele>
        <time>2016-01-23T15:39:34.060Z</time>
      </trkpt>
      <trkpt lat="43.94954" lon="7.19623">
        <ele>775</ele>
        <time>2016-01-23T15:39:40.060Z</time>
      </trkpt>
      <trkpt lat="43.94953" lon="7.19615">
        <ele>772.4899968</ele>
        <time>2016-01-23T15:39:46.060Z</time>
      </trkpt>
      <trkpt lat="43.9495" lon="7.19607">
        <ele>771</ele>
        <time>2016-01-23T15:39:52.060Z</time>
      </trkpt>
      <trkpt lat="43.94948" lon="7.196">
        <ele>771</ele>
        <time>2016-01-23T15:39:56.060Z</time>
      </trkpt>
      <trkpt lat="43.94945" lon="7.19594">
        <ele>769</ele>
        <time>2016-01-23T15:40:02.060Z</time>
      </trkpt>
      <trkpt lat="43.9494" lon="7.19588">
        <ele>769</ele>
        <time>2016-01-23T15:40:07.060Z</time>
      </trkpt>
      <trkpt lat="43.94934" lon="7.19583">
        <ele>768</ele>
        <time>2016-01-23T15:40:13.060Z</time>
      </trkpt>
      <trkpt lat="43.94929" lon="7.19578">
        <ele>768</ele>
        <time>2016-01-23T15:40:18.060Z</time>
      </trkpt>
      <trkpt lat="43.94923" lon="7.19573">
        <ele>767</ele>
        <time>2016-01-23T15:40:24.060Z</time>
      </trkpt>
      <trkpt lat="43.94914" lon="7.19565">
        <ele>766</ele>
        <time>2016-01-23T15:40:33.060Z</time>
      </trkpt>
      <trkpt lat="43.94912" lon="7.19557">
        <ele>764</ele>
        <time>2016-01-23T15:41:22.060Z</time>
      </trkpt>
      <trkpt lat="43.94914" lon="7.19548">
        <ele>764</ele>
        <time>2016-01-23T15:41:29.060Z</time>
      </trkpt>
      <trkpt lat="43.94915" lon="7.1954">
        <ele>762</ele>
        <time>2016-01-23T15:41:33.060Z</time>
      </trkpt>
      <trkpt lat="43.94914" lon="7.19534">
        <ele>762</ele>
        <time>2016-01-23T15:41:38.060Z</time>
      </trkpt>
      <trkpt lat="43.94914" lon="7.19527">
        <ele>759</ele>
        <time>2016-01-23T15:41:42.060Z</time>
      </trkpt>
      <trkpt lat="43.94913" lon="7.19519">
        <ele>758</ele>
        <time>2016-01-23T15:41:47.060Z</time>
      </trkpt>
      <trkpt lat="43.94912" lon="7.19513">
        <ele>757</ele>
        <time>2016-01-23T15:41:52.060Z</time>
      </trkpt>
      <trkpt lat="43.9491" lon="7.19507">
        <ele>756.4899968</ele>
        <time>2016-01-23T15:41:56.060Z</time>
      </trkpt>
      <trkpt lat="43.94908" lon="7.19501">
        <ele>756</ele>
        <time>2016-01-23T15:42:00.060Z</time>
      </trkpt>
      <trkpt lat="43.94906" lon="7.19495">
        <ele>754</ele>
        <time>2016-01-23T15:42:04.060Z</time>
      </trkpt>
      <trkpt lat="43.94903" lon="7.19486">
        <ele>754</ele>
        <time>2016-01-23T15:42:10.060Z</time>
      </trkpt>
      <trkpt lat="43.94902" lon="7.19479">
        <ele>754</ele>
        <time>2016-01-23T15:42:14.060Z</time>
      </trkpt>
      <trkpt lat="43.94901" lon="7.19472">
        <ele>754</ele>
        <time>2016-01-23T15:42:18.060Z</time>
      </trkpt>
      <trkpt lat="43.94899" lon="7.19466">
        <ele>752.9800192</ele>
        <time>2016-01-23T15:42:21.060Z</time>
      </trkpt>
      <trkpt lat="43.94895" lon="7.19472">
        <ele>749</ele>
        <time>2016-01-23T15:42:32.060Z</time>
      </trkpt>
      <trkpt lat="43.94892" lon="7.19465">
        <ele>748</ele>
        <time>2016-01-23T15:42:43.060Z</time>
      </trkpt>
      <trkpt lat="43.94891" lon="7.19457">
        <ele>748</ele>
        <time>2016-01-23T15:42:48.060Z</time>
      </trkpt>
      <trkpt lat="43.94891" lon="7.19451">
        <ele>748</ele>
        <time>2016-01-23T15:42:50.060Z</time>
      </trkpt>
      <trkpt lat="43.94893" lon="7.19443">
        <ele>748</ele>
        <time>2016-01-23T15:42:52.060Z</time>
      </trkpt>
      <trkpt lat="43.94891" lon="7.19428">
        <ele>748</ele>
        <time>2016-01-23T15:42:56.060Z</time>
      </trkpt>
      <trkpt lat="43.94885" lon="7.19417">
        <ele>748</ele>
        <time>2016-01-23T15:42:59.060Z</time>
      </trkpt>
      <trkpt lat="43.94881" lon="7.19411">
        <ele>746.4700288</ele>
        <time>2016-01-23T15:43:01.060Z</time>
      </trkpt>
      <trkpt lat="43.94877" lon="7.19401">
        <ele>745</ele>
        <time>2016-01-23T15:43:04.060Z</time>
      </trkpt>
      <trkpt lat="43.94874" lon="7.19391">
        <ele>744</ele>
        <time>2016-01-23T15:43:07.060Z</time>
      </trkpt>
      <trkpt lat="43.94872" lon="7.19383">
        <ele>744</ele>
        <time>2016-01-23T15:43:09.060Z</time>
      </trkpt>
      <trkpt lat="43.94872" lon="7.19374">
        <ele>743</ele>
        <time>2016-01-23T15:43:13.060Z</time>
      </trkpt>
      <trkpt lat="43.94871" lon="7.19367">
        <ele>742</ele>
        <time>2016-01-23T15:43:17.060Z</time>
      </trkpt>
      <trkpt lat="43.94871" lon="7.19359">
        <ele>742</ele>
        <time>2016-01-23T15:43:40.060Z</time>
      </trkpt>
      <trkpt lat="43.94873" lon="7.1935">
        <ele>741</ele>
        <time>2016-01-23T15:43:49.060Z</time>
      </trkpt>
      <trkpt lat="43.94875" lon="7.19338">
        <ele>739</ele>
        <time>2016-01-23T15:43:58.060Z</time>
      </trkpt>
      <trkpt lat="43.94866" lon="7.19331">
        <ele>735</ele>
        <time>2016-01-23T15:44:07.060Z</time>
      </trkpt>
      <trkpt lat="43.94856" lon="7.19328">
        <ele>735</ele>
        <time>2016-01-23T15:44:17.060Z</time>
      </trkpt>
      <trkpt lat="43.94847" lon="7.19321">
        <ele>732</ele>
        <time>2016-01-23T15:44:25.060Z</time>
      </trkpt>
      <trkpt lat="43.94841" lon="7.19308">
        <ele>729</ele>
        <time>2016-01-23T15:44:32.060Z</time>
      </trkpt>
      <trkpt lat="43.94834" lon="7.19301">
        <ele>726</ele>
        <time>2016-01-23T15:44:38.060Z</time>
      </trkpt>
      <trkpt lat="43.94825" lon="7.19294">
        <ele>720</ele>
        <time>2016-01-23T15:44:45.060Z</time>
      </trkpt>
      <trkpt lat="43.94816" lon="7.19288">
        <ele>716</ele>
        <time>2016-01-23T15:44:55.060Z</time>
      </trkpt>
      <trkpt lat="43.94811" lon="7.19284">
        <ele>715</ele>
        <time>2016-01-23T15:45:04.060Z</time>
      </trkpt>
      <trkpt lat="43.94809" lon="7.19276">
        <ele>713</ele>
        <time>2016-01-23T15:45:12.060Z</time>
      </trkpt>
      <trkpt lat="43.94806" lon="7.19269">
        <ele>713</ele>
        <time>2016-01-23T15:45:18.060Z</time>
      </trkpt>
      <trkpt lat="43.94805" lon="7.19264">
        <ele>710</ele>
        <time>2016-01-23T15:45:23.060Z</time>
      </trkpt>
      <trkpt lat="43.94801" lon="7.19259">
        <ele>708</ele>
        <time>2016-01-23T15:45:29.060Z</time>
      </trkpt>
      <trkpt lat="43.94796" lon="7.19253">
        <ele>704.4699904</ele>
        <time>2016-01-23T15:45:36.060Z</time>
      </trkpt>
      <trkpt lat="43.94789" lon="7.19242">
        <ele>701.9800192</ele>
        <time>2016-01-23T15:45:41.060Z</time>
      </trkpt>
      <trkpt lat="43.94785" lon="7.1923">
        <ele>701</ele>
        <time>2016-01-23T15:45:44.060Z</time>
      </trkpt>
      <trkpt lat="43.94783" lon="7.19218">
        <ele>700</ele>
        <time>2016-01-23T15:45:47.060Z</time>
      </trkpt>
      <trkpt lat="43.94782" lon="7.1921">
        <ele>700</ele>
        <time>2016-01-23T15:45:49.060Z</time>
      </trkpt>
      <trkpt lat="43.94782" lon="7.19202">
        <ele>699.4900096</ele>
        <time>2016-01-23T15:45:51.060Z</time>
      </trkpt>
      <trkpt lat="43.94782" lon="7.19193">
        <ele>699</ele>
        <time>2016-01-23T15:45:53.060Z</time>
      </trkpt>
      <trkpt lat="43.94782" lon="7.19185">
        <ele>699</ele>
        <time>2016-01-23T15:45:55.060Z</time>
      </trkpt>
      <trkpt lat="43.94781" lon="7.19177">
        <ele>697</ele>
        <time>2016-01-23T15:45:57.060Z</time>
      </trkpt>
      <trkpt lat="43.94781" lon="7.19168">
        <ele>697</ele>
        <time>2016-01-23T15:45:59.060Z</time>
      </trkpt>
      <trkpt lat="43.94779" lon="7.1916">
        <ele>695.4700288</ele>
        <time>2016-01-23T15:46:01.060Z</time>
      </trkpt>
      <trkpt lat="43.94779" lon="7.19155">
        <ele>694</ele>
        <time>2016-01-23T15:46:02.060Z</time>
      </trkpt>
      <trkpt lat="43.94778" lon="7.19139">
        <ele>693.4899968</ele>
        <time>2016-01-23T15:46:06.060Z</time>
      </trkpt>
      <trkpt lat="43.94779" lon="7.19121">
        <ele>693</ele>
        <time>2016-01-23T15:46:10.060Z</time>
      </trkpt>
      <trkpt lat="43.94782" lon="7.19105">
        <ele>693</ele>
        <time>2016-01-23T15:46:14.060Z</time>
      </trkpt>
      <trkpt lat="43.94784" lon="7.19097">
        <ele>693</ele>
        <time>2016-01-23T15:46:16.060Z</time>
      </trkpt>
      <trkpt lat="43.94786" lon="7.1909">
        <ele>693</ele>
        <time>2016-01-23T15:46:18.060Z</time>
      </trkpt>
      <trkpt lat="43.94791" lon="7.19077">
        <ele>690</ele>
        <time>2016-01-23T15:46:22.060Z</time>
      </trkpt>
      <trkpt lat="43.94782" lon="7.19088">
        <ele>684</ele>
        <time>2016-01-23T15:46:33.060Z</time>
      </trkpt>
      <trkpt lat="43.94775" lon="7.19099">
        <ele>683.4899968</ele>
        <time>2016-01-23T15:46:38.060Z</time>
      </trkpt>
      <trkpt lat="43.9478" lon="7.19086">
        <ele>683</ele>
        <time>2016-01-23T15:46:45.060Z</time>
      </trkpt>
      <trkpt lat="43.94782" lon="7.19076">
        <ele>683</ele>
        <time>2016-01-23T15:46:50.060Z</time>
      </trkpt>
      <trkpt lat="43.94784" lon="7.19067">
        <ele>682</ele>
        <time>2016-01-23T15:46:55.060Z</time>
      </trkpt>
      <trkpt lat="43.94787" lon="7.1906">
        <ele>682</ele>
        <time>2016-01-23T15:46:59.060Z</time>
      </trkpt>
      <trkpt lat="43.94797" lon="7.19055">
        <ele>680</ele>
        <time>2016-01-23T15:47:07.060Z</time>
      </trkpt>
      <trkpt lat="43.94806" lon="7.19048">
        <ele>680</ele>
        <time>2016-01-23T15:47:17.060Z</time>
      </trkpt>
      <trkpt lat="43.94815" lon="7.19042">
        <ele>676</ele>
        <time>2016-01-23T15:47:28.060Z</time>
      </trkpt>
      <trkpt lat="43.94826" lon="7.19038">
        <ele>673</ele>
        <time>2016-01-23T15:47:38.060Z</time>
      </trkpt>
      <trkpt lat="43.94827" lon="7.19023">
        <ele>670.9800192</ele>
        <time>2016-01-23T15:47:51.060Z</time>
      </trkpt>
      <trkpt lat="43.94827" lon="7.19009">
        <ele>666.9800192</ele>
        <time>2016-01-23T15:48:01.060Z</time>
      </trkpt>
      <trkpt lat="43.94829" lon="7.18996">
        <ele>666</ele>
        <time>2016-01-23T15:48:10.060Z</time>
      </trkpt>
      <trkpt lat="43.94827" lon="7.18985">
        <ele>665</ele>
        <time>2016-01-23T15:48:18.060Z</time>
      </trkpt>
      <trkpt lat="43.94822" lon="7.1897">
        <ele>660</ele>
        <time>2016-01-23T15:48:28.060Z</time>
      </trkpt>
      <trkpt lat="43.94818" lon="7.18956">
        <ele>657</ele>
        <time>2016-01-23T15:48:38.060Z</time>
      </trkpt>
      <trkpt lat="43.94815" lon="7.18946">
        <ele>655</ele>
        <time>2016-01-23T15:48:42.060Z</time>
      </trkpt>
      <trkpt lat="43.94814" lon="7.18933">
        <ele>652</ele>
        <time>2016-01-23T15:48:47.060Z</time>
      </trkpt>
      <trkpt lat="43.94817" lon="7.18922">
        <ele>650.4700288</ele>
        <time>2016-01-23T15:48:51.060Z</time>
      </trkpt>
      <trkpt lat="43.9482" lon="7.18912">
        <ele>648</ele>
        <time>2016-01-23T15:48:54.060Z</time>
      </trkpt>
      <trkpt lat="43.94825" lon="7.18904">
        <ele>646.4900096</ele>
        <time>2016-01-23T15:48:57.060Z</time>
      </trkpt>
      <trkpt lat="43.94832" lon="7.18892">
        <ele>645</ele>
        <time>2016-01-23T15:49:04.060Z</time>
      </trkpt>
      <trkpt lat="43.94835" lon="7.18886">
        <ele>644</ele>
        <time>2016-01-23T15:49:09.060Z</time>
      </trkpt>
      <trkpt lat="43.94838" lon="7.18881">
        <ele>642</ele>
        <time>2016-01-23T15:49:14.060Z</time>
      </trkpt>
      <trkpt lat="43.94841" lon="7.18876">
        <ele>641</ele>
        <time>2016-01-23T15:49:19.060Z</time>
      </trkpt>
      <trkpt lat="43.94843" lon="7.18871">
        <ele>641</ele>
        <time>2016-01-23T15:49:25.060Z</time>
      </trkpt>
      <trkpt lat="43.94845" lon="7.18867">
        <ele>641</ele>
        <time>2016-01-23T15:49:29.060Z</time>
      </trkpt>
      <trkpt lat="43.94849" lon="7.18855">
        <ele>637</ele>
        <time>2016-01-23T15:49:39.060Z</time>
      </trkpt>
      <trkpt lat="43.94851" lon="7.1885">
        <ele>636</ele>
        <time>2016-01-23T15:49:43.060Z</time>
      </trkpt>
      <trkpt lat="43.94854" lon="7.18844">
        <ele>635</ele>
        <time>2016-01-23T15:49:47.060Z</time>
      </trkpt>
      <trkpt lat="43.94856" lon="7.1884">
        <ele>635</ele>
        <time>2016-01-23T15:49:50.060Z</time>
      </trkpt>
      <trkpt lat="43.94858" lon="7.18835">
        <ele>633.4899968</ele>
        <time>2016-01-23T15:49:56.060Z</time>
      </trkpt>
      <trkpt lat="43.94859" lon="7.1883">
        <ele>631.4700288</ele>
        <time>2016-01-23T15:50:01.060Z</time>
      </trkpt>
      <trkpt lat="43.9486" lon="7.18825">
        <ele>630</ele>
        <time>2016-01-23T15:50:04.060Z</time>
      </trkpt>
      <trkpt lat="43.9486" lon="7.18819">
        <ele>629</ele>
        <time>2016-01-23T15:50:07.060Z</time>
      </trkpt>
      <trkpt lat="43.94862" lon="7.18813">
        <ele>629</ele>
        <time>2016-01-23T15:50:11.060Z</time>
      </trkpt>
      <trkpt lat="43.94866" lon="7.188">
        <ele>629</ele>
        <time>2016-01-23T15:50:20.060Z</time>
      </trkpt>
      <trkpt lat="43.94866" lon="7.1879">
        <ele>622</ele>
        <time>2016-01-23T15:50:27.060Z</time>
      </trkpt>
      <trkpt lat="43.94867" lon="7.18783">
        <ele>620</ele>
        <time>2016-01-23T15:50:33.060Z</time>
      </trkpt>
      <trkpt lat="43.94868" lon="7.18776">
        <ele>620</ele>
        <time>2016-01-23T15:50:38.060Z</time>
      </trkpt>
      <trkpt lat="43.94868" lon="7.18768">
        <ele>618</ele>
        <time>2016-01-23T15:50:42.060Z</time>
      </trkpt>
      <trkpt lat="43.94872" lon="7.18759">
        <ele>618</ele>
        <time>2016-01-23T15:50:45.060Z</time>
      </trkpt>
      <trkpt lat="43.94876" lon="7.18751">
        <ele>615</ele>
        <time>2016-01-23T15:50:48.060Z</time>
      </trkpt>
      <trkpt lat="43.94879" lon="7.18743">
        <ele>613.9800192</ele>
        <time>2016-01-23T15:50:51.060Z</time>
      </trkpt>
      <trkpt lat="43.94881" lon="7.18737">
        <ele>613</ele>
        <time>2016-01-23T15:50:53.060Z</time>
      </trkpt>
      <trkpt lat="43.94884" lon="7.18729">
        <ele>611.9799936</ele>
        <time>2016-01-23T15:50:56.060Z</time>
      </trkpt>
      <trkpt lat="43.94885" lon="7.18717">
        <ele>611</ele>
        <time>2016-01-23T15:51:00.060Z</time>
      </trkpt>
      <trkpt lat="43.94884" lon="7.18702">
        <ele>606</ele>
        <time>2016-01-23T15:51:05.060Z</time>
      </trkpt>
      <trkpt lat="43.94882" lon="7.18691">
        <ele>603.4900096</ele>
        <time>2016-01-23T15:51:09.060Z</time>
      </trkpt>
      <trkpt lat="43.94875" lon="7.18683">
        <ele>602</ele>
        <time>2016-01-23T15:51:16.060Z</time>
      </trkpt>
      <trkpt lat="43.94875" lon="7.18673">
        <ele>602</ele>
        <time>2016-01-23T15:51:19.060Z</time>
      </trkpt>
      <trkpt lat="43.94877" lon="7.18663">
        <ele>600</ele>
        <time>2016-01-23T15:51:22.060Z</time>
      </trkpt>
      <trkpt lat="43.94878" lon="7.18654">
        <ele>600</ele>
        <time>2016-01-23T15:51:26.060Z</time>
      </trkpt>
      <trkpt lat="43.9488" lon="7.18647">
        <ele>600</ele>
        <time>2016-01-23T15:51:30.060Z</time>
      </trkpt>
      <trkpt lat="43.94883" lon="7.1864">
        <ele>597</ele>
        <time>2016-01-23T15:51:35.060Z</time>
      </trkpt>
      <trkpt lat="43.94881" lon="7.18633">
        <ele>596</ele>
        <time>2016-01-23T15:51:40.060Z</time>
      </trkpt>
      <trkpt lat="43.94879" lon="7.18627">
        <ele>594</ele>
        <time>2016-01-23T15:51:50.060Z</time>
      </trkpt>
      <trkpt lat="43.94875" lon="7.18622">
        <ele>594</ele>
        <time>2016-01-23T15:51:54.060Z</time>
      </trkpt>
      <trkpt lat="43.94871" lon="7.18617">
        <ele>594</ele>
        <time>2016-01-23T15:51:59.060Z</time>
      </trkpt>
      <trkpt lat="43.94867" lon="7.1861">
        <ele>592</ele>
        <time>2016-01-23T15:52:15.060Z</time>
      </trkpt>
      <trkpt lat="43.94864" lon="7.18605">
        <ele>592</ele>
        <time>2016-01-23T15:52:18.060Z</time>
      </trkpt>
      <trkpt lat="43.94861" lon="7.18599">
        <ele>591</ele>
        <time>2016-01-23T15:52:22.060Z</time>
      </trkpt>
      <trkpt lat="43.94857" lon="7.18596">
        <ele>591</ele>
        <time>2016-01-23T15:52:25.060Z</time>
      </trkpt>
      <trkpt lat="43.94853" lon="7.18593">
        <ele>591</ele>
        <time>2016-01-23T15:52:28.060Z</time>
      </trkpt>
      <trkpt lat="43.94848" lon="7.18589">
        <ele>592</ele>
        <time>2016-01-23T15:52:33.060Z</time>
      </trkpt>
      <trkpt lat="43.94843" lon="7.18585">
        <ele>592</ele>
        <time>2016-01-23T15:52:37.060Z</time>
      </trkpt>
      <trkpt lat="43.94837" lon="7.18582">
        <ele>592.5099904</ele>
        <time>2016-01-23T15:52:41.060Z</time>
      </trkpt>
      <trkpt lat="43.94833" lon="7.18578">
        <ele>593</ele>
        <time>2016-01-23T15:52:45.060Z</time>
      </trkpt>
      <trkpt lat="43.94828" lon="7.18573">
        <ele>593</ele>
        <time>2016-01-23T15:52:50.060Z</time>
      </trkpt>
      <trkpt lat="43.94823" lon="7.18568">
        <ele>593</ele>
        <time>2016-01-23T15:52:55.060Z</time>
      </trkpt>
      <trkpt lat="43.94818" lon="7.18563">
        <ele>593</ele>
        <time>2016-01-23T15:53:01.060Z</time>
      </trkpt>
      <trkpt lat="43.94815" lon="7.18556">
        <ele>593</ele>
        <time>2016-01-23T15:53:06.060Z</time>
      </trkpt>
      <trkpt lat="43.94811" lon="7.18548">
        <ele>595</ele>
        <time>2016-01-23T15:53:13.060Z</time>
      </trkpt>
      <trkpt lat="43.94807" lon="7.1854">
        <ele>595</ele>
        <time>2016-01-23T15:53:18.060Z</time>
      </trkpt>
      <trkpt lat="43.94804" lon="7.18534">
        <ele>597</ele>
        <time>2016-01-23T15:53:22.060Z</time>
      </trkpt>
      <trkpt lat="43.948" lon="7.18526">
        <ele>597</ele>
        <time>2016-01-23T15:53:27.060Z</time>
      </trkpt>
      <trkpt lat="43.94798" lon="7.18517">
        <ele>599</ele>
        <time>2016-01-23T15:53:32.060Z</time>
      </trkpt>
      <trkpt lat="43.94794" lon="7.1851">
        <ele>599</ele>
        <time>2016-01-23T15:53:37.060Z</time>
      </trkpt>
      <trkpt lat="43.94791" lon="7.18499">
        <ele>599</ele>
        <time>2016-01-23T15:53:43.060Z</time>
      </trkpt>
      <trkpt lat="43.94788" lon="7.18493">
        <ele>599</ele>
        <time>2016-01-23T15:53:48.060Z</time>
      </trkpt>
      <trkpt lat="43.94782" lon="7.18488">
        <ele>601</ele>
        <time>2016-01-23T15:53:53.060Z</time>
      </trkpt>
      <trkpt lat="43.94774" lon="7.18482">
        <ele>601</ele>
        <time>2016-01-23T15:54:00.060Z</time>
      </trkpt>
      <trkpt lat="43.94766" lon="7.18475">
        <ele>602</ele>
        <time>2016-01-23T15:54:07.060Z</time>
      </trkpt>
      <trkpt lat="43.94757" lon="7.1847">
        <ele>602</ele>
        <time>2016-01-23T15:54:14.060Z</time>
      </trkpt>
      <trkpt lat="43.94747" lon="7.18467">
        <ele>604</ele>
        <time>2016-01-23T15:54:22.060Z</time>
      </trkpt>
      <trkpt lat="43.94741" lon="7.18464">
        <ele>604</ele>
        <time>2016-01-23T15:54:28.060Z</time>
      </trkpt>
      <trkpt lat="43.94731" lon="7.18461">
        <ele>606</ele>
        <time>2016-01-23T15:54:37.060Z</time>
      </trkpt>
      <trkpt lat="43.94721" lon="7.1846">
        <ele>607</ele>
        <time>2016-01-23T15:54:43.060Z</time>
      </trkpt>
      <trkpt lat="43.9471" lon="7.18458">
        <ele>607</ele>
        <time>2016-01-23T15:54:47.060Z</time>
      </trkpt>
      <trkpt lat="43.94699" lon="7.18455">
        <ele>607</ele>
        <time>2016-01-23T15:54:50.060Z</time>
      </trkpt>
      <trkpt lat="43.9469" lon="7.18449">
        <ele>612</ele>
        <time>2016-01-23T15:54:53.060Z</time>
      </trkpt>
      <trkpt lat="43.9468" lon="7.18442">
        <ele>614.0400128</ele>
        <time>2016-01-23T15:54:56.060Z</time>
      </trkpt>
      <trkpt lat="43.94673" lon="7.18435">
        <ele>616</ele>
        <time>2016-01-23T15:55:00.060Z</time>
      </trkpt>
      <trkpt lat="43.94668" lon="7.18431">
        <ele>615</ele>
        <time>2016-01-23T15:55:04.060Z</time>
      </trkpt>
      <trkpt lat="43.94664" lon="7.18426">
        <ele>615</ele>
        <time>2016-01-23T15:55:09.060Z</time>
      </trkpt>
      <trkpt lat="43.94661" lon="7.18422">
        <ele>615</ele>
        <time>2016-01-23T15:55:16.060Z</time>
      </trkpt>
      <trkpt lat="43.94659" lon="7.18417">
        <ele>615</ele>
        <time>2016-01-23T15:55:20.060Z</time>
      </trkpt>
      <trkpt lat="43.94658" lon="7.1841">
        <ele>614</ele>
        <time>2016-01-23T15:55:24.060Z</time>
      </trkpt>
      <trkpt lat="43.94653" lon="7.18405">
        <ele>614</ele>
        <time>2016-01-23T15:55:30.060Z</time>
      </trkpt>
      <trkpt lat="43.94644" lon="7.18407">
        <ele>615</ele>
        <time>2016-01-23T15:56:06.060Z</time>
      </trkpt>
      <trkpt lat="43.94638" lon="7.18399">
        <ele>614</ele>
        <time>2016-01-23T15:56:12.060Z</time>
      </trkpt>
      <trkpt lat="43.94638" lon="7.18389">
        <ele>615</ele>
        <time>2016-01-23T15:56:46.060Z</time>
      </trkpt>
      <trkpt lat="43.94637" lon="7.18375">
        <ele>614</ele>
        <time>2016-01-23T15:56:54.060Z</time>
      </trkpt>
      <trkpt lat="43.94628" lon="7.18367">
        <ele>612</ele>
        <time>2016-01-23T15:57:03.060Z</time>
      </trkpt>
      <trkpt lat="43.9462" lon="7.18358">
        <ele>612</ele>
        <time>2016-01-23T15:57:10.060Z</time>
      </trkpt>
      <trkpt lat="43.94611" lon="7.18349">
        <ele>612</ele>
        <time>2016-01-23T15:57:18.060Z</time>
      </trkpt>
      <trkpt lat="43.94603" lon="7.1834">
        <ele>612</ele>
        <time>2016-01-23T15:57:25.060Z</time>
      </trkpt>
      <trkpt lat="43.94596" lon="7.1833">
        <ele>612</ele>
        <time>2016-01-23T15:57:31.060Z</time>
      </trkpt>
      <trkpt lat="43.94589" lon="7.18326">
        <ele>612</ele>
        <time>2016-01-23T15:57:37.060Z</time>
      </trkpt>
      <trkpt lat="43.94583" lon="7.18323">
        <ele>612</ele>
        <time>2016-01-23T15:57:42.060Z</time>
      </trkpt>
      <trkpt lat="43.94576" lon="7.18311">
        <ele>613</ele>
        <time>2016-01-23T15:57:50.060Z</time>
      </trkpt>
      <trkpt lat="43.94568" lon="7.18301">
        <ele>612</ele>
        <time>2016-01-23T15:57:58.060Z</time>
      </trkpt>
      <trkpt lat="43.94566" lon="7.18287">
        <ele>610</ele>
        <time>2016-01-23T15:58:06.060Z</time>
      </trkpt>
      <trkpt lat="43.94561" lon="7.18277">
        <ele>612</ele>
        <time>2016-01-23T15:58:13.060Z</time>
      </trkpt>
      <trkpt lat="43.94557" lon="7.18272">
        <ele>612</ele>
        <time>2016-01-23T15:58:17.060Z</time>
      </trkpt>
      <trkpt lat="43.94555" lon="7.18267">
        <ele>612</ele>
        <time>2016-01-23T15:58:20.060Z</time>
      </trkpt>
      <trkpt lat="43.94551" lon="7.18262">
        <ele>613</ele>
        <time>2016-01-23T15:58:24.060Z</time>
      </trkpt>
      <trkpt lat="43.94548" lon="7.18257">
        <ele>613</ele>
        <time>2016-01-23T15:58:28.060Z</time>
      </trkpt>
      <trkpt lat="43.94546" lon="7.18252">
        <ele>614</ele>
        <time>2016-01-23T15:58:32.060Z</time>
      </trkpt>
      <trkpt lat="43.94549" lon="7.18249">
        <ele>615</ele>
        <time>2016-01-23T16:01:09.060Z</time>
      </trkpt>
      <trkpt lat="43.9455" lon="7.18248">
        <ele>615.45651478261</ele>
        <time>2016-01-23T16:01:51.060Z</time>
      </trkpt>
    </trkseg>
  </trk>
</gpx>